<?xml version="1.0" encoding="UTF-8" standalone="no" ?>
<gpx xmlns="http://www.topografix.com/GPX/1/1" xmlns:xsi="http://www.w3.org/2001/XMLSchema-instance" xsi:schemaLocation="http://www.topografix.com/GPX/1/1 http://www.topografix.com/GPX/1/1/gpx.xsd" version="1.1" creator="VisuGPX - https://www.visugpx.com">
  <metadata>
    <name>TDF ETAPE 6</name>
  </metadata>
  <trk>
    <name><![CDATA[12866048-TDF_Tours_Châteauroux]]></name>
    <extensions>
      <line xmlns="http://www.topografix.com/GPX/gpx_style/0/2">
        <color>0000FF</color>
        <width>4</width>
      </line>
    </extensions>
    <trkseg>
      <trkpt lat="47.3903" lon="0.6888">
        <ele>53</ele>
        <time>2021-06-23T19:55:57Z</time>
      </trkpt>
      <trkpt lat="47.3903" lon="0.6888">
        <ele>53</ele>
        <time>2021-06-23T19:55:57Z</time>
      </trkpt>
      <trkpt lat="47.39023" lon="0.68821">
        <ele>53</ele>
        <time>2021-06-23T19:56:04Z</time>
      </trkpt>
      <trkpt lat="47.39018" lon="0.6882">
        <ele>53</ele>
        <time>2021-06-23T19:56:05Z</time>
      </trkpt>
      <trkpt lat="47.39004" lon="0.68821">
        <ele>52</ele>
        <time>2021-06-23T19:56:08Z</time>
      </trkpt>
      <trkpt lat="47.38998" lon="0.68823">
        <ele>52</ele>
        <time>2021-06-23T19:56:09Z</time>
      </trkpt>
      <trkpt lat="47.38989" lon="0.68829">
        <ele>52</ele>
        <time>2021-06-23T19:56:10Z</time>
      </trkpt>
      <trkpt lat="47.38981" lon="0.68841">
        <ele>52</ele>
        <time>2021-06-23T19:56:12Z</time>
      </trkpt>
      <trkpt lat="47.38976" lon="0.68855">
        <ele>52</ele>
        <time>2021-06-23T19:56:14Z</time>
      </trkpt>
      <trkpt lat="47.38975" lon="0.6889">
        <ele>52</ele>
        <time>2021-06-23T19:56:19Z</time>
      </trkpt>
      <trkpt lat="47.38979" lon="0.68916">
        <ele>52</ele>
        <time>2021-06-23T19:56:22Z</time>
      </trkpt>
      <trkpt lat="47.38983" lon="0.68937">
        <ele>53</ele>
        <time>2021-06-23T19:56:24Z</time>
      </trkpt>
      <trkpt lat="47.38988" lon="0.68948">
        <ele>54</ele>
        <time>2021-06-23T19:56:26Z</time>
      </trkpt>
      <trkpt lat="47.38998" lon="0.6896">
        <ele>55</ele>
        <time>2021-06-23T19:56:28Z</time>
      </trkpt>
      <trkpt lat="47.39005" lon="0.68965">
        <ele>55</ele>
        <time>2021-06-23T19:56:30Z</time>
      </trkpt>
      <trkpt lat="47.3902" lon="0.68964">
        <ele>55</ele>
        <time>2021-06-23T19:56:32Z</time>
      </trkpt>
      <trkpt lat="47.39036" lon="0.69095">
        <ele>54</ele>
        <time>2021-06-23T19:56:48Z</time>
      </trkpt>
      <trkpt lat="47.39054" lon="0.69206">
        <ele>53</ele>
        <time>2021-06-23T19:57:02Z</time>
      </trkpt>
      <trkpt lat="47.39101" lon="0.69542">
        <ele>53</ele>
        <time>2021-06-23T19:57:44Z</time>
      </trkpt>
      <trkpt lat="47.3912" lon="0.69693">
        <ele>52</ele>
        <time>2021-06-23T19:58:02Z</time>
      </trkpt>
      <trkpt lat="47.3915" lon="0.69912">
        <ele>53</ele>
        <time>2021-06-23T19:58:29Z</time>
      </trkpt>
      <trkpt lat="47.3915" lon="0.69912">
        <ele>53</ele>
        <time>2021-06-23T19:58:29Z</time>
      </trkpt>
      <trkpt lat="47.39152" lon="0.69924">
        <ele>53</ele>
        <time>2021-06-23T19:58:30Z</time>
      </trkpt>
      <trkpt lat="47.39198" lon="0.70011">
        <ele>52</ele>
        <time>2021-06-23T19:58:44Z</time>
      </trkpt>
      <trkpt lat="47.39251" lon="0.70124">
        <ele>50</ele>
        <time>2021-06-23T19:59:00Z</time>
      </trkpt>
      <trkpt lat="47.39276" lon="0.70108">
        <ele>50</ele>
        <time>2021-06-23T19:59:05Z</time>
      </trkpt>
      <trkpt lat="47.39313" lon="0.7008">
        <ele>49</ele>
        <time>2021-06-23T19:59:13Z</time>
      </trkpt>
      <trkpt lat="47.39399" lon="0.70006">
        <ele>52</ele>
        <time>2021-06-23T19:59:30Z</time>
      </trkpt>
      <trkpt lat="47.39625" lon="0.69964">
        <ele>54</ele>
        <time>2021-06-23T20:00:11Z</time>
      </trkpt>
      <trkpt lat="47.39751" lon="0.69945">
        <ele>55</ele>
        <time>2021-06-23T20:00:33Z</time>
      </trkpt>
      <trkpt lat="47.39758" lon="0.69945">
        <ele>55</ele>
        <time>2021-06-23T20:00:35Z</time>
      </trkpt>
      <trkpt lat="47.39764" lon="0.69946">
        <ele>54</ele>
        <time>2021-06-23T20:00:36Z</time>
      </trkpt>
      <trkpt lat="47.39766" lon="0.69946">
        <ele>54</ele>
        <time>2021-06-23T20:00:36Z</time>
      </trkpt>
      <trkpt lat="47.39776" lon="0.69949">
        <ele>53</ele>
        <time>2021-06-23T20:00:38Z</time>
      </trkpt>
      <trkpt lat="47.39794" lon="0.69953">
        <ele>52</ele>
        <time>2021-06-23T20:00:41Z</time>
      </trkpt>
      <trkpt lat="47.39812" lon="0.69962">
        <ele>50</ele>
        <time>2021-06-23T20:00:44Z</time>
      </trkpt>
      <trkpt lat="47.39901" lon="0.70007">
        <ele>47</ele>
        <time>2021-06-23T20:01:01Z</time>
      </trkpt>
      <trkpt lat="47.39979" lon="0.70047">
        <ele>47</ele>
        <time>2021-06-23T20:01:16Z</time>
      </trkpt>
      <trkpt lat="47.40102" lon="0.70111">
        <ele>50</ele>
        <time>2021-06-23T20:01:39Z</time>
      </trkpt>
      <trkpt lat="47.40238" lon="0.70182">
        <ele>55</ele>
        <time>2021-06-23T20:02:05Z</time>
      </trkpt>
      <trkpt lat="47.40266" lon="0.70197">
        <ele>55</ele>
        <time>2021-06-23T20:02:10Z</time>
      </trkpt>
      <trkpt lat="47.40275" lon="0.70201">
        <ele>56</ele>
        <time>2021-06-23T20:02:12Z</time>
      </trkpt>
      <trkpt lat="47.40266" lon="0.70197">
        <ele>55</ele>
        <time>2021-06-23T20:02:13Z</time>
      </trkpt>
      <trkpt lat="47.4029" lon="0.70224">
        <ele>56</ele>
        <time>2021-06-23T20:02:19Z</time>
      </trkpt>
      <trkpt lat="47.40301" lon="0.70242">
        <ele>56</ele>
        <time>2021-06-23T20:02:22Z</time>
      </trkpt>
      <trkpt lat="47.40307" lon="0.70259">
        <ele>56</ele>
        <time>2021-06-23T20:02:24Z</time>
      </trkpt>
      <trkpt lat="47.4031" lon="0.70277">
        <ele>56</ele>
        <time>2021-06-23T20:02:26Z</time>
      </trkpt>
      <trkpt lat="47.40309" lon="0.70317">
        <ele>55</ele>
        <time>2021-06-23T20:02:31Z</time>
      </trkpt>
      <trkpt lat="47.40303" lon="0.70373">
        <ele>54</ele>
        <time>2021-06-23T20:02:38Z</time>
      </trkpt>
      <trkpt lat="47.4029" lon="0.70462">
        <ele>52</ele>
        <time>2021-06-23T20:02:49Z</time>
      </trkpt>
      <trkpt lat="47.40288" lon="0.70481">
        <ele>52</ele>
        <time>2021-06-23T20:02:51Z</time>
      </trkpt>
      <trkpt lat="47.40289" lon="0.70493">
        <ele>52</ele>
        <time>2021-06-23T20:02:53Z</time>
      </trkpt>
      <trkpt lat="47.40293" lon="0.70521">
        <ele>52</ele>
        <time>2021-06-23T20:02:56Z</time>
      </trkpt>
      <trkpt lat="47.403" lon="0.70553">
        <ele>52</ele>
        <time>2021-06-23T20:03:00Z</time>
      </trkpt>
      <trkpt lat="47.40305" lon="0.70567">
        <ele>52</ele>
        <time>2021-06-23T20:03:02Z</time>
      </trkpt>
      <trkpt lat="47.40292" lon="0.70735">
        <ele>53</ele>
        <time>2021-06-23T20:03:22Z</time>
      </trkpt>
      <trkpt lat="47.40265" lon="0.71087">
        <ele>54</ele>
        <time>2021-06-23T20:04:05Z</time>
      </trkpt>
      <trkpt lat="47.40264" lon="0.71112">
        <ele>54</ele>
        <time>2021-06-23T20:04:08Z</time>
      </trkpt>
      <trkpt lat="47.40262" lon="0.71125">
        <ele>54</ele>
        <time>2021-06-23T20:04:10Z</time>
      </trkpt>
      <trkpt lat="47.40171" lon="0.71473">
        <ele>51</ele>
        <time>2021-06-23T20:04:55Z</time>
      </trkpt>
      <trkpt lat="47.40168" lon="0.71489">
        <ele>51</ele>
        <time>2021-06-23T20:04:57Z</time>
      </trkpt>
      <trkpt lat="47.40166" lon="0.71522">
        <ele>51</ele>
        <time>2021-06-23T20:05:01Z</time>
      </trkpt>
      <trkpt lat="47.40167" lon="0.71619">
        <ele>50</ele>
        <time>2021-06-23T20:05:12Z</time>
      </trkpt>
      <trkpt lat="47.40171" lon="0.71684">
        <ele>49</ele>
        <time>2021-06-23T20:05:20Z</time>
      </trkpt>
      <trkpt lat="47.40183" lon="0.71781">
        <ele>49</ele>
        <time>2021-06-23T20:05:32Z</time>
      </trkpt>
      <trkpt lat="47.40195" lon="0.71875">
        <ele>49</ele>
        <time>2021-06-23T20:05:43Z</time>
      </trkpt>
      <trkpt lat="47.40223" lon="0.72017">
        <ele>51</ele>
        <time>2021-06-23T20:06:01Z</time>
      </trkpt>
      <trkpt lat="47.4024" lon="0.72085">
        <ele>51</ele>
        <time>2021-06-23T20:06:10Z</time>
      </trkpt>
      <trkpt lat="47.40256" lon="0.72144">
        <ele>50</ele>
        <time>2021-06-23T20:06:18Z</time>
      </trkpt>
      <trkpt lat="47.40336" lon="0.72358">
        <ele>51</ele>
        <time>2021-06-23T20:06:47Z</time>
      </trkpt>
      <trkpt lat="47.40354" lon="0.72385">
        <ele>52</ele>
        <time>2021-06-23T20:06:52Z</time>
      </trkpt>
      <trkpt lat="47.40361" lon="0.72402">
        <ele>52</ele>
        <time>2021-06-23T20:06:54Z</time>
      </trkpt>
      <trkpt lat="47.40361" lon="0.72419">
        <ele>51</ele>
        <time>2021-06-23T20:06:56Z</time>
      </trkpt>
      <trkpt lat="47.40363" lon="0.72427">
        <ele>51</ele>
        <time>2021-06-23T20:06:57Z</time>
      </trkpt>
      <trkpt lat="47.40368" lon="0.72438">
        <ele>52</ele>
        <time>2021-06-23T20:06:59Z</time>
      </trkpt>
    </trkseg>
  </trk>
  <trk>
    <name><![CDATA[TDF ETAPE 6]]></name>
    <trkseg>
      <trkpt lat="47.40368" lon="0.72438">
        <ele>52</ele>
        <time>2021-06-23T20:06:59Z</time>
      </trkpt>
      <trkpt lat="47.40369" lon="0.72457">
        <ele>51</ele>
        <time>2021-06-23T20:07:01Z</time>
      </trkpt>
      <trkpt lat="47.40367" lon="0.7248">
        <ele>51</ele>
        <time>2021-06-23T20:07:04Z</time>
      </trkpt>
      <trkpt lat="47.40358" lon="0.72519">
        <ele>50</ele>
        <time>2021-06-23T20:07:09Z</time>
      </trkpt>
      <trkpt lat="47.40356" lon="0.72536">
        <ele>50</ele>
        <time>2021-06-23T20:07:11Z</time>
      </trkpt>
      <trkpt lat="47.40357" lon="0.72558">
        <ele>50</ele>
        <time>2021-06-23T20:07:14Z</time>
      </trkpt>
      <trkpt lat="47.40361" lon="0.72586">
        <ele>51</ele>
        <time>2021-06-23T20:07:17Z</time>
      </trkpt>
      <trkpt lat="47.40365" lon="0.72599">
        <ele>51</ele>
        <time>2021-06-23T20:07:19Z</time>
      </trkpt>
      <trkpt lat="47.40397" lon="0.72713">
        <ele>52</ele>
        <time>2021-06-23T20:07:34Z</time>
      </trkpt>
      <trkpt lat="47.40415" lon="0.7278">
        <ele>53</ele>
        <time>2021-06-23T20:07:42Z</time>
      </trkpt>
      <trkpt lat="47.40471" lon="0.73112">
        <ele>50</ele>
        <time>2021-06-23T20:08:23Z</time>
      </trkpt>
      <trkpt lat="47.40488" lon="0.73239">
        <ele>51</ele>
        <time>2021-06-23T20:08:39Z</time>
      </trkpt>
      <trkpt lat="47.40505" lon="0.73334">
        <ele>54</ele>
        <time>2021-06-23T20:08:51Z</time>
      </trkpt>
      <trkpt lat="47.40545" lon="0.73515">
        <ele>56</ele>
        <time>2021-06-23T20:09:14Z</time>
      </trkpt>
      <trkpt lat="47.40645" lon="0.74007">
        <ele>61</ele>
        <time>2021-06-23T20:10:16Z</time>
      </trkpt>
      <trkpt lat="47.40649" lon="0.74033">
        <ele>61</ele>
        <time>2021-06-23T20:10:19Z</time>
      </trkpt>
      <trkpt lat="47.40686" lon="0.74485">
        <ele>60</ele>
        <time>2021-06-23T20:11:14Z</time>
      </trkpt>
      <trkpt lat="47.40696" lon="0.74561">
        <ele>62</ele>
        <time>2021-06-23T20:11:23Z</time>
      </trkpt>
      <trkpt lat="47.40771" lon="0.74987">
        <ele>59</ele>
        <time>2021-06-23T20:12:16Z</time>
      </trkpt>
      <trkpt lat="47.4079" lon="0.75119">
        <ele>59</ele>
        <time>2021-06-23T20:12:32Z</time>
      </trkpt>
      <trkpt lat="47.40858" lon="0.75747">
        <ele>52</ele>
        <time>2021-06-23T20:13:49Z</time>
      </trkpt>
      <trkpt lat="47.40885" lon="0.75976">
        <ele>52</ele>
        <time>2021-06-23T20:14:17Z</time>
      </trkpt>
      <trkpt lat="47.40925" lon="0.76339">
        <ele>57</ele>
        <time>2021-06-23T20:15:01Z</time>
      </trkpt>
      <trkpt lat="47.40917" lon="0.76341">
        <ele>55</ele>
        <time>2021-06-23T20:15:03Z</time>
      </trkpt>
      <trkpt lat="47.40965" lon="0.76758">
        <ele>54</ele>
        <time>2021-06-23T20:15:53Z</time>
      </trkpt>
      <trkpt lat="47.40964" lon="0.76767">
        <ele>54</ele>
        <time>2021-06-23T20:15:55Z</time>
      </trkpt>
      <trkpt lat="47.4097" lon="0.7683">
        <ele>54</ele>
        <time>2021-06-23T20:16:02Z</time>
      </trkpt>
      <trkpt lat="47.40973" lon="0.76837">
        <ele>54</ele>
        <time>2021-06-23T20:16:03Z</time>
      </trkpt>
      <trkpt lat="47.40993" lon="0.77009">
        <ele>55</ele>
        <time>2021-06-23T20:16:24Z</time>
      </trkpt>
      <trkpt lat="47.41" lon="0.77092">
        <ele>57</ele>
        <time>2021-06-23T20:16:34Z</time>
      </trkpt>
      <trkpt lat="47.41004" lon="0.77104">
        <ele>59</ele>
        <time>2021-06-23T20:16:36Z</time>
      </trkpt>
      <trkpt lat="47.41007" lon="0.77137">
        <ele>60</ele>
        <time>2021-06-23T20:16:40Z</time>
      </trkpt>
      <trkpt lat="47.41015" lon="0.77387">
        <ele>54</ele>
        <time>2021-06-23T20:17:10Z</time>
      </trkpt>
      <trkpt lat="47.41018" lon="0.77536">
        <ele>56</ele>
        <time>2021-06-23T20:17:28Z</time>
      </trkpt>
      <trkpt lat="47.41032" lon="0.77997">
        <ele>53</ele>
        <time>2021-06-23T20:18:24Z</time>
      </trkpt>
      <trkpt lat="47.41033" lon="0.78113">
        <ele>51</ele>
        <time>2021-06-23T20:18:38Z</time>
      </trkpt>
      <trkpt lat="47.41038" lon="0.78114">
        <ele>52</ele>
        <time>2021-06-23T20:18:38Z</time>
      </trkpt>
      <trkpt lat="47.41038" lon="0.78127">
        <ele>52</ele>
        <time>2021-06-23T20:18:40Z</time>
      </trkpt>
      <trkpt lat="47.41038" lon="0.78133">
        <ele>52</ele>
        <time>2021-06-23T20:18:41Z</time>
      </trkpt>
      <trkpt lat="47.41038" lon="0.78163">
        <ele>52</ele>
        <time>2021-06-23T20:18:44Z</time>
      </trkpt>
      <trkpt lat="47.41038" lon="0.7819">
        <ele>53</ele>
        <time>2021-06-23T20:18:48Z</time>
      </trkpt>
      <trkpt lat="47.41034" lon="0.78326">
        <ele>54</ele>
        <time>2021-06-23T20:19:04Z</time>
      </trkpt>
      <trkpt lat="47.41031" lon="0.78462">
        <ele>56</ele>
        <time>2021-06-23T20:19:20Z</time>
      </trkpt>
      <trkpt lat="47.41023" lon="0.78764">
        <ele>54</ele>
        <time>2021-06-23T20:19:57Z</time>
      </trkpt>
      <trkpt lat="47.41016" lon="0.79051">
        <ele>52</ele>
        <time>2021-06-23T20:20:31Z</time>
      </trkpt>
      <trkpt lat="47.41016" lon="0.79059">
        <ele>52</ele>
        <time>2021-06-23T20:20:32Z</time>
      </trkpt>
      <trkpt lat="47.41014" lon="0.79136">
        <ele>53</ele>
        <time>2021-06-23T20:20:42Z</time>
      </trkpt>
      <trkpt lat="47.41009" lon="0.7935">
        <ele>52</ele>
        <time>2021-06-23T20:21:07Z</time>
      </trkpt>
      <trkpt lat="47.41002" lon="0.79648">
        <ele>55</ele>
        <time>2021-06-23T20:21:43Z</time>
      </trkpt>
      <trkpt lat="47.40998" lon="0.7968">
        <ele>55</ele>
        <time>2021-06-23T20:21:47Z</time>
      </trkpt>
      <trkpt lat="47.40993" lon="0.79715">
        <ele>54</ele>
        <time>2021-06-23T20:21:52Z</time>
      </trkpt>
      <trkpt lat="47.40991" lon="0.79726">
        <ele>54</ele>
        <time>2021-06-23T20:21:53Z</time>
      </trkpt>
      <trkpt lat="47.40987" lon="0.7975">
        <ele>54</ele>
        <time>2021-06-23T20:21:56Z</time>
      </trkpt>
      <trkpt lat="47.4098" lon="0.79781">
        <ele>53</ele>
        <time>2021-06-23T20:22:00Z</time>
      </trkpt>
      <trkpt lat="47.40974" lon="0.79799">
        <ele>53</ele>
        <time>2021-06-23T20:22:02Z</time>
      </trkpt>
      <trkpt lat="47.40969" lon="0.7981">
        <ele>53</ele>
        <time>2021-06-23T20:22:04Z</time>
      </trkpt>
      <trkpt lat="47.40963" lon="0.79824">
        <ele>53</ele>
        <time>2021-06-23T20:22:06Z</time>
      </trkpt>
      <trkpt lat="47.40941" lon="0.79854">
        <ele>53</ele>
        <time>2021-06-23T20:22:11Z</time>
      </trkpt>
      <trkpt lat="47.40933" lon="0.79863">
        <ele>53</ele>
        <time>2021-06-23T20:22:13Z</time>
      </trkpt>
      <trkpt lat="47.40925" lon="0.79872">
        <ele>53</ele>
        <time>2021-06-23T20:22:15Z</time>
      </trkpt>
      <trkpt lat="47.40898" lon="0.79891">
        <ele>52</ele>
        <time>2021-06-23T20:22:20Z</time>
      </trkpt>
      <trkpt lat="47.40862" lon="0.79907">
        <ele>50</ele>
        <time>2021-06-23T20:22:27Z</time>
      </trkpt>
      <trkpt lat="47.40848" lon="0.7991">
        <ele>50</ele>
        <time>2021-06-23T20:22:29Z</time>
      </trkpt>
      <trkpt lat="47.40819" lon="0.79914">
        <ele>50</ele>
        <time>2021-06-23T20:22:34Z</time>
      </trkpt>
      <trkpt lat="47.40808" lon="0.79915">
        <ele>51</ele>
        <time>2021-06-23T20:22:36Z</time>
      </trkpt>
      <trkpt lat="47.40749" lon="0.79923">
        <ele>54</ele>
        <time>2021-06-23T20:22:47Z</time>
      </trkpt>
      <trkpt lat="47.40738" lon="0.79925">
        <ele>54</ele>
        <time>2021-06-23T20:22:49Z</time>
      </trkpt>
      <trkpt lat="47.40724" lon="0.79928">
        <ele>54</ele>
        <time>2021-06-23T20:22:51Z</time>
      </trkpt>
      <trkpt lat="47.4071" lon="0.7993">
        <ele>54</ele>
        <time>2021-06-23T20:22:54Z</time>
      </trkpt>
      <trkpt lat="47.40696" lon="0.79933">
        <ele>54</ele>
        <time>2021-06-23T20:22:56Z</time>
      </trkpt>
      <trkpt lat="47.40654" lon="0.79952">
        <ele>53</ele>
        <time>2021-06-23T20:23:04Z</time>
      </trkpt>
      <trkpt lat="47.4064" lon="0.79962">
        <ele>53</ele>
        <time>2021-06-23T20:23:07Z</time>
      </trkpt>
      <trkpt lat="47.40627" lon="0.79972">
        <ele>53</ele>
        <time>2021-06-23T20:23:10Z</time>
      </trkpt>
      <trkpt lat="47.40591" lon="0.80009">
        <ele>52</ele>
        <time>2021-06-23T20:23:17Z</time>
      </trkpt>
      <trkpt lat="47.40568" lon="0.80041">
        <ele>52</ele>
        <time>2021-06-23T20:23:23Z</time>
      </trkpt>
      <trkpt lat="47.40544" lon="0.80086">
        <ele>51</ele>
        <time>2021-06-23T20:23:30Z</time>
      </trkpt>
      <trkpt lat="47.40522" lon="0.80139">
        <ele>52</ele>
        <time>2021-06-23T20:23:37Z</time>
      </trkpt>
      <trkpt lat="47.40501" lon="0.80206">
        <ele>52</ele>
        <time>2021-06-23T20:23:46Z</time>
      </trkpt>
      <trkpt lat="47.40493" lon="0.80231">
        <ele>52</ele>
        <time>2021-06-23T20:23:50Z</time>
      </trkpt>
      <trkpt lat="47.40484" lon="0.80259">
        <ele>53</ele>
        <time>2021-06-23T20:23:53Z</time>
      </trkpt>
      <trkpt lat="47.4045" lon="0.80368">
        <ele>54</ele>
        <time>2021-06-23T20:24:08Z</time>
      </trkpt>
      <trkpt lat="47.4042" lon="0.80466">
        <ele>53</ele>
        <time>2021-06-23T20:24:21Z</time>
      </trkpt>
      <trkpt lat="47.40407" lon="0.80524">
        <ele>52</ele>
        <time>2021-06-23T20:24:28Z</time>
      </trkpt>
      <trkpt lat="47.40402" lon="0.80549">
        <ele>52</ele>
        <time>2021-06-23T20:24:31Z</time>
      </trkpt>
      <trkpt lat="47.40392" lon="0.80604">
        <ele>52</ele>
        <time>2021-06-23T20:24:38Z</time>
      </trkpt>
      <trkpt lat="47.40385" lon="0.80626">
        <ele>52</ele>
        <time>2021-06-23T20:24:41Z</time>
      </trkpt>
      <trkpt lat="47.40378" lon="0.80633">
        <ele>52</ele>
        <time>2021-06-23T20:24:43Z</time>
      </trkpt>
      <trkpt lat="47.40372" lon="0.80642">
        <ele>52</ele>
        <time>2021-06-23T20:24:44Z</time>
      </trkpt>
      <trkpt lat="47.40368" lon="0.80653">
        <ele>52</ele>
        <time>2021-06-23T20:24:46Z</time>
      </trkpt>
      <trkpt lat="47.40366" lon="0.80664">
        <ele>52</ele>
        <time>2021-06-23T20:24:47Z</time>
      </trkpt>
      <trkpt lat="47.40365" lon="0.80677">
        <ele>52</ele>
        <time>2021-06-23T20:24:49Z</time>
      </trkpt>
      <trkpt lat="47.40367" lon="0.80689">
        <ele>52</ele>
        <time>2021-06-23T20:24:50Z</time>
      </trkpt>
      <trkpt lat="47.40369" lon="0.80697">
        <ele>52</ele>
        <time>2021-06-23T20:24:51Z</time>
      </trkpt>
      <trkpt lat="47.40376" lon="0.80711">
        <ele>52</ele>
        <time>2021-06-23T20:24:53Z</time>
      </trkpt>
      <trkpt lat="47.40381" lon="0.80717">
        <ele>52</ele>
        <time>2021-06-23T20:24:54Z</time>
      </trkpt>
      <trkpt lat="47.40388" lon="0.80722">
        <ele>53</ele>
        <time>2021-06-23T20:24:56Z</time>
      </trkpt>
      <trkpt lat="47.40396" lon="0.80725">
        <ele>53</ele>
        <time>2021-06-23T20:24:57Z</time>
      </trkpt>
      <trkpt lat="47.404" lon="0.80736">
        <ele>53</ele>
        <time>2021-06-23T20:24:59Z</time>
      </trkpt>
      <trkpt lat="47.40405" lon="0.80756">
        <ele>53</ele>
        <time>2021-06-23T20:25:01Z</time>
      </trkpt>
      <trkpt lat="47.40413" lon="0.80773">
        <ele>53</ele>
        <time>2021-06-23T20:25:04Z</time>
      </trkpt>
      <trkpt lat="47.40424" lon="0.80798">
        <ele>52</ele>
        <time>2021-06-23T20:25:07Z</time>
      </trkpt>
      <trkpt lat="47.40446" lon="0.80841">
        <ele>51</ele>
        <time>2021-06-23T20:25:14Z</time>
      </trkpt>
      <trkpt lat="47.40454" lon="0.80861">
        <ele>51</ele>
        <time>2021-06-23T20:25:17Z</time>
      </trkpt>
      <trkpt lat="47.40462" lon="0.80883">
        <ele>51</ele>
        <time>2021-06-23T20:25:20Z</time>
      </trkpt>
      <trkpt lat="47.40468" lon="0.80905">
        <ele>50</ele>
        <time>2021-06-23T20:25:22Z</time>
      </trkpt>
      <trkpt lat="47.40471" lon="0.80928">
        <ele>50</ele>
        <time>2021-06-23T20:25:25Z</time>
      </trkpt>
      <trkpt lat="47.40473" lon="0.80954">
        <ele>51</ele>
        <time>2021-06-23T20:25:28Z</time>
      </trkpt>
      <trkpt lat="47.40476" lon="0.81055">
        <ele>53</ele>
        <time>2021-06-23T20:25:41Z</time>
      </trkpt>
      <trkpt lat="47.40478" lon="0.8114">
        <ele>54</ele>
        <time>2021-06-23T20:25:51Z</time>
      </trkpt>
      <trkpt lat="47.40478" lon="0.81171">
        <ele>54</ele>
        <time>2021-06-23T20:25:55Z</time>
      </trkpt>
      <trkpt lat="47.40485" lon="0.81311">
        <ele>52</ele>
        <time>2021-06-23T20:26:12Z</time>
      </trkpt>
      <trkpt lat="47.40486" lon="0.81343">
        <ele>51</ele>
        <time>2021-06-23T20:26:15Z</time>
      </trkpt>
      <trkpt lat="47.40484" lon="0.81373">
        <ele>51</ele>
        <time>2021-06-23T20:26:19Z</time>
      </trkpt>
      <trkpt lat="47.40444" lon="0.81653">
        <ele>49</ele>
        <time>2021-06-23T20:26:53Z</time>
      </trkpt>
      <trkpt lat="47.40435" lon="0.81737">
        <ele>50</ele>
        <time>2021-06-23T20:27:04Z</time>
      </trkpt>
      <trkpt lat="47.40433" lon="0.81774">
        <ele>50</ele>
        <time>2021-06-23T20:27:08Z</time>
      </trkpt>
      <trkpt lat="47.40435" lon="0.81843">
        <ele>49</ele>
        <time>2021-06-23T20:27:16Z</time>
      </trkpt>
      <trkpt lat="47.40443" lon="0.81914">
        <ele>49</ele>
        <time>2021-06-23T20:27:25Z</time>
      </trkpt>
      <trkpt lat="47.4045" lon="0.81949">
        <ele>49</ele>
        <time>2021-06-23T20:27:30Z</time>
      </trkpt>
      <trkpt lat="47.40458" lon="0.81985">
        <ele>49</ele>
        <time>2021-06-23T20:27:34Z</time>
      </trkpt>
      <trkpt lat="47.40469" lon="0.82025">
        <ele>49</ele>
        <time>2021-06-23T20:27:39Z</time>
      </trkpt>
      <trkpt lat="47.40496" lon="0.82102">
        <ele>49</ele>
        <time>2021-06-23T20:27:50Z</time>
      </trkpt>
      <trkpt lat="47.40517" lon="0.82149">
        <ele>48</ele>
        <time>2021-06-23T20:27:57Z</time>
      </trkpt>
      <trkpt lat="47.40528" lon="0.82168">
        <ele>48</ele>
        <time>2021-06-23T20:28:00Z</time>
      </trkpt>
      <trkpt lat="47.40553" lon="0.82198">
        <ele>48</ele>
        <time>2021-06-23T20:28:05Z</time>
      </trkpt>
      <trkpt lat="47.4057" lon="0.82212">
        <ele>49</ele>
        <time>2021-06-23T20:28:09Z</time>
      </trkpt>
      <trkpt lat="47.40601" lon="0.82228">
        <ele>49</ele>
        <time>2021-06-23T20:28:15Z</time>
      </trkpt>
      <trkpt lat="47.40697" lon="0.82254">
        <ele>50</ele>
        <time>2021-06-23T20:28:32Z</time>
      </trkpt>
      <trkpt lat="47.40711" lon="0.82259">
        <ele>50</ele>
        <time>2021-06-23T20:28:35Z</time>
      </trkpt>
      <trkpt lat="47.4075" lon="0.82276">
        <ele>50</ele>
        <time>2021-06-23T20:28:42Z</time>
      </trkpt>
      <trkpt lat="47.40769" lon="0.82285">
        <ele>51</ele>
        <time>2021-06-23T20:28:45Z</time>
      </trkpt>
      <trkpt lat="47.4082" lon="0.82311">
        <ele>51</ele>
        <time>2021-06-23T20:28:55Z</time>
      </trkpt>
      <trkpt lat="47.40829" lon="0.82315">
        <ele>51</ele>
        <time>2021-06-23T20:28:57Z</time>
      </trkpt>
      <trkpt lat="47.40883" lon="0.82337">
        <ele>51</ele>
        <time>2021-06-23T20:29:07Z</time>
      </trkpt>
      <trkpt lat="47.40909" lon="0.82346">
        <ele>51</ele>
        <time>2021-06-23T20:29:11Z</time>
      </trkpt>
      <trkpt lat="47.40919" lon="0.82349">
        <ele>51</ele>
        <time>2021-06-23T20:29:13Z</time>
      </trkpt>
      <trkpt lat="47.40929" lon="0.82351">
        <ele>51</ele>
        <time>2021-06-23T20:29:15Z</time>
      </trkpt>
      <trkpt lat="47.41034" lon="0.82356">
        <ele>51</ele>
        <time>2021-06-23T20:29:34Z</time>
      </trkpt>
      <trkpt lat="47.41094" lon="0.82362">
        <ele>51</ele>
        <time>2021-06-23T20:29:44Z</time>
      </trkpt>
      <trkpt lat="47.41118" lon="0.82356">
        <ele>51</ele>
        <time>2021-06-23T20:29:49Z</time>
      </trkpt>
      <trkpt lat="47.41141" lon="0.82342">
        <ele>51</ele>
        <time>2021-06-23T20:29:53Z</time>
      </trkpt>
      <trkpt lat="47.41149" lon="0.82336">
        <ele>51</ele>
        <time>2021-06-23T20:29:55Z</time>
      </trkpt>
      <trkpt lat="47.41155" lon="0.82332">
        <ele>51</ele>
        <time>2021-06-23T20:29:56Z</time>
      </trkpt>
      <trkpt lat="47.4117" lon="0.82327">
        <ele>51</ele>
        <time>2021-06-23T20:29:59Z</time>
      </trkpt>
      <trkpt lat="47.41174" lon="0.82327">
        <ele>51</ele>
        <time>2021-06-23T20:29:59Z</time>
      </trkpt>
      <trkpt lat="47.41178" lon="0.82329">
        <ele>51</ele>
        <time>2021-06-23T20:30:00Z</time>
      </trkpt>
      <trkpt lat="47.41182" lon="0.82332">
        <ele>51</ele>
        <time>2021-06-23T20:30:01Z</time>
      </trkpt>
      <trkpt lat="47.41188" lon="0.82345">
        <ele>51</ele>
        <time>2021-06-23T20:30:03Z</time>
      </trkpt>
      <trkpt lat="47.41195" lon="0.82365">
        <ele>51</ele>
        <time>2021-06-23T20:30:05Z</time>
      </trkpt>
      <trkpt lat="47.41198" lon="0.82379">
        <ele>51</ele>
        <time>2021-06-23T20:30:07Z</time>
      </trkpt>
      <trkpt lat="47.41201" lon="0.82408">
        <ele>51</ele>
        <time>2021-06-23T20:30:11Z</time>
      </trkpt>
      <trkpt lat="47.41209" lon="0.82541">
        <ele>51</ele>
        <time>2021-06-23T20:30:27Z</time>
      </trkpt>
      <trkpt lat="47.4121" lon="0.82638">
        <ele>51</ele>
        <time>2021-06-23T20:30:38Z</time>
      </trkpt>
      <trkpt lat="47.41209" lon="0.82695">
        <ele>51</ele>
        <time>2021-06-23T20:30:45Z</time>
      </trkpt>
      <trkpt lat="47.41208" lon="0.82732">
        <ele>52</ele>
        <time>2021-06-23T20:30:50Z</time>
      </trkpt>
      <trkpt lat="47.4119" lon="0.8303">
        <ele>51</ele>
        <time>2021-06-23T20:31:26Z</time>
      </trkpt>
      <trkpt lat="47.41189" lon="0.83046">
        <ele>51</ele>
        <time>2021-06-23T20:31:28Z</time>
      </trkpt>
      <trkpt lat="47.41181" lon="0.83104">
        <ele>52</ele>
        <time>2021-06-23T20:31:35Z</time>
      </trkpt>
      <trkpt lat="47.41175" lon="0.83156">
        <ele>52</ele>
        <time>2021-06-23T20:31:41Z</time>
      </trkpt>
      <trkpt lat="47.41166" lon="0.83204">
        <ele>52</ele>
        <time>2021-06-23T20:31:47Z</time>
      </trkpt>
      <trkpt lat="47.41161" lon="0.83226">
        <ele>51</ele>
        <time>2021-06-23T20:31:50Z</time>
      </trkpt>
      <trkpt lat="47.41157" lon="0.83242">
        <ele>51</ele>
        <time>2021-06-23T20:31:52Z</time>
      </trkpt>
      <trkpt lat="47.41149" lon="0.83299">
        <ele>50</ele>
        <time>2021-06-23T20:31:59Z</time>
      </trkpt>
      <trkpt lat="47.41139" lon="0.83408">
        <ele>51</ele>
        <time>2021-06-23T20:32:12Z</time>
      </trkpt>
      <trkpt lat="47.41137" lon="0.83441">
        <ele>51</ele>
        <time>2021-06-23T20:32:16Z</time>
      </trkpt>
      <trkpt lat="47.41138" lon="0.8349">
        <ele>51</ele>
        <time>2021-06-23T20:32:22Z</time>
      </trkpt>
      <trkpt lat="47.4114" lon="0.83511">
        <ele>51</ele>
        <time>2021-06-23T20:32:25Z</time>
      </trkpt>
      <trkpt lat="47.41147" lon="0.83542">
        <ele>52</ele>
        <time>2021-06-23T20:32:29Z</time>
      </trkpt>
      <trkpt lat="47.41161" lon="0.83588">
        <ele>52</ele>
        <time>2021-06-23T20:32:35Z</time>
      </trkpt>
      <trkpt lat="47.41164" lon="0.83596">
        <ele>52</ele>
        <time>2021-06-23T20:32:36Z</time>
      </trkpt>
      <trkpt lat="47.41181" lon="0.83653">
        <ele>51</ele>
        <time>2021-06-23T20:32:43Z</time>
      </trkpt>
      <trkpt lat="47.41194" lon="0.83703">
        <ele>51</ele>
        <time>2021-06-23T20:32:50Z</time>
      </trkpt>
      <trkpt lat="47.41226" lon="0.83886">
        <ele>51</ele>
        <time>2021-06-23T20:33:13Z</time>
      </trkpt>
      <trkpt lat="47.41232" lon="0.83909">
        <ele>51</ele>
        <time>2021-06-23T20:33:16Z</time>
      </trkpt>
      <trkpt lat="47.41268" lon="0.84024">
        <ele>54</ele>
        <time>2021-06-23T20:33:31Z</time>
      </trkpt>
      <trkpt lat="47.41273" lon="0.84039">
        <ele>55</ele>
        <time>2021-06-23T20:33:33Z</time>
      </trkpt>
      <trkpt lat="47.4128" lon="0.8406">
        <ele>55</ele>
        <time>2021-06-23T20:33:36Z</time>
      </trkpt>
      <trkpt lat="47.41318" lon="0.84172">
        <ele>57</ele>
        <time>2021-06-23T20:33:51Z</time>
      </trkpt>
      <trkpt lat="47.41337" lon="0.8424">
        <ele>56</ele>
        <time>2021-06-23T20:34:00Z</time>
      </trkpt>
      <trkpt lat="47.41341" lon="0.84254">
        <ele>56</ele>
        <time>2021-06-23T20:34:01Z</time>
      </trkpt>
      <trkpt lat="47.41347" lon="0.84252">
        <ele>57</ele>
        <time>2021-06-23T20:34:03Z</time>
      </trkpt>
      <trkpt lat="47.41354" lon="0.84252">
        <ele>57</ele>
        <time>2021-06-23T20:34:04Z</time>
      </trkpt>
      <trkpt lat="47.41376" lon="0.8427">
        <ele>59</ele>
        <time>2021-06-23T20:34:08Z</time>
      </trkpt>
      <trkpt lat="47.41404" lon="0.84285">
        <ele>60</ele>
        <time>2021-06-23T20:34:14Z</time>
      </trkpt>
      <trkpt lat="47.41417" lon="0.8429">
        <ele>60</ele>
        <time>2021-06-23T20:34:16Z</time>
      </trkpt>
      <trkpt lat="47.41459" lon="0.843">
        <ele>60</ele>
        <time>2021-06-23T20:34:24Z</time>
      </trkpt>
      <trkpt lat="47.41488" lon="0.84303">
        <ele>60</ele>
        <time>2021-06-23T20:34:29Z</time>
      </trkpt>
      <trkpt lat="47.4151" lon="0.84301">
        <ele>60</ele>
        <time>2021-06-23T20:34:33Z</time>
      </trkpt>
      <trkpt lat="47.41608" lon="0.84256">
        <ele>59</ele>
        <time>2021-06-23T20:34:51Z</time>
      </trkpt>
      <trkpt lat="47.41698" lon="0.84191">
        <ele>62</ele>
        <time>2021-06-23T20:35:09Z</time>
      </trkpt>
      <trkpt lat="47.41709" lon="0.84226">
        <ele>57</ele>
        <time>2021-06-23T20:35:13Z</time>
      </trkpt>
      <trkpt lat="47.41726" lon="0.84219">
        <ele>57</ele>
        <time>2021-06-23T20:35:16Z</time>
      </trkpt>
      <trkpt lat="47.41756" lon="0.8421">
        <ele>56</ele>
        <time>2021-06-23T20:35:22Z</time>
      </trkpt>
      <trkpt lat="47.41779" lon="0.84204">
        <ele>56</ele>
        <time>2021-06-23T20:35:26Z</time>
      </trkpt>
      <trkpt lat="47.41817" lon="0.84196">
        <ele>57</ele>
        <time>2021-06-23T20:35:33Z</time>
      </trkpt>
      <trkpt lat="47.41863" lon="0.84195">
        <ele>56</ele>
        <time>2021-06-23T20:35:41Z</time>
      </trkpt>
      <trkpt lat="47.41951" lon="0.842">
        <ele>55</ele>
        <time>2021-06-23T20:35:57Z</time>
      </trkpt>
      <trkpt lat="47.42018" lon="0.84213">
        <ele>55</ele>
        <time>2021-06-23T20:36:09Z</time>
      </trkpt>
      <trkpt lat="47.42038" lon="0.84218">
        <ele>55</ele>
        <time>2021-06-23T20:36:12Z</time>
      </trkpt>
      <trkpt lat="47.42214" lon="0.84292">
        <ele>58</ele>
        <time>2021-06-23T20:36:45Z</time>
      </trkpt>
      <trkpt lat="47.42297" lon="0.84336">
        <ele>57</ele>
        <time>2021-06-23T20:37:01Z</time>
      </trkpt>
      <trkpt lat="47.42324" lon="0.84352">
        <ele>55</ele>
        <time>2021-06-23T20:37:06Z</time>
      </trkpt>
      <trkpt lat="47.42346" lon="0.84368">
        <ele>54</ele>
        <time>2021-06-23T20:37:10Z</time>
      </trkpt>
      <trkpt lat="47.42406" lon="0.8442">
        <ele>54</ele>
        <time>2021-06-23T20:37:23Z</time>
      </trkpt>
      <trkpt lat="47.4265" lon="0.84674">
        <ele>54</ele>
        <time>2021-06-23T20:38:16Z</time>
      </trkpt>
      <trkpt lat="47.4266" lon="0.84684">
        <ele>54</ele>
        <time>2021-06-23T20:38:18Z</time>
      </trkpt>
      <trkpt lat="47.43221" lon="0.85262">
        <ele>53</ele>
        <time>2021-06-23T20:40:19Z</time>
      </trkpt>
      <trkpt lat="47.43276" lon="0.85301">
        <ele>55</ele>
        <time>2021-06-23T20:40:30Z</time>
      </trkpt>
      <trkpt lat="47.4331" lon="0.85319">
        <ele>56</ele>
        <time>2021-06-23T20:40:37Z</time>
      </trkpt>
      <trkpt lat="47.43437" lon="0.85367">
        <ele>56</ele>
        <time>2021-06-23T20:41:00Z</time>
      </trkpt>
      <trkpt lat="47.43445" lon="0.85369">
        <ele>56</ele>
        <time>2021-06-23T20:41:02Z</time>
      </trkpt>
      <trkpt lat="47.43458" lon="0.85374">
        <ele>55</ele>
        <time>2021-06-23T20:41:04Z</time>
      </trkpt>
      <trkpt lat="47.43468" lon="0.85378">
        <ele>55</ele>
        <time>2021-06-23T20:41:06Z</time>
      </trkpt>
      <trkpt lat="47.43576" lon="0.85419">
        <ele>55</ele>
        <time>2021-06-23T20:41:26Z</time>
      </trkpt>
      <trkpt lat="47.43605" lon="0.85432">
        <ele>55</ele>
        <time>2021-06-23T20:41:31Z</time>
      </trkpt>
      <trkpt lat="47.43633" lon="0.85449">
        <ele>55</ele>
        <time>2021-06-23T20:41:36Z</time>
      </trkpt>
      <trkpt lat="47.43653" lon="0.85465">
        <ele>55</ele>
        <time>2021-06-23T20:41:40Z</time>
      </trkpt>
      <trkpt lat="47.43685" lon="0.85494">
        <ele>56</ele>
        <time>2021-06-23T20:41:47Z</time>
      </trkpt>
      <trkpt lat="47.43787" lon="0.856">
        <ele>56</ele>
        <time>2021-06-23T20:42:09Z</time>
      </trkpt>
      <trkpt lat="47.43812" lon="0.85628">
        <ele>56</ele>
        <time>2021-06-23T20:42:15Z</time>
      </trkpt>
      <trkpt lat="47.43894" lon="0.85728">
        <ele>56</ele>
        <time>2021-06-23T20:42:34Z</time>
      </trkpt>
      <trkpt lat="47.43948" lon="0.85796">
        <ele>57</ele>
        <time>2021-06-23T20:42:46Z</time>
      </trkpt>
      <trkpt lat="47.44048" lon="0.8592">
        <ele>58</ele>
        <time>2021-06-23T20:43:10Z</time>
      </trkpt>
      <trkpt lat="47.44092" lon="0.85974">
        <ele>59</ele>
        <time>2021-06-23T20:43:20Z</time>
      </trkpt>
      <trkpt lat="47.44284" lon="0.86212">
        <ele>59</ele>
        <time>2021-06-23T20:44:04Z</time>
      </trkpt>
      <trkpt lat="47.44299" lon="0.86234">
        <ele>59</ele>
        <time>2021-06-23T20:44:08Z</time>
      </trkpt>
      <trkpt lat="47.44311" lon="0.8625">
        <ele>59</ele>
        <time>2021-06-23T20:44:11Z</time>
      </trkpt>
      <trkpt lat="47.44315" lon="0.86258">
        <ele>59</ele>
        <time>2021-06-23T20:44:12Z</time>
      </trkpt>
      <trkpt lat="47.44383" lon="0.86389">
        <ele>59</ele>
        <time>2021-06-23T20:44:32Z</time>
      </trkpt>
      <trkpt lat="47.44399" lon="0.8641">
        <ele>59</ele>
        <time>2021-06-23T20:44:36Z</time>
      </trkpt>
      <trkpt lat="47.44409" lon="0.8642">
        <ele>59</ele>
        <time>2021-06-23T20:44:38Z</time>
      </trkpt>
      <trkpt lat="47.44423" lon="0.86431">
        <ele>59</ele>
        <time>2021-06-23T20:44:41Z</time>
      </trkpt>
      <trkpt lat="47.44678" lon="0.86539">
        <ele>59</ele>
        <time>2021-06-23T20:45:28Z</time>
      </trkpt>
      <trkpt lat="47.44713" lon="0.86556">
        <ele>60</ele>
        <time>2021-06-23T20:45:35Z</time>
      </trkpt>
      <trkpt lat="47.44726" lon="0.86565">
        <ele>60</ele>
        <time>2021-06-23T20:45:37Z</time>
      </trkpt>
      <trkpt lat="47.44747" lon="0.86586">
        <ele>61</ele>
        <time>2021-06-23T20:45:42Z</time>
      </trkpt>
      <trkpt lat="47.44771" lon="0.86614">
        <ele>61</ele>
        <time>2021-06-23T20:45:47Z</time>
      </trkpt>
      <trkpt lat="47.44783" lon="0.8663">
        <ele>61</ele>
        <time>2021-06-23T20:45:50Z</time>
      </trkpt>
      <trkpt lat="47.44793" lon="0.86648">
        <ele>61</ele>
        <time>2021-06-23T20:45:53Z</time>
      </trkpt>
      <trkpt lat="47.44802" lon="0.86668">
        <ele>62</ele>
        <time>2021-06-23T20:45:56Z</time>
      </trkpt>
      <trkpt lat="47.44812" lon="0.86696">
        <ele>62</ele>
        <time>2021-06-23T20:45:59Z</time>
      </trkpt>
      <trkpt lat="47.44825" lon="0.86732">
        <ele>61</ele>
        <time>2021-06-23T20:46:04Z</time>
      </trkpt>
      <trkpt lat="47.44844" lon="0.86778">
        <ele>61</ele>
        <time>2021-06-23T20:46:11Z</time>
      </trkpt>
      <trkpt lat="47.44863" lon="0.86815">
        <ele>61</ele>
        <time>2021-06-23T20:46:16Z</time>
      </trkpt>
      <trkpt lat="47.44883" lon="0.86852">
        <ele>61</ele>
        <time>2021-06-23T20:46:22Z</time>
      </trkpt>
      <trkpt lat="47.44915" lon="0.86907">
        <ele>62</ele>
        <time>2021-06-23T20:46:31Z</time>
      </trkpt>
      <trkpt lat="47.44927" lon="0.86929">
        <ele>62</ele>
        <time>2021-06-23T20:46:34Z</time>
      </trkpt>
      <trkpt lat="47.44948" lon="0.86975">
        <ele>62</ele>
        <time>2021-06-23T20:46:41Z</time>
      </trkpt>
      <trkpt lat="47.4496" lon="0.87008">
        <ele>62</ele>
        <time>2021-06-23T20:46:45Z</time>
      </trkpt>
      <trkpt lat="47.44971" lon="0.87043">
        <ele>62</ele>
        <time>2021-06-23T20:46:50Z</time>
      </trkpt>
      <trkpt lat="47.4498" lon="0.87071">
        <ele>63</ele>
        <time>2021-06-23T20:46:54Z</time>
      </trkpt>
      <trkpt lat="47.44986" lon="0.87085">
        <ele>63</ele>
        <time>2021-06-23T20:46:56Z</time>
      </trkpt>
      <trkpt lat="47.45" lon="0.8712">
        <ele>63</ele>
        <time>2021-06-23T20:47:01Z</time>
      </trkpt>
      <trkpt lat="47.45032" lon="0.87176">
        <ele>64</ele>
        <time>2021-06-23T20:47:10Z</time>
      </trkpt>
      <trkpt lat="47.45055" lon="0.87207">
        <ele>65</ele>
        <time>2021-06-23T20:47:15Z</time>
      </trkpt>
      <trkpt lat="47.45114" lon="0.87278">
        <ele>67</ele>
        <time>2021-06-23T20:47:29Z</time>
      </trkpt>
      <trkpt lat="47.45123" lon="0.87288">
        <ele>68</ele>
        <time>2021-06-23T20:47:31Z</time>
      </trkpt>
      <trkpt lat="47.45138" lon="0.87303">
        <ele>68</ele>
        <time>2021-06-23T20:47:34Z</time>
      </trkpt>
      <trkpt lat="47.45148" lon="0.87313">
        <ele>68</ele>
        <time>2021-06-23T20:47:36Z</time>
      </trkpt>
      <trkpt lat="47.45157" lon="0.87322">
        <ele>67</ele>
        <time>2021-06-23T20:47:38Z</time>
      </trkpt>
      <trkpt lat="47.45188" lon="0.87346">
        <ele>68</ele>
        <time>2021-06-23T20:47:44Z</time>
      </trkpt>
      <trkpt lat="47.45192" lon="0.87348">
        <ele>68</ele>
        <time>2021-06-23T20:47:45Z</time>
      </trkpt>
      <trkpt lat="47.45191" lon="0.87353">
        <ele>68</ele>
        <time>2021-06-23T20:47:46Z</time>
      </trkpt>
      <trkpt lat="47.4518" lon="0.87373">
        <ele>64</ele>
        <time>2021-06-23T20:47:49Z</time>
      </trkpt>
      <trkpt lat="47.45168" lon="0.87399">
        <ele>61</ele>
        <time>2021-06-23T20:47:52Z</time>
      </trkpt>
      <trkpt lat="47.4516" lon="0.87416">
        <ele>59</ele>
        <time>2021-06-23T20:47:55Z</time>
      </trkpt>
      <trkpt lat="47.45128" lon="0.87481">
        <ele>58</ele>
        <time>2021-06-23T20:48:05Z</time>
      </trkpt>
      <trkpt lat="47.45109" lon="0.87521">
        <ele>58</ele>
        <time>2021-06-23T20:48:10Z</time>
      </trkpt>
      <trkpt lat="47.44987" lon="0.87775">
        <ele>57</ele>
        <time>2021-06-23T20:48:48Z</time>
      </trkpt>
      <trkpt lat="47.44937" lon="0.87872">
        <ele>59</ele>
        <time>2021-06-23T20:49:03Z</time>
      </trkpt>
      <trkpt lat="47.44903" lon="0.87926">
        <ele>60</ele>
        <time>2021-06-23T20:49:12Z</time>
      </trkpt>
      <trkpt lat="47.44866" lon="0.87975">
        <ele>60</ele>
        <time>2021-06-23T20:49:20Z</time>
      </trkpt>
      <trkpt lat="47.44802" lon="0.88042">
        <ele>61</ele>
        <time>2021-06-23T20:49:34Z</time>
      </trkpt>
      <trkpt lat="47.44774" lon="0.88068">
        <ele>61</ele>
        <time>2021-06-23T20:49:40Z</time>
      </trkpt>
      <trkpt lat="47.44753" lon="0.88089">
        <ele>61</ele>
        <time>2021-06-23T20:49:45Z</time>
      </trkpt>
      <trkpt lat="47.44733" lon="0.88108">
        <ele>61</ele>
        <time>2021-06-23T20:49:49Z</time>
      </trkpt>
      <trkpt lat="47.44697" lon="0.88138">
        <ele>62</ele>
        <time>2021-06-23T20:49:56Z</time>
      </trkpt>
      <trkpt lat="47.44659" lon="0.88162">
        <ele>62</ele>
        <time>2021-06-23T20:50:04Z</time>
      </trkpt>
      <trkpt lat="47.44631" lon="0.88177">
        <ele>63</ele>
        <time>2021-06-23T20:50:09Z</time>
      </trkpt>
      <trkpt lat="47.44628" lon="0.88178">
        <ele>63</ele>
        <time>2021-06-23T20:50:09Z</time>
      </trkpt>
      <trkpt lat="47.44581" lon="0.88202">
        <ele>63</ele>
        <time>2021-06-23T20:50:18Z</time>
      </trkpt>
      <trkpt lat="47.44526" lon="0.88238">
        <ele>64</ele>
        <time>2021-06-23T20:50:29Z</time>
      </trkpt>
      <trkpt lat="47.44452" lon="0.88294">
        <ele>65</ele>
        <time>2021-06-23T20:50:44Z</time>
      </trkpt>
      <trkpt lat="47.44371" lon="0.88351">
        <ele>70</ele>
        <time>2021-06-23T20:51:00Z</time>
      </trkpt>
      <trkpt lat="47.44348" lon="0.88365">
        <ele>72</ele>
        <time>2021-06-23T20:51:04Z</time>
      </trkpt>
      <trkpt lat="47.44324" lon="0.88374">
        <ele>77</ele>
        <time>2021-06-23T20:51:09Z</time>
      </trkpt>
      <trkpt lat="47.44312" lon="0.88371">
        <ele>79</ele>
        <time>2021-06-23T20:51:11Z</time>
      </trkpt>
      <trkpt lat="47.44296" lon="0.88361">
        <ele>82</ele>
        <time>2021-06-23T20:51:14Z</time>
      </trkpt>
      <trkpt lat="47.44278" lon="0.88338">
        <ele>84</ele>
        <time>2021-06-23T20:51:18Z</time>
      </trkpt>
      <trkpt lat="47.44257" lon="0.88303">
        <ele>86</ele>
        <time>2021-06-23T20:51:24Z</time>
      </trkpt>
      <trkpt lat="47.44242" lon="0.88287">
        <ele>88</ele>
        <time>2021-06-23T20:51:27Z</time>
      </trkpt>
      <trkpt lat="47.44229" lon="0.88279">
        <ele>90</ele>
        <time>2021-06-23T20:51:30Z</time>
      </trkpt>
      <trkpt lat="47.44212" lon="0.8827">
        <ele>92</ele>
        <time>2021-06-23T20:51:33Z</time>
      </trkpt>
      <trkpt lat="47.44198" lon="0.88267">
        <ele>94</ele>
        <time>2021-06-23T20:51:35Z</time>
      </trkpt>
      <trkpt lat="47.44182" lon="0.88268">
        <ele>97</ele>
        <time>2021-06-23T20:51:38Z</time>
      </trkpt>
      <trkpt lat="47.4417" lon="0.88272">
        <ele>99</ele>
        <time>2021-06-23T20:51:40Z</time>
      </trkpt>
      <trkpt lat="47.44159" lon="0.88277">
        <ele>100</ele>
        <time>2021-06-23T20:51:42Z</time>
      </trkpt>
      <trkpt lat="47.44153" lon="0.88281">
        <ele>100</ele>
        <time>2021-06-23T20:51:44Z</time>
      </trkpt>
      <trkpt lat="47.44114" lon="0.88308">
        <ele>101</ele>
        <time>2021-06-23T20:51:51Z</time>
      </trkpt>
      <trkpt lat="47.44079" lon="0.88323">
        <ele>101</ele>
        <time>2021-06-23T20:51:58Z</time>
      </trkpt>
      <trkpt lat="47.44014" lon="0.88346">
        <ele>105</ele>
        <time>2021-06-23T20:52:10Z</time>
      </trkpt>
      <trkpt lat="47.43986" lon="0.88356">
        <ele>105</ele>
        <time>2021-06-23T20:52:15Z</time>
      </trkpt>
      <trkpt lat="47.43973" lon="0.88361">
        <ele>106</ele>
        <time>2021-06-23T20:52:17Z</time>
      </trkpt>
      <trkpt lat="47.43961" lon="0.88367">
        <ele>106</ele>
        <time>2021-06-23T20:52:19Z</time>
      </trkpt>
      <trkpt lat="47.43958" lon="0.88369">
        <ele>106</ele>
        <time>2021-06-23T20:52:20Z</time>
      </trkpt>
      <trkpt lat="47.43929" lon="0.88391">
        <ele>106</ele>
        <time>2021-06-23T20:52:26Z</time>
      </trkpt>
      <trkpt lat="47.43893" lon="0.88419">
        <ele>106</ele>
        <time>2021-06-23T20:52:33Z</time>
      </trkpt>
      <trkpt lat="47.43878" lon="0.88432">
        <ele>106</ele>
        <time>2021-06-23T20:52:36Z</time>
      </trkpt>
      <trkpt lat="47.43836" lon="0.88488">
        <ele>106</ele>
        <time>2021-06-23T20:52:46Z</time>
      </trkpt>
      <trkpt lat="47.43755" lon="0.88572">
        <ele>104</ele>
        <time>2021-06-23T20:53:04Z</time>
      </trkpt>
      <trkpt lat="47.43727" lon="0.886">
        <ele>104</ele>
        <time>2021-06-23T20:53:10Z</time>
      </trkpt>
      <trkpt lat="47.43722" lon="0.88605">
        <ele>105</ele>
        <time>2021-06-23T20:53:11Z</time>
      </trkpt>
      <trkpt lat="47.43695" lon="0.88628">
        <ele>105</ele>
        <time>2021-06-23T20:53:16Z</time>
      </trkpt>
      <trkpt lat="47.43669" lon="0.88641">
        <ele>106</ele>
        <time>2021-06-23T20:53:21Z</time>
      </trkpt>
      <trkpt lat="47.43582" lon="0.8866">
        <ele>105</ele>
        <time>2021-06-23T20:53:37Z</time>
      </trkpt>
      <trkpt lat="47.43511" lon="0.88673">
        <ele>106</ele>
        <time>2021-06-23T20:53:50Z</time>
      </trkpt>
      <trkpt lat="47.43507" lon="0.88673">
        <ele>106</ele>
        <time>2021-06-23T20:53:50Z</time>
      </trkpt>
      <trkpt lat="47.43494" lon="0.88677">
        <ele>106</ele>
        <time>2021-06-23T20:53:53Z</time>
      </trkpt>
      <trkpt lat="47.43304" lon="0.88715">
        <ele>105</ele>
        <time>2021-06-23T20:54:27Z</time>
      </trkpt>
      <trkpt lat="47.43288" lon="0.88717">
        <ele>104</ele>
        <time>2021-06-23T20:54:30Z</time>
      </trkpt>
      <trkpt lat="47.43272" lon="0.88716">
        <ele>104</ele>
        <time>2021-06-23T20:54:33Z</time>
      </trkpt>
      <trkpt lat="47.43251" lon="0.88712">
        <ele>104</ele>
        <time>2021-06-23T20:54:36Z</time>
      </trkpt>
      <trkpt lat="47.43223" lon="0.88695">
        <ele>103</ele>
        <time>2021-06-23T20:54:42Z</time>
      </trkpt>
      <trkpt lat="47.43198" lon="0.8867">
        <ele>102</ele>
        <time>2021-06-23T20:54:47Z</time>
      </trkpt>
      <trkpt lat="47.43143" lon="0.88603">
        <ele>104</ele>
        <time>2021-06-23T20:55:00Z</time>
      </trkpt>
      <trkpt lat="47.43137" lon="0.88599">
        <ele>104</ele>
        <time>2021-06-23T20:55:01Z</time>
      </trkpt>
      <trkpt lat="47.4313" lon="0.88597">
        <ele>104</ele>
        <time>2021-06-23T20:55:02Z</time>
      </trkpt>
      <trkpt lat="47.43122" lon="0.88598">
        <ele>104</ele>
        <time>2021-06-23T20:55:04Z</time>
      </trkpt>
      <trkpt lat="47.43118" lon="0.886">
        <ele>104</ele>
        <time>2021-06-23T20:55:04Z</time>
      </trkpt>
      <trkpt lat="47.43113" lon="0.88606">
        <ele>105</ele>
        <time>2021-06-23T20:55:05Z</time>
      </trkpt>
      <trkpt lat="47.431" lon="0.88651">
        <ele>105</ele>
        <time>2021-06-23T20:55:11Z</time>
      </trkpt>
      <trkpt lat="47.4309" lon="0.88686">
        <ele>105</ele>
        <time>2021-06-23T20:55:16Z</time>
      </trkpt>
      <trkpt lat="47.43081" lon="0.88709">
        <ele>105</ele>
        <time>2021-06-23T20:55:19Z</time>
      </trkpt>
      <trkpt lat="47.43067" lon="0.88731">
        <ele>105</ele>
        <time>2021-06-23T20:55:23Z</time>
      </trkpt>
      <trkpt lat="47.43038" lon="0.88774">
        <ele>105</ele>
        <time>2021-06-23T20:55:30Z</time>
      </trkpt>
      <trkpt lat="47.4299" lon="0.88847">
        <ele>104</ele>
        <time>2021-06-23T20:55:42Z</time>
      </trkpt>
      <trkpt lat="47.42937" lon="0.88928">
        <ele>101</ele>
        <time>2021-06-23T20:55:56Z</time>
      </trkpt>
      <trkpt lat="47.42908" lon="0.88823">
        <ele>103</ele>
        <time>2021-06-23T20:56:10Z</time>
      </trkpt>
      <trkpt lat="47.42896" lon="0.88794">
        <ele>103</ele>
        <time>2021-06-23T20:56:14Z</time>
      </trkpt>
      <trkpt lat="47.42885" lon="0.88775">
        <ele>103</ele>
        <time>2021-06-23T20:56:17Z</time>
      </trkpt>
      <trkpt lat="47.42873" lon="0.88758">
        <ele>103</ele>
        <time>2021-06-23T20:56:20Z</time>
      </trkpt>
      <trkpt lat="47.42839" lon="0.88723">
        <ele>103</ele>
        <time>2021-06-23T20:56:27Z</time>
      </trkpt>
      <trkpt lat="47.42806" lon="0.88699">
        <ele>103</ele>
        <time>2021-06-23T20:56:34Z</time>
      </trkpt>
      <trkpt lat="47.4278" lon="0.88688">
        <ele>102</ele>
        <time>2021-06-23T20:56:38Z</time>
      </trkpt>
      <trkpt lat="47.42763" lon="0.88684">
        <ele>101</ele>
        <time>2021-06-23T20:56:41Z</time>
      </trkpt>
      <trkpt lat="47.42745" lon="0.88682">
        <ele>101</ele>
        <time>2021-06-23T20:56:45Z</time>
      </trkpt>
      <trkpt lat="47.42726" lon="0.88686">
        <ele>100</ele>
        <time>2021-06-23T20:56:48Z</time>
      </trkpt>
      <trkpt lat="47.42714" lon="0.88693">
        <ele>100</ele>
        <time>2021-06-23T20:56:50Z</time>
      </trkpt>
      <trkpt lat="47.4248" lon="0.88864">
        <ele>86</ele>
        <time>2021-06-23T20:57:37Z</time>
      </trkpt>
      <trkpt lat="47.42447" lon="0.88889">
        <ele>83</ele>
        <time>2021-06-23T20:57:43Z</time>
      </trkpt>
      <trkpt lat="47.42437" lon="0.88902">
        <ele>82</ele>
        <time>2021-06-23T20:57:46Z</time>
      </trkpt>
      <trkpt lat="47.42395" lon="0.88992">
        <ele>79</ele>
        <time>2021-06-23T20:57:59Z</time>
      </trkpt>
      <trkpt lat="47.42359" lon="0.89017">
        <ele>80</ele>
        <time>2021-06-23T20:58:06Z</time>
      </trkpt>
      <trkpt lat="47.42306" lon="0.89054">
        <ele>78</ele>
        <time>2021-06-23T20:58:16Z</time>
      </trkpt>
      <trkpt lat="47.42282" lon="0.8907">
        <ele>77</ele>
        <time>2021-06-23T20:58:21Z</time>
      </trkpt>
      <trkpt lat="47.42275" lon="0.89074">
        <ele>77</ele>
        <time>2021-06-23T20:58:22Z</time>
      </trkpt>
      <trkpt lat="47.42246" lon="0.8909">
        <ele>75</ele>
        <time>2021-06-23T20:58:28Z</time>
      </trkpt>
      <trkpt lat="47.42212" lon="0.89108">
        <ele>68</ele>
        <time>2021-06-23T20:58:34Z</time>
      </trkpt>
      <trkpt lat="47.422" lon="0.89115">
        <ele>66</ele>
        <time>2021-06-23T20:58:37Z</time>
      </trkpt>
      <trkpt lat="47.4218" lon="0.89129">
        <ele>62</ele>
        <time>2021-06-23T20:58:41Z</time>
      </trkpt>
      <trkpt lat="47.42174" lon="0.89137">
        <ele>60</ele>
        <time>2021-06-23T20:58:42Z</time>
      </trkpt>
      <trkpt lat="47.42168" lon="0.89145">
        <ele>59</ele>
        <time>2021-06-23T20:58:43Z</time>
      </trkpt>
      <trkpt lat="47.42163" lon="0.89152">
        <ele>58</ele>
        <time>2021-06-23T20:58:45Z</time>
      </trkpt>
      <trkpt lat="47.42159" lon="0.89156">
        <ele>58</ele>
        <time>2021-06-23T20:58:46Z</time>
      </trkpt>
      <trkpt lat="47.42134" lon="0.89172">
        <ele>57</ele>
        <time>2021-06-23T20:58:50Z</time>
      </trkpt>
      <trkpt lat="47.42127" lon="0.89177">
        <ele>57</ele>
        <time>2021-06-23T20:58:52Z</time>
      </trkpt>
      <trkpt lat="47.4213" lon="0.89186">
        <ele>57</ele>
        <time>2021-06-23T20:58:53Z</time>
      </trkpt>
      <trkpt lat="47.42148" lon="0.89251">
        <ele>57</ele>
        <time>2021-06-23T20:59:01Z</time>
      </trkpt>
      <trkpt lat="47.4216" lon="0.89296">
        <ele>57</ele>
        <time>2021-06-23T20:59:07Z</time>
      </trkpt>
      <trkpt lat="47.42161" lon="0.89303">
        <ele>57</ele>
        <time>2021-06-23T20:59:08Z</time>
      </trkpt>
      <trkpt lat="47.42163" lon="0.89317">
        <ele>57</ele>
        <time>2021-06-23T20:59:10Z</time>
      </trkpt>
      <trkpt lat="47.42163" lon="0.89343">
        <ele>57</ele>
        <time>2021-06-23T20:59:13Z</time>
      </trkpt>
      <trkpt lat="47.42148" lon="0.89552">
        <ele>54</ele>
        <time>2021-06-23T20:59:38Z</time>
      </trkpt>
      <trkpt lat="47.42144" lon="0.8971">
        <ele>52</ele>
        <time>2021-06-23T20:59:57Z</time>
      </trkpt>
      <trkpt lat="47.42143" lon="0.89738">
        <ele>52</ele>
        <time>2021-06-23T21:00:01Z</time>
      </trkpt>
      <trkpt lat="47.42142" lon="0.89763">
        <ele>51</ele>
        <time>2021-06-23T21:00:04Z</time>
      </trkpt>
      <trkpt lat="47.42139" lon="0.89809">
        <ele>51</ele>
        <time>2021-06-23T21:00:09Z</time>
      </trkpt>
      <trkpt lat="47.42134" lon="0.89886">
        <ele>51</ele>
        <time>2021-06-23T21:00:19Z</time>
      </trkpt>
      <trkpt lat="47.42131" lon="0.89927">
        <ele>51</ele>
        <time>2021-06-23T21:00:24Z</time>
      </trkpt>
      <trkpt lat="47.4213" lon="0.89975">
        <ele>51</ele>
        <time>2021-06-23T21:00:29Z</time>
      </trkpt>
      <trkpt lat="47.42141" lon="0.90098">
        <ele>52</ele>
        <time>2021-06-23T21:00:44Z</time>
      </trkpt>
      <trkpt lat="47.42142" lon="0.90177">
        <ele>51</ele>
        <time>2021-06-23T21:00:54Z</time>
      </trkpt>
      <trkpt lat="47.42141" lon="0.90218">
        <ele>51</ele>
        <time>2021-06-23T21:00:59Z</time>
      </trkpt>
      <trkpt lat="47.4214" lon="0.90252">
        <ele>51</ele>
        <time>2021-06-23T21:01:03Z</time>
      </trkpt>
      <trkpt lat="47.42141" lon="0.90286">
        <ele>52</ele>
        <time>2021-06-23T21:01:07Z</time>
      </trkpt>
      <trkpt lat="47.42145" lon="0.90306">
        <ele>52</ele>
        <time>2021-06-23T21:01:09Z</time>
      </trkpt>
      <trkpt lat="47.42154" lon="0.90346">
        <ele>53</ele>
        <time>2021-06-23T21:01:14Z</time>
      </trkpt>
      <trkpt lat="47.42197" lon="0.90501">
        <ele>52</ele>
        <time>2021-06-23T21:01:35Z</time>
      </trkpt>
      <trkpt lat="47.42217" lon="0.90573">
        <ele>52</ele>
        <time>2021-06-23T21:01:44Z</time>
      </trkpt>
      <trkpt lat="47.42252" lon="0.90732">
        <ele>51</ele>
        <time>2021-06-23T21:02:04Z</time>
      </trkpt>
      <trkpt lat="47.42253" lon="0.90738">
        <ele>51</ele>
        <time>2021-06-23T21:02:05Z</time>
      </trkpt>
      <trkpt lat="47.42258" lon="0.9077">
        <ele>51</ele>
        <time>2021-06-23T21:02:09Z</time>
      </trkpt>
      <trkpt lat="47.42269" lon="0.90843">
        <ele>52</ele>
        <time>2021-06-23T21:02:18Z</time>
      </trkpt>
      <trkpt lat="47.42271" lon="0.90855">
        <ele>52</ele>
        <time>2021-06-23T21:02:19Z</time>
      </trkpt>
      <trkpt lat="47.4228" lon="0.90908">
        <ele>52</ele>
        <time>2021-06-23T21:02:26Z</time>
      </trkpt>
      <trkpt lat="47.42298" lon="0.91019">
        <ele>51</ele>
        <time>2021-06-23T21:02:40Z</time>
      </trkpt>
      <trkpt lat="47.42304" lon="0.9104">
        <ele>51</ele>
        <time>2021-06-23T21:02:42Z</time>
      </trkpt>
      <trkpt lat="47.42313" lon="0.91062">
        <ele>51</ele>
        <time>2021-06-23T21:02:46Z</time>
      </trkpt>
      <trkpt lat="47.42366" lon="0.91153">
        <ele>52</ele>
        <time>2021-06-23T21:03:00Z</time>
      </trkpt>
      <trkpt lat="47.42388" lon="0.91191">
        <ele>53</ele>
        <time>2021-06-23T21:03:06Z</time>
      </trkpt>
      <trkpt lat="47.42393" lon="0.91204">
        <ele>53</ele>
        <time>2021-06-23T21:03:08Z</time>
      </trkpt>
      <trkpt lat="47.424" lon="0.91233">
        <ele>53</ele>
        <time>2021-06-23T21:03:11Z</time>
      </trkpt>
      <trkpt lat="47.42421" lon="0.91351">
        <ele>53</ele>
        <time>2021-06-23T21:03:26Z</time>
      </trkpt>
      <trkpt lat="47.42422" lon="0.91358">
        <ele>53</ele>
        <time>2021-06-23T21:03:27Z</time>
      </trkpt>
      <trkpt lat="47.42439" lon="0.91454">
        <ele>54</ele>
        <time>2021-06-23T21:03:39Z</time>
      </trkpt>
      <trkpt lat="47.42448" lon="0.91526">
        <ele>55</ele>
        <time>2021-06-23T21:03:48Z</time>
      </trkpt>
      <trkpt lat="47.42448" lon="0.91555">
        <ele>55</ele>
        <time>2021-06-23T21:03:51Z</time>
      </trkpt>
      <trkpt lat="47.42446" lon="0.91582">
        <ele>55</ele>
        <time>2021-06-23T21:03:55Z</time>
      </trkpt>
      <trkpt lat="47.42431" lon="0.9168">
        <ele>53</ele>
        <time>2021-06-23T21:04:07Z</time>
      </trkpt>
      <trkpt lat="47.42426" lon="0.91726">
        <ele>53</ele>
        <time>2021-06-23T21:04:12Z</time>
      </trkpt>
      <trkpt lat="47.42424" lon="0.91767">
        <ele>53</ele>
        <time>2021-06-23T21:04:17Z</time>
      </trkpt>
      <trkpt lat="47.42424" lon="0.91809">
        <ele>53</ele>
        <time>2021-06-23T21:04:22Z</time>
      </trkpt>
      <trkpt lat="47.42425" lon="0.91833">
        <ele>52</ele>
        <time>2021-06-23T21:04:25Z</time>
      </trkpt>
      <trkpt lat="47.42425" lon="0.91877">
        <ele>53</ele>
        <time>2021-06-23T21:04:30Z</time>
      </trkpt>
      <trkpt lat="47.42429" lon="0.91922">
        <ele>54</ele>
        <time>2021-06-23T21:04:36Z</time>
      </trkpt>
      <trkpt lat="47.42444" lon="0.92043">
        <ele>54</ele>
        <time>2021-06-23T21:04:51Z</time>
      </trkpt>
      <trkpt lat="47.42447" lon="0.92075">
        <ele>54</ele>
        <time>2021-06-23T21:04:55Z</time>
      </trkpt>
      <trkpt lat="47.42447" lon="0.92105">
        <ele>53</ele>
        <time>2021-06-23T21:04:58Z</time>
      </trkpt>
      <trkpt lat="47.42447" lon="0.92121">
        <ele>53</ele>
        <time>2021-06-23T21:05:00Z</time>
      </trkpt>
      <trkpt lat="47.42448" lon="0.9218">
        <ele>53</ele>
        <time>2021-06-23T21:05:07Z</time>
      </trkpt>
      <trkpt lat="47.4245" lon="0.92223">
        <ele>52</ele>
        <time>2021-06-23T21:05:12Z</time>
      </trkpt>
      <trkpt lat="47.42452" lon="0.9226">
        <ele>52</ele>
        <time>2021-06-23T21:05:17Z</time>
      </trkpt>
      <trkpt lat="47.42463" lon="0.92421">
        <ele>52</ele>
        <time>2021-06-23T21:05:36Z</time>
      </trkpt>
      <trkpt lat="47.42474" lon="0.92477">
        <ele>52</ele>
        <time>2021-06-23T21:05:43Z</time>
      </trkpt>
      <trkpt lat="47.42478" lon="0.92496">
        <ele>52</ele>
        <time>2021-06-23T21:05:46Z</time>
      </trkpt>
      <trkpt lat="47.42483" lon="0.92527">
        <ele>52</ele>
        <time>2021-06-23T21:05:50Z</time>
      </trkpt>
      <trkpt lat="47.42489" lon="0.92556">
        <ele>52</ele>
        <time>2021-06-23T21:05:53Z</time>
      </trkpt>
      <trkpt lat="47.42509" lon="0.92645">
        <ele>53</ele>
        <time>2021-06-23T21:06:05Z</time>
      </trkpt>
      <trkpt lat="47.42532" lon="0.92747">
        <ele>55</ele>
        <time>2021-06-23T21:06:18Z</time>
      </trkpt>
      <trkpt lat="47.42537" lon="0.92769">
        <ele>56</ele>
        <time>2021-06-23T21:06:20Z</time>
      </trkpt>
      <trkpt lat="47.42542" lon="0.92805">
        <ele>57</ele>
        <time>2021-06-23T21:06:25Z</time>
      </trkpt>
      <trkpt lat="47.42544" lon="0.92818">
        <ele>57</ele>
        <time>2021-06-23T21:06:26Z</time>
      </trkpt>
      <trkpt lat="47.42587" lon="0.93136">
        <ele>55</ele>
        <time>2021-06-23T21:07:05Z</time>
      </trkpt>
      <trkpt lat="47.42592" lon="0.93168">
        <ele>56</ele>
        <time>2021-06-23T21:07:09Z</time>
      </trkpt>
      <trkpt lat="47.426" lon="0.93253">
        <ele>56</ele>
        <time>2021-06-23T21:07:20Z</time>
      </trkpt>
      <trkpt lat="47.42605" lon="0.93276">
        <ele>56</ele>
        <time>2021-06-23T21:07:23Z</time>
      </trkpt>
      <trkpt lat="47.42619" lon="0.93333">
        <ele>55</ele>
        <time>2021-06-23T21:07:30Z</time>
      </trkpt>
      <trkpt lat="47.42628" lon="0.93364">
        <ele>55</ele>
        <time>2021-06-23T21:07:34Z</time>
      </trkpt>
      <trkpt lat="47.42634" lon="0.93385">
        <ele>55</ele>
        <time>2021-06-23T21:07:37Z</time>
      </trkpt>
      <trkpt lat="47.42663" lon="0.9349">
        <ele>54</ele>
        <time>2021-06-23T21:07:50Z</time>
      </trkpt>
      <trkpt lat="47.42667" lon="0.93503">
        <ele>54</ele>
        <time>2021-06-23T21:07:52Z</time>
      </trkpt>
      <trkpt lat="47.42687" lon="0.93573">
        <ele>55</ele>
        <time>2021-06-23T21:08:01Z</time>
      </trkpt>
      <trkpt lat="47.4272" lon="0.93711">
        <ele>55</ele>
        <time>2021-06-23T21:08:19Z</time>
      </trkpt>
      <trkpt lat="47.42724" lon="0.93727">
        <ele>55</ele>
        <time>2021-06-23T21:08:21Z</time>
      </trkpt>
      <trkpt lat="47.42731" lon="0.93757">
        <ele>54</ele>
        <time>2021-06-23T21:08:25Z</time>
      </trkpt>
      <trkpt lat="47.42742" lon="0.93792">
        <ele>53</ele>
        <time>2021-06-23T21:08:29Z</time>
      </trkpt>
      <trkpt lat="47.42755" lon="0.93819">
        <ele>53</ele>
        <time>2021-06-23T21:08:33Z</time>
      </trkpt>
      <trkpt lat="47.42771" lon="0.93845">
        <ele>54</ele>
        <time>2021-06-23T21:08:38Z</time>
      </trkpt>
      <trkpt lat="47.42788" lon="0.93865">
        <ele>55</ele>
        <time>2021-06-23T21:08:41Z</time>
      </trkpt>
      <trkpt lat="47.42798" lon="0.93874">
        <ele>56</ele>
        <time>2021-06-23T21:08:44Z</time>
      </trkpt>
      <trkpt lat="47.42851" lon="0.93918">
        <ele>59</ele>
        <time>2021-06-23T21:08:54Z</time>
      </trkpt>
      <trkpt lat="47.42867" lon="0.93934">
        <ele>61</ele>
        <time>2021-06-23T21:08:58Z</time>
      </trkpt>
      <trkpt lat="47.42878" lon="0.93948">
        <ele>61</ele>
        <time>2021-06-23T21:09:00Z</time>
      </trkpt>
      <trkpt lat="47.42884" lon="0.93962">
        <ele>61</ele>
        <time>2021-06-23T21:09:02Z</time>
      </trkpt>
      <trkpt lat="47.42886" lon="0.93967">
        <ele>61</ele>
        <time>2021-06-23T21:09:03Z</time>
      </trkpt>
      <trkpt lat="47.42894" lon="0.93997">
        <ele>61</ele>
        <time>2021-06-23T21:09:07Z</time>
      </trkpt>
      <trkpt lat="47.42917" lon="0.94097">
        <ele>60</ele>
        <time>2021-06-23T21:09:20Z</time>
      </trkpt>
      <trkpt lat="47.42923" lon="0.94133">
        <ele>61</ele>
        <time>2021-06-23T21:09:24Z</time>
      </trkpt>
      <trkpt lat="47.42926" lon="0.94182">
        <ele>61</ele>
        <time>2021-06-23T21:09:30Z</time>
      </trkpt>
      <trkpt lat="47.42927" lon="0.94194">
        <ele>61</ele>
        <time>2021-06-23T21:09:31Z</time>
      </trkpt>
      <trkpt lat="47.4293" lon="0.94229">
        <ele>62</ele>
        <time>2021-06-23T21:09:36Z</time>
      </trkpt>
      <trkpt lat="47.42938" lon="0.94305">
        <ele>62</ele>
        <time>2021-06-23T21:09:45Z</time>
      </trkpt>
      <trkpt lat="47.42944" lon="0.9434">
        <ele>61</ele>
        <time>2021-06-23T21:09:49Z</time>
      </trkpt>
      <trkpt lat="47.42964" lon="0.94418">
        <ele>63</ele>
        <time>2021-06-23T21:09:59Z</time>
      </trkpt>
      <trkpt lat="47.42998" lon="0.94526">
        <ele>61</ele>
        <time>2021-06-23T21:10:14Z</time>
      </trkpt>
      <trkpt lat="47.43054" lon="0.94744">
        <ele>63</ele>
        <time>2021-06-23T21:10:42Z</time>
      </trkpt>
      <trkpt lat="47.43065" lon="0.94788">
        <ele>62</ele>
        <time>2021-06-23T21:10:47Z</time>
      </trkpt>
      <trkpt lat="47.43073" lon="0.94825">
        <ele>60</ele>
        <time>2021-06-23T21:10:52Z</time>
      </trkpt>
      <trkpt lat="47.43091" lon="0.9494">
        <ele>60</ele>
        <time>2021-06-23T21:11:06Z</time>
      </trkpt>
      <trkpt lat="47.43105" lon="0.94998">
        <ele>61</ele>
        <time>2021-06-23T21:11:14Z</time>
      </trkpt>
      <trkpt lat="47.43128" lon="0.95096">
        <ele>62</ele>
        <time>2021-06-23T21:11:26Z</time>
      </trkpt>
      <trkpt lat="47.43139" lon="0.95135">
        <ele>61</ele>
        <time>2021-06-23T21:11:31Z</time>
      </trkpt>
      <trkpt lat="47.43143" lon="0.95148">
        <ele>61</ele>
        <time>2021-06-23T21:11:33Z</time>
      </trkpt>
      <trkpt lat="47.43149" lon="0.95163">
        <ele>61</ele>
        <time>2021-06-23T21:11:35Z</time>
      </trkpt>
      <trkpt lat="47.43182" lon="0.95234">
        <ele>62</ele>
        <time>2021-06-23T21:11:45Z</time>
      </trkpt>
      <trkpt lat="47.43184" lon="0.9524">
        <ele>62</ele>
        <time>2021-06-23T21:11:46Z</time>
      </trkpt>
      <trkpt lat="47.43192" lon="0.95263">
        <ele>62</ele>
        <time>2021-06-23T21:11:49Z</time>
      </trkpt>
      <trkpt lat="47.43193" lon="0.95267">
        <ele>62</ele>
        <time>2021-06-23T21:11:50Z</time>
      </trkpt>
      <trkpt lat="47.43194" lon="0.95278">
        <ele>62</ele>
        <time>2021-06-23T21:11:51Z</time>
      </trkpt>
      <trkpt lat="47.43206" lon="0.95316">
        <ele>61</ele>
        <time>2021-06-23T21:11:56Z</time>
      </trkpt>
      <trkpt lat="47.43209" lon="0.95323">
        <ele>61</ele>
        <time>2021-06-23T21:11:57Z</time>
      </trkpt>
      <trkpt lat="47.43213" lon="0.95339">
        <ele>61</ele>
        <time>2021-06-23T21:11:59Z</time>
      </trkpt>
      <trkpt lat="47.4321" lon="0.9534">
        <ele>60</ele>
        <time>2021-06-23T21:12:00Z</time>
      </trkpt>
      <trkpt lat="47.43194" lon="0.95349">
        <ele>59</ele>
        <time>2021-06-23T21:12:03Z</time>
      </trkpt>
      <trkpt lat="47.43151" lon="0.95373">
        <ele>56</ele>
        <time>2021-06-23T21:12:11Z</time>
      </trkpt>
      <trkpt lat="47.43138" lon="0.95382">
        <ele>56</ele>
        <time>2021-06-23T21:12:14Z</time>
      </trkpt>
      <trkpt lat="47.43123" lon="0.95397">
        <ele>55</ele>
        <time>2021-06-23T21:12:17Z</time>
      </trkpt>
      <trkpt lat="47.43093" lon="0.95438">
        <ele>55</ele>
        <time>2021-06-23T21:12:24Z</time>
      </trkpt>
      <trkpt lat="47.43056" lon="0.95495">
        <ele>56</ele>
        <time>2021-06-23T21:12:34Z</time>
      </trkpt>
      <trkpt lat="47.42812" lon="0.95857">
        <ele>52</ele>
        <time>2021-06-23T21:13:35Z</time>
      </trkpt>
      <trkpt lat="47.42783" lon="0.95893">
        <ele>53</ele>
        <time>2021-06-23T21:13:42Z</time>
      </trkpt>
      <trkpt lat="47.42777" lon="0.95898">
        <ele>53</ele>
        <time>2021-06-23T21:13:43Z</time>
      </trkpt>
      <trkpt lat="47.4277" lon="0.959">
        <ele>53</ele>
        <time>2021-06-23T21:13:44Z</time>
      </trkpt>
      <trkpt lat="47.42766" lon="0.95898">
        <ele>53</ele>
        <time>2021-06-23T21:13:45Z</time>
      </trkpt>
      <trkpt lat="47.42758" lon="0.95898">
        <ele>53</ele>
        <time>2021-06-23T21:13:47Z</time>
      </trkpt>
      <trkpt lat="47.42742" lon="0.95913">
        <ele>53</ele>
        <time>2021-06-23T21:13:50Z</time>
      </trkpt>
      <trkpt lat="47.42735" lon="0.95917">
        <ele>53</ele>
        <time>2021-06-23T21:13:51Z</time>
      </trkpt>
      <trkpt lat="47.42726" lon="0.95922">
        <ele>53</ele>
        <time>2021-06-23T21:13:53Z</time>
      </trkpt>
      <trkpt lat="47.42709" lon="0.95925">
        <ele>53</ele>
        <time>2021-06-23T21:13:56Z</time>
      </trkpt>
      <trkpt lat="47.42681" lon="0.95921">
        <ele>53</ele>
        <time>2021-06-23T21:14:01Z</time>
      </trkpt>
      <trkpt lat="47.42569" lon="0.95895">
        <ele>53</ele>
        <time>2021-06-23T21:14:21Z</time>
      </trkpt>
      <trkpt lat="47.4254" lon="0.95891">
        <ele>53</ele>
        <time>2021-06-23T21:14:26Z</time>
      </trkpt>
      <trkpt lat="47.42502" lon="0.95891">
        <ele>54</ele>
        <time>2021-06-23T21:14:33Z</time>
      </trkpt>
      <trkpt lat="47.42459" lon="0.95898">
        <ele>54</ele>
        <time>2021-06-23T21:14:41Z</time>
      </trkpt>
      <trkpt lat="47.42128" lon="0.96007">
        <ele>54</ele>
        <time>2021-06-23T21:15:41Z</time>
      </trkpt>
      <trkpt lat="47.42088" lon="0.96023">
        <ele>55</ele>
        <time>2021-06-23T21:15:49Z</time>
      </trkpt>
      <trkpt lat="47.41839" lon="0.96139">
        <ele>54</ele>
        <time>2021-06-23T21:16:35Z</time>
      </trkpt>
      <trkpt lat="47.41694" lon="0.962">
        <ele>53</ele>
        <time>2021-06-23T21:17:02Z</time>
      </trkpt>
      <trkpt lat="47.4167" lon="0.96211">
        <ele>53</ele>
        <time>2021-06-23T21:17:06Z</time>
      </trkpt>
      <trkpt lat="47.41626" lon="0.96233">
        <ele>53</ele>
        <time>2021-06-23T21:17:15Z</time>
      </trkpt>
      <trkpt lat="47.41586" lon="0.96249">
        <ele>53</ele>
        <time>2021-06-23T21:17:22Z</time>
      </trkpt>
      <trkpt lat="47.41486" lon="0.96288">
        <ele>54</ele>
        <time>2021-06-23T21:17:40Z</time>
      </trkpt>
      <trkpt lat="47.41342" lon="0.96338">
        <ele>57</ele>
        <time>2021-06-23T21:18:07Z</time>
      </trkpt>
      <trkpt lat="47.41339" lon="0.96339">
        <ele>57</ele>
        <time>2021-06-23T21:18:07Z</time>
      </trkpt>
      <trkpt lat="47.41298" lon="0.96353">
        <ele>55</ele>
        <time>2021-06-23T21:18:15Z</time>
      </trkpt>
      <trkpt lat="47.41331" lon="0.96566">
        <ele>56</ele>
        <time>2021-06-23T21:18:41Z</time>
      </trkpt>
      <trkpt lat="47.41358" lon="0.96669">
        <ele>55</ele>
        <time>2021-06-23T21:18:54Z</time>
      </trkpt>
      <trkpt lat="47.41417" lon="0.96843">
        <ele>56</ele>
        <time>2021-06-23T21:19:18Z</time>
      </trkpt>
      <trkpt lat="47.4144" lon="0.9692">
        <ele>54</ele>
        <time>2021-06-23T21:19:28Z</time>
      </trkpt>
      <trkpt lat="47.41442" lon="0.96902">
        <ele>54</ele>
        <time>2021-06-23T21:19:30Z</time>
      </trkpt>
      <trkpt lat="47.41436" lon="0.96877">
        <ele>55</ele>
        <time>2021-06-23T21:19:33Z</time>
      </trkpt>
      <trkpt lat="47.41442" lon="0.96902">
        <ele>54</ele>
        <time>2021-06-23T21:19:36Z</time>
      </trkpt>
      <trkpt lat="47.4144" lon="0.9692">
        <ele>54</ele>
        <time>2021-06-23T21:19:39Z</time>
      </trkpt>
      <trkpt lat="47.41475" lon="0.9707">
        <ele>56</ele>
        <time>2021-06-23T21:19:58Z</time>
      </trkpt>
      <trkpt lat="47.41501" lon="0.97229">
        <ele>53</ele>
        <time>2021-06-23T21:20:17Z</time>
      </trkpt>
      <trkpt lat="47.41519" lon="0.97319">
        <ele>57</ele>
        <time>2021-06-23T21:20:29Z</time>
      </trkpt>
      <trkpt lat="47.41534" lon="0.97379">
        <ele>57</ele>
        <time>2021-06-23T21:20:36Z</time>
      </trkpt>
      <trkpt lat="47.41646" lon="0.97714">
        <ele>57</ele>
        <time>2021-06-23T21:21:21Z</time>
      </trkpt>
      <trkpt lat="47.41732" lon="0.98024">
        <ele>59</ele>
        <time>2021-06-23T21:22:02Z</time>
      </trkpt>
      <trkpt lat="47.41749" lon="0.98101">
        <ele>59</ele>
        <time>2021-06-23T21:22:12Z</time>
      </trkpt>
      <trkpt lat="47.41751" lon="0.98116">
        <ele>58</ele>
        <time>2021-06-23T21:22:13Z</time>
      </trkpt>
      <trkpt lat="47.41751" lon="0.98126">
        <ele>58</ele>
        <time>2021-06-23T21:22:15Z</time>
      </trkpt>
      <trkpt lat="47.41748" lon="0.98136">
        <ele>57</ele>
        <time>2021-06-23T21:22:16Z</time>
      </trkpt>
      <trkpt lat="47.41749" lon="0.98139">
        <ele>57</ele>
        <time>2021-06-23T21:22:16Z</time>
      </trkpt>
      <trkpt lat="47.41596" lon="0.98264">
        <ele>56</ele>
        <time>2021-06-23T21:22:47Z</time>
      </trkpt>
      <trkpt lat="47.41547" lon="0.98304">
        <ele>57</ele>
        <time>2021-06-23T21:22:57Z</time>
      </trkpt>
      <trkpt lat="47.41383" lon="0.98434">
        <ele>58</ele>
        <time>2021-06-23T21:23:30Z</time>
      </trkpt>
      <trkpt lat="47.41382" lon="0.98434">
        <ele>58</ele>
        <time>2021-06-23T21:23:31Z</time>
      </trkpt>
      <trkpt lat="47.41379" lon="0.98435">
        <ele>59</ele>
        <time>2021-06-23T21:23:31Z</time>
      </trkpt>
      <trkpt lat="47.41365" lon="0.98418">
        <ele>60</ele>
        <time>2021-06-23T21:23:34Z</time>
      </trkpt>
      <trkpt lat="47.4128" lon="0.98227">
        <ele>58</ele>
        <time>2021-06-23T21:24:02Z</time>
      </trkpt>
      <trkpt lat="47.41259" lon="0.98164">
        <ele>58</ele>
        <time>2021-06-23T21:24:10Z</time>
      </trkpt>
      <trkpt lat="47.41184" lon="0.97909">
        <ele>60</ele>
        <time>2021-06-23T21:24:44Z</time>
      </trkpt>
      <trkpt lat="47.41107" lon="0.9796">
        <ele>61</ele>
        <time>2021-06-23T21:24:59Z</time>
      </trkpt>
      <trkpt lat="47.41058" lon="0.97987">
        <ele>62</ele>
        <time>2021-06-23T21:25:08Z</time>
      </trkpt>
      <trkpt lat="47.41055" lon="0.97988">
        <ele>62</ele>
        <time>2021-06-23T21:25:09Z</time>
      </trkpt>
      <trkpt lat="47.41045" lon="0.97991">
        <ele>62</ele>
        <time>2021-06-23T21:25:11Z</time>
      </trkpt>
      <trkpt lat="47.41029" lon="0.97988">
        <ele>62</ele>
        <time>2021-06-23T21:25:13Z</time>
      </trkpt>
      <trkpt lat="47.40939" lon="0.97971">
        <ele>68</ele>
        <time>2021-06-23T21:25:30Z</time>
      </trkpt>
      <trkpt lat="47.40898" lon="0.97964">
        <ele>72</ele>
        <time>2021-06-23T21:25:37Z</time>
      </trkpt>
      <trkpt lat="47.40847" lon="0.97953">
        <ele>78</ele>
        <time>2021-06-23T21:25:46Z</time>
      </trkpt>
      <trkpt lat="47.40792" lon="0.97954">
        <ele>80</ele>
        <time>2021-06-23T21:25:56Z</time>
      </trkpt>
      <trkpt lat="47.40742" lon="0.97968">
        <ele>81</ele>
        <time>2021-06-23T21:26:05Z</time>
      </trkpt>
      <trkpt lat="47.40662" lon="0.97976">
        <ele>81</ele>
        <time>2021-06-23T21:26:19Z</time>
      </trkpt>
      <trkpt lat="47.40629" lon="0.97982">
        <ele>81</ele>
        <time>2021-06-23T21:26:25Z</time>
      </trkpt>
      <trkpt lat="47.40566" lon="0.97993">
        <ele>82</ele>
        <time>2021-06-23T21:26:36Z</time>
      </trkpt>
      <trkpt lat="47.40455" lon="0.98019">
        <ele>83</ele>
        <time>2021-06-23T21:26:56Z</time>
      </trkpt>
      <trkpt lat="47.40444" lon="0.9802">
        <ele>83</ele>
        <time>2021-06-23T21:26:58Z</time>
      </trkpt>
      <trkpt lat="47.40429" lon="0.98019">
        <ele>83</ele>
        <time>2021-06-23T21:27:01Z</time>
      </trkpt>
      <trkpt lat="47.40412" lon="0.98019">
        <ele>83</ele>
        <time>2021-06-23T21:27:04Z</time>
      </trkpt>
      <trkpt lat="47.40397" lon="0.98018">
        <ele>83</ele>
        <time>2021-06-23T21:27:07Z</time>
      </trkpt>
      <trkpt lat="47.40381" lon="0.98015">
        <ele>83</ele>
        <time>2021-06-23T21:27:10Z</time>
      </trkpt>
      <trkpt lat="47.40298" lon="0.98009">
        <ele>83</ele>
        <time>2021-06-23T21:27:24Z</time>
      </trkpt>
      <trkpt lat="47.40254" lon="0.98007">
        <ele>83</ele>
        <time>2021-06-23T21:27:32Z</time>
      </trkpt>
      <trkpt lat="47.40189" lon="0.98003">
        <ele>85</ele>
        <time>2021-06-23T21:27:44Z</time>
      </trkpt>
      <trkpt lat="47.40176" lon="0.98002">
        <ele>86</ele>
        <time>2021-06-23T21:27:46Z</time>
      </trkpt>
      <trkpt lat="47.40165" lon="0.98001">
        <ele>86</ele>
        <time>2021-06-23T21:27:48Z</time>
      </trkpt>
      <trkpt lat="47.39843" lon="0.97978">
        <ele>98</ele>
        <time>2021-06-23T21:28:45Z</time>
      </trkpt>
      <trkpt lat="47.39833" lon="0.97977">
        <ele>98</ele>
        <time>2021-06-23T21:28:47Z</time>
      </trkpt>
      <trkpt lat="47.39793" lon="0.97974">
        <ele>100</ele>
        <time>2021-06-23T21:28:54Z</time>
      </trkpt>
      <trkpt lat="47.39763" lon="0.97972">
        <ele>101</ele>
        <time>2021-06-23T21:29:00Z</time>
      </trkpt>
      <trkpt lat="47.39752" lon="0.97971">
        <ele>101</ele>
        <time>2021-06-23T21:29:02Z</time>
      </trkpt>
      <trkpt lat="47.39681" lon="0.97967">
        <ele>105</ele>
        <time>2021-06-23T21:29:14Z</time>
      </trkpt>
      <trkpt lat="47.39597" lon="0.97961">
        <ele>109</ele>
        <time>2021-06-23T21:29:29Z</time>
      </trkpt>
      <trkpt lat="47.39416" lon="0.97948">
        <ele>113</ele>
        <time>2021-06-23T21:30:02Z</time>
      </trkpt>
      <trkpt lat="47.39309" lon="0.97941">
        <ele>116</ele>
        <time>2021-06-23T21:30:21Z</time>
      </trkpt>
      <trkpt lat="47.39307" lon="0.97941">
        <ele>116</ele>
        <time>2021-06-23T21:30:21Z</time>
      </trkpt>
      <trkpt lat="47.39293" lon="0.97939">
        <ele>116</ele>
        <time>2021-06-23T21:30:23Z</time>
      </trkpt>
      <trkpt lat="47.39278" lon="0.97938">
        <ele>116</ele>
        <time>2021-06-23T21:30:26Z</time>
      </trkpt>
      <trkpt lat="47.39263" lon="0.97937">
        <ele>117</ele>
        <time>2021-06-23T21:30:29Z</time>
      </trkpt>
      <trkpt lat="47.39244" lon="0.97941">
        <ele>117</ele>
        <time>2021-06-23T21:30:32Z</time>
      </trkpt>
      <trkpt lat="47.39233" lon="0.97946">
        <ele>118</ele>
        <time>2021-06-23T21:30:34Z</time>
      </trkpt>
      <trkpt lat="47.39219" lon="0.97965">
        <ele>119</ele>
        <time>2021-06-23T21:30:38Z</time>
      </trkpt>
      <trkpt lat="47.39212" lon="0.97973">
        <ele>120</ele>
        <time>2021-06-23T21:30:39Z</time>
      </trkpt>
      <trkpt lat="47.39206" lon="0.9798">
        <ele>120</ele>
        <time>2021-06-23T21:30:41Z</time>
      </trkpt>
      <trkpt lat="47.39201" lon="0.97982">
        <ele>120</ele>
        <time>2021-06-23T21:30:41Z</time>
      </trkpt>
      <trkpt lat="47.39196" lon="0.97983">
        <ele>120</ele>
        <time>2021-06-23T21:30:42Z</time>
      </trkpt>
      <trkpt lat="47.39193" lon="0.97981">
        <ele>120</ele>
        <time>2021-06-23T21:30:43Z</time>
      </trkpt>
      <trkpt lat="47.39185" lon="0.97981">
        <ele>121</ele>
        <time>2021-06-23T21:30:44Z</time>
      </trkpt>
      <trkpt lat="47.39179" lon="0.97985">
        <ele>121</ele>
        <time>2021-06-23T21:30:46Z</time>
      </trkpt>
      <trkpt lat="47.39173" lon="0.97987">
        <ele>121</ele>
        <time>2021-06-23T21:30:47Z</time>
      </trkpt>
      <trkpt lat="47.39153" lon="0.97981">
        <ele>123</ele>
        <time>2021-06-23T21:30:50Z</time>
      </trkpt>
      <trkpt lat="47.39136" lon="0.97972">
        <ele>124</ele>
        <time>2021-06-23T21:30:53Z</time>
      </trkpt>
      <trkpt lat="47.39099" lon="0.97944">
        <ele>126</ele>
        <time>2021-06-23T21:31:01Z</time>
      </trkpt>
      <trkpt lat="47.39069" lon="0.97927">
        <ele>127</ele>
        <time>2021-06-23T21:31:07Z</time>
      </trkpt>
      <trkpt lat="47.38991" lon="0.97898">
        <ele>130</ele>
        <time>2021-06-23T21:31:21Z</time>
      </trkpt>
      <trkpt lat="47.38928" lon="0.97885">
        <ele>127</ele>
        <time>2021-06-23T21:31:32Z</time>
      </trkpt>
      <trkpt lat="47.38892" lon="0.97885">
        <ele>126</ele>
        <time>2021-06-23T21:31:39Z</time>
      </trkpt>
      <trkpt lat="47.38661" lon="0.97934">
        <ele>121</ele>
        <time>2021-06-23T21:32:20Z</time>
      </trkpt>
      <trkpt lat="47.38004" lon="0.98081">
        <ele>121</ele>
        <time>2021-06-23T21:34:18Z</time>
      </trkpt>
      <trkpt lat="47.37672" lon="0.98158">
        <ele>117</ele>
        <time>2021-06-23T21:35:18Z</time>
      </trkpt>
      <trkpt lat="47.37544" lon="0.98194">
        <ele>117</ele>
        <time>2021-06-23T21:35:41Z</time>
      </trkpt>
      <trkpt lat="47.35958" lon="0.98726">
        <ele>107</ele>
        <time>2021-06-23T21:40:31Z</time>
      </trkpt>
      <trkpt lat="47.35771" lon="0.98791">
        <ele>103</ele>
        <time>2021-06-23T21:41:05Z</time>
      </trkpt>
      <trkpt lat="47.35695" lon="0.98814">
        <ele>103</ele>
        <time>2021-06-23T21:41:19Z</time>
      </trkpt>
      <trkpt lat="47.35606" lon="0.98837">
        <ele>102</ele>
        <time>2021-06-23T21:41:35Z</time>
      </trkpt>
      <trkpt lat="47.35585" lon="0.9884">
        <ele>102</ele>
        <time>2021-06-23T21:41:39Z</time>
      </trkpt>
      <trkpt lat="47.35535" lon="0.98838">
        <ele>102</ele>
        <time>2021-06-23T21:41:47Z</time>
      </trkpt>
      <trkpt lat="47.35504" lon="0.98833">
        <ele>102</ele>
        <time>2021-06-23T21:41:53Z</time>
      </trkpt>
      <trkpt lat="47.35501" lon="0.98836">
        <ele>102</ele>
        <time>2021-06-23T21:41:54Z</time>
      </trkpt>
      <trkpt lat="47.35494" lon="0.98857">
        <ele>102</ele>
        <time>2021-06-23T21:41:56Z</time>
      </trkpt>
      <trkpt lat="47.3549" lon="0.98876">
        <ele>101</ele>
        <time>2021-06-23T21:41:59Z</time>
      </trkpt>
      <trkpt lat="47.35485" lon="0.98887">
        <ele>101</ele>
        <time>2021-06-23T21:42:00Z</time>
      </trkpt>
      <trkpt lat="47.35212" lon="0.98978">
        <ele>97</ele>
        <time>2021-06-23T21:42:50Z</time>
      </trkpt>
      <trkpt lat="47.3517" lon="0.98986">
        <ele>96</ele>
        <time>2021-06-23T21:42:58Z</time>
      </trkpt>
      <trkpt lat="47.35063" lon="0.98987">
        <ele>91</ele>
        <time>2021-06-23T21:43:17Z</time>
      </trkpt>
      <trkpt lat="47.34468" lon="0.98985">
        <ele>71</ele>
        <time>2021-06-23T21:45:03Z</time>
      </trkpt>
      <trkpt lat="47.34071" lon="0.98989">
        <ele>61</ele>
        <time>2021-06-23T21:46:13Z</time>
      </trkpt>
      <trkpt lat="47.34065" lon="0.99025">
        <ele>60</ele>
        <time>2021-06-23T21:46:18Z</time>
      </trkpt>
      <trkpt lat="47.34052" lon="0.99158">
        <ele>61</ele>
        <time>2021-06-23T21:46:34Z</time>
      </trkpt>
      <trkpt lat="47.34033" lon="0.99239">
        <ele>62</ele>
        <time>2021-06-23T21:46:44Z</time>
      </trkpt>
      <trkpt lat="47.3401" lon="0.99365">
        <ele>60</ele>
        <time>2021-06-23T21:47:00Z</time>
      </trkpt>
      <trkpt lat="47.34007" lon="0.99392">
        <ele>60</ele>
        <time>2021-06-23T21:47:03Z</time>
      </trkpt>
      <trkpt lat="47.34001" lon="0.99498">
        <ele>59</ele>
        <time>2021-06-23T21:47:16Z</time>
      </trkpt>
      <trkpt lat="47.33997" lon="0.99535">
        <ele>59</ele>
        <time>2021-06-23T21:47:21Z</time>
      </trkpt>
      <trkpt lat="47.33984" lon="0.99609">
        <ele>60</ele>
        <time>2021-06-23T21:47:30Z</time>
      </trkpt>
      <trkpt lat="47.33942" lon="0.99829">
        <ele>67</ele>
        <time>2021-06-23T21:47:58Z</time>
      </trkpt>
      <trkpt lat="47.33909" lon="0.99963">
        <ele>64</ele>
        <time>2021-06-23T21:48:15Z</time>
      </trkpt>
      <trkpt lat="47.33872" lon="1.00162">
        <ele>66</ele>
        <time>2021-06-23T21:48:40Z</time>
      </trkpt>
      <trkpt lat="47.33866" lon="1.00206">
        <ele>66</ele>
        <time>2021-06-23T21:48:45Z</time>
      </trkpt>
      <trkpt lat="47.33852" lon="1.00424">
        <ele>69</ele>
        <time>2021-06-23T21:49:11Z</time>
      </trkpt>
      <trkpt lat="47.33841" lon="1.00494">
        <ele>69</ele>
        <time>2021-06-23T21:49:20Z</time>
      </trkpt>
      <trkpt lat="47.33833" lon="1.00534">
        <ele>68</ele>
        <time>2021-06-23T21:49:25Z</time>
      </trkpt>
      <trkpt lat="47.33818" lon="1.00602">
        <ele>67</ele>
        <time>2021-06-23T21:49:34Z</time>
      </trkpt>
      <trkpt lat="47.33805" lon="1.0065">
        <ele>67</ele>
        <time>2021-06-23T21:49:40Z</time>
      </trkpt>
      <trkpt lat="47.33777" lon="1.00721">
        <ele>66</ele>
        <time>2021-06-23T21:49:50Z</time>
      </trkpt>
      <trkpt lat="47.33737" lon="1.00791">
        <ele>62</ele>
        <time>2021-06-23T21:50:01Z</time>
      </trkpt>
      <trkpt lat="47.33644" lon="1.00944">
        <ele>59</ele>
        <time>2021-06-23T21:50:26Z</time>
      </trkpt>
      <trkpt lat="47.33624" lon="1.00984">
        <ele>59</ele>
        <time>2021-06-23T21:50:32Z</time>
      </trkpt>
      <trkpt lat="47.33616" lon="1.01012">
        <ele>60</ele>
        <time>2021-06-23T21:50:35Z</time>
      </trkpt>
      <trkpt lat="47.33554" lon="1.01279">
        <ele>62</ele>
        <time>2021-06-23T21:51:09Z</time>
      </trkpt>
      <trkpt lat="47.33521" lon="1.01439">
        <ele>61</ele>
        <time>2021-06-23T21:51:30Z</time>
      </trkpt>
      <trkpt lat="47.33479" lon="1.01669">
        <ele>61</ele>
        <time>2021-06-23T21:51:58Z</time>
      </trkpt>
      <trkpt lat="47.33446" lon="1.01842">
        <ele>62</ele>
        <time>2021-06-23T21:52:20Z</time>
      </trkpt>
      <trkpt lat="47.33426" lon="1.01964">
        <ele>62</ele>
        <time>2021-06-23T21:52:35Z</time>
      </trkpt>
      <trkpt lat="47.33391" lon="1.02225">
        <ele>66</ele>
        <time>2021-06-23T21:53:07Z</time>
      </trkpt>
      <trkpt lat="47.33331" lon="1.02758">
        <ele>63</ele>
        <time>2021-06-23T21:54:12Z</time>
      </trkpt>
      <trkpt lat="47.33292" lon="1.03232">
        <ele>65</ele>
        <time>2021-06-23T21:55:10Z</time>
      </trkpt>
      <trkpt lat="47.33262" lon="1.03557">
        <ele>63</ele>
        <time>2021-06-23T21:55:49Z</time>
      </trkpt>
      <trkpt lat="47.33216" lon="1.04152">
        <ele>61</ele>
        <time>2021-06-23T21:57:02Z</time>
      </trkpt>
      <trkpt lat="47.33184" lon="1.0463">
        <ele>61</ele>
        <time>2021-06-23T21:58:00Z</time>
      </trkpt>
      <trkpt lat="47.33185" lon="1.04786">
        <ele>62</ele>
        <time>2021-06-23T21:58:18Z</time>
      </trkpt>
      <trkpt lat="47.33187" lon="1.04801">
        <ele>62</ele>
        <time>2021-06-23T21:58:20Z</time>
      </trkpt>
      <trkpt lat="47.3319" lon="1.0481">
        <ele>63</ele>
        <time>2021-06-23T21:58:21Z</time>
      </trkpt>
      <trkpt lat="47.33196" lon="1.04821">
        <ele>63</ele>
        <time>2021-06-23T21:58:23Z</time>
      </trkpt>
      <trkpt lat="47.33206" lon="1.04832">
        <ele>63</ele>
        <time>2021-06-23T21:58:25Z</time>
      </trkpt>
      <trkpt lat="47.33205" lon="1.04842">
        <ele>63</ele>
        <time>2021-06-23T21:58:27Z</time>
      </trkpt>
      <trkpt lat="47.33222" lon="1.04915">
        <ele>65</ele>
        <time>2021-06-23T21:58:36Z</time>
      </trkpt>
      <trkpt lat="47.33241" lon="1.05019">
        <ele>69</ele>
        <time>2021-06-23T21:58:49Z</time>
      </trkpt>
      <trkpt lat="47.33271" lon="1.05027">
        <ele>71</ele>
        <time>2021-06-23T21:58:54Z</time>
      </trkpt>
      <trkpt lat="47.33278" lon="1.0509">
        <ele>72</ele>
        <time>2021-06-23T21:59:02Z</time>
      </trkpt>
      <trkpt lat="47.33284" lon="1.05161">
        <ele>72</ele>
        <time>2021-06-23T21:59:11Z</time>
      </trkpt>
      <trkpt lat="47.33286" lon="1.05274">
        <ele>73</ele>
        <time>2021-06-23T21:59:24Z</time>
      </trkpt>
      <trkpt lat="47.33284" lon="1.05316">
        <ele>72</ele>
        <time>2021-06-23T21:59:29Z</time>
      </trkpt>
      <trkpt lat="47.33247" lon="1.05681">
        <ele>68</ele>
        <time>2021-06-23T22:00:14Z</time>
      </trkpt>
      <trkpt lat="47.33235" lon="1.05883">
        <ele>69</ele>
        <time>2021-06-23T22:00:38Z</time>
      </trkpt>
      <trkpt lat="47.33235" lon="1.05901">
        <ele>69</ele>
        <time>2021-06-23T22:00:40Z</time>
      </trkpt>
      <trkpt lat="47.33229" lon="1.06327">
        <ele>67</ele>
        <time>2021-06-23T22:01:32Z</time>
      </trkpt>
      <trkpt lat="47.33227" lon="1.0637">
        <ele>68</ele>
        <time>2021-06-23T22:01:37Z</time>
      </trkpt>
      <trkpt lat="47.33216" lon="1.06468">
        <ele>69</ele>
        <time>2021-06-23T22:01:49Z</time>
      </trkpt>
      <trkpt lat="47.33214" lon="1.06497">
        <ele>69</ele>
        <time>2021-06-23T22:01:53Z</time>
      </trkpt>
      <trkpt lat="47.33212" lon="1.06661">
        <ele>69</ele>
        <time>2021-06-23T22:02:12Z</time>
      </trkpt>
      <trkpt lat="47.33208" lon="1.06668">
        <ele>69</ele>
        <time>2021-06-23T22:02:13Z</time>
      </trkpt>
      <trkpt lat="47.33166" lon="1.06716">
        <ele>69</ele>
        <time>2021-06-23T22:02:23Z</time>
      </trkpt>
      <trkpt lat="47.3316" lon="1.06726">
        <ele>68</ele>
        <time>2021-06-23T22:02:25Z</time>
      </trkpt>
      <trkpt lat="47.33157" lon="1.06743">
        <ele>68</ele>
        <time>2021-06-23T22:02:27Z</time>
      </trkpt>
      <trkpt lat="47.33154" lon="1.06799">
        <ele>69</ele>
        <time>2021-06-23T22:02:33Z</time>
      </trkpt>
      <trkpt lat="47.33156" lon="1.06884">
        <ele>68</ele>
        <time>2021-06-23T22:02:44Z</time>
      </trkpt>
      <trkpt lat="47.33155" lon="1.06915">
        <ele>68</ele>
        <time>2021-06-23T22:02:47Z</time>
      </trkpt>
      <trkpt lat="47.3315" lon="1.06962">
        <ele>68</ele>
        <time>2021-06-23T22:02:53Z</time>
      </trkpt>
      <trkpt lat="47.3315" lon="1.06981">
        <ele>68</ele>
        <time>2021-06-23T22:02:55Z</time>
      </trkpt>
      <trkpt lat="47.33154" lon="1.07053">
        <ele>68</ele>
        <time>2021-06-23T22:03:04Z</time>
      </trkpt>
      <trkpt lat="47.33154" lon="1.07247">
        <ele>69</ele>
        <time>2021-06-23T22:03:28Z</time>
      </trkpt>
      <trkpt lat="47.33156" lon="1.07288">
        <ele>69</ele>
        <time>2021-06-23T22:03:32Z</time>
      </trkpt>
      <trkpt lat="47.33162" lon="1.07355">
        <ele>68</ele>
        <time>2021-06-23T22:03:41Z</time>
      </trkpt>
      <trkpt lat="47.33176" lon="1.07481">
        <ele>66</ele>
        <time>2021-06-23T22:03:56Z</time>
      </trkpt>
      <trkpt lat="47.33179" lon="1.07703">
        <ele>69</ele>
        <time>2021-06-23T22:04:23Z</time>
      </trkpt>
      <trkpt lat="47.33157" lon="1.08142">
        <ele>70</ele>
        <time>2021-06-23T22:05:16Z</time>
      </trkpt>
      <trkpt lat="47.33154" lon="1.08186">
        <ele>69</ele>
        <time>2021-06-23T22:05:21Z</time>
      </trkpt>
      <trkpt lat="47.33145" lon="1.08271">
        <ele>67</ele>
        <time>2021-06-23T22:05:32Z</time>
      </trkpt>
      <trkpt lat="47.33139" lon="1.08301">
        <ele>65</ele>
        <time>2021-06-23T22:05:35Z</time>
      </trkpt>
      <trkpt lat="47.3313" lon="1.08328">
        <ele>64</ele>
        <time>2021-06-23T22:05:39Z</time>
      </trkpt>
      <trkpt lat="47.33088" lon="1.0843">
        <ele>63</ele>
        <time>2021-06-23T22:05:53Z</time>
      </trkpt>
      <trkpt lat="47.33075" lon="1.08501">
        <ele>64</ele>
        <time>2021-06-23T22:06:02Z</time>
      </trkpt>
      <trkpt lat="47.33066" lon="1.08607">
        <ele>64</ele>
        <time>2021-06-23T22:06:15Z</time>
      </trkpt>
      <trkpt lat="47.33059" lon="1.08821">
        <ele>65</ele>
        <time>2021-06-23T22:06:41Z</time>
      </trkpt>
      <trkpt lat="47.33058" lon="1.0887">
        <ele>64</ele>
        <time>2021-06-23T22:06:47Z</time>
      </trkpt>
      <trkpt lat="47.33064" lon="1.08934">
        <ele>64</ele>
        <time>2021-06-23T22:06:55Z</time>
      </trkpt>
      <trkpt lat="47.33078" lon="1.09022">
        <ele>64</ele>
        <time>2021-06-23T22:07:06Z</time>
      </trkpt>
      <trkpt lat="47.33092" lon="1.0907">
        <ele>64</ele>
        <time>2021-06-23T22:07:12Z</time>
      </trkpt>
      <trkpt lat="47.33115" lon="1.09128">
        <ele>65</ele>
        <time>2021-06-23T22:07:20Z</time>
      </trkpt>
      <trkpt lat="47.33121" lon="1.09149">
        <ele>64</ele>
        <time>2021-06-23T22:07:23Z</time>
      </trkpt>
      <trkpt lat="47.33122" lon="1.09163">
        <ele>63</ele>
        <time>2021-06-23T22:07:24Z</time>
      </trkpt>
      <trkpt lat="47.33124" lon="1.09191">
        <ele>63</ele>
        <time>2021-06-23T22:07:28Z</time>
      </trkpt>
      <trkpt lat="47.33123" lon="1.09203">
        <ele>63</ele>
        <time>2021-06-23T22:07:29Z</time>
      </trkpt>
      <trkpt lat="47.33108" lon="1.09262">
        <ele>62</ele>
        <time>2021-06-23T22:07:37Z</time>
      </trkpt>
      <trkpt lat="47.33107" lon="1.09279">
        <ele>62</ele>
        <time>2021-06-23T22:07:39Z</time>
      </trkpt>
      <trkpt lat="47.33107" lon="1.09292">
        <ele>62</ele>
        <time>2021-06-23T22:07:41Z</time>
      </trkpt>
      <trkpt lat="47.33114" lon="1.0934">
        <ele>64</ele>
        <time>2021-06-23T22:07:46Z</time>
      </trkpt>
      <trkpt lat="47.33119" lon="1.09406">
        <ele>65</ele>
        <time>2021-06-23T22:07:54Z</time>
      </trkpt>
      <trkpt lat="47.33119" lon="1.09523">
        <ele>64</ele>
        <time>2021-06-23T22:08:09Z</time>
      </trkpt>
      <trkpt lat="47.33122" lon="1.0958">
        <ele>64</ele>
        <time>2021-06-23T22:08:15Z</time>
      </trkpt>
      <trkpt lat="47.33125" lon="1.09608">
        <ele>64</ele>
        <time>2021-06-23T22:08:19Z</time>
      </trkpt>
      <trkpt lat="47.33136" lon="1.09663">
        <ele>65</ele>
        <time>2021-06-23T22:08:26Z</time>
      </trkpt>
      <trkpt lat="47.33135" lon="1.09774">
        <ele>64</ele>
        <time>2021-06-23T22:08:39Z</time>
      </trkpt>
      <trkpt lat="47.33151" lon="1.09927">
        <ele>63</ele>
        <time>2021-06-23T22:08:58Z</time>
      </trkpt>
      <trkpt lat="47.33167" lon="1.10122">
        <ele>62</ele>
        <time>2021-06-23T22:09:22Z</time>
      </trkpt>
      <trkpt lat="47.33187" lon="1.10267">
        <ele>62</ele>
        <time>2021-06-23T22:09:39Z</time>
      </trkpt>
      <trkpt lat="47.33217" lon="1.10415">
        <ele>64</ele>
        <time>2021-06-23T22:09:58Z</time>
      </trkpt>
      <trkpt lat="47.33239" lon="1.10538">
        <ele>66</ele>
        <time>2021-06-23T22:10:13Z</time>
      </trkpt>
      <trkpt lat="47.33253" lon="1.10634">
        <ele>65</ele>
        <time>2021-06-23T22:10:25Z</time>
      </trkpt>
      <trkpt lat="47.33312" lon="1.10963">
        <ele>74</ele>
        <time>2021-06-23T22:11:06Z</time>
      </trkpt>
      <trkpt lat="47.33329" lon="1.11071">
        <ele>70</ele>
        <time>2021-06-23T22:11:20Z</time>
      </trkpt>
      <trkpt lat="47.33348" lon="1.11211">
        <ele>72</ele>
        <time>2021-06-23T22:11:37Z</time>
      </trkpt>
      <trkpt lat="47.33368" lon="1.1139">
        <ele>73</ele>
        <time>2021-06-23T22:11:59Z</time>
      </trkpt>
      <trkpt lat="47.33405" lon="1.11671">
        <ele>68</ele>
        <time>2021-06-23T22:12:33Z</time>
      </trkpt>
      <trkpt lat="47.33409" lon="1.11724">
        <ele>68</ele>
        <time>2021-06-23T22:12:40Z</time>
      </trkpt>
      <trkpt lat="47.33419" lon="1.11951">
        <ele>67</ele>
        <time>2021-06-23T22:13:07Z</time>
      </trkpt>
      <trkpt lat="47.33422" lon="1.11996">
        <ele>66</ele>
        <time>2021-06-23T22:13:13Z</time>
      </trkpt>
      <trkpt lat="47.33445" lon="1.12248">
        <ele>65</ele>
        <time>2021-06-23T22:13:43Z</time>
      </trkpt>
      <trkpt lat="47.33456" lon="1.12342">
        <ele>66</ele>
        <time>2021-06-23T22:13:55Z</time>
      </trkpt>
      <trkpt lat="47.33463" lon="1.12386">
        <ele>67</ele>
        <time>2021-06-23T22:14:00Z</time>
      </trkpt>
      <trkpt lat="47.33486" lon="1.12484">
        <ele>70</ele>
        <time>2021-06-23T22:14:13Z</time>
      </trkpt>
      <trkpt lat="47.33492" lon="1.12534">
        <ele>69</ele>
        <time>2021-06-23T22:14:19Z</time>
      </trkpt>
      <trkpt lat="47.33502" lon="1.12746">
        <ele>67</ele>
        <time>2021-06-23T22:14:44Z</time>
      </trkpt>
      <trkpt lat="47.33505" lon="1.12775">
        <ele>67</ele>
        <time>2021-06-23T22:14:48Z</time>
      </trkpt>
      <trkpt lat="47.3351" lon="1.12814">
        <ele>67</ele>
        <time>2021-06-23T22:14:53Z</time>
      </trkpt>
      <trkpt lat="47.33525" lon="1.12901">
        <ele>67</ele>
        <time>2021-06-23T22:15:04Z</time>
      </trkpt>
      <trkpt lat="47.33553" lon="1.13031">
        <ele>69</ele>
        <time>2021-06-23T22:15:20Z</time>
      </trkpt>
      <trkpt lat="47.33561" lon="1.13161">
        <ele>67</ele>
        <time>2021-06-23T22:15:36Z</time>
      </trkpt>
      <trkpt lat="47.33583" lon="1.13281">
        <ele>68</ele>
        <time>2021-06-23T22:15:51Z</time>
      </trkpt>
      <trkpt lat="47.3359" lon="1.13343">
        <ele>66</ele>
        <time>2021-06-23T22:15:58Z</time>
      </trkpt>
      <trkpt lat="47.33592" lon="1.13382">
        <ele>66</ele>
        <time>2021-06-23T22:16:03Z</time>
      </trkpt>
      <trkpt lat="47.33593" lon="1.13463">
        <ele>67</ele>
        <time>2021-06-23T22:16:13Z</time>
      </trkpt>
      <trkpt lat="47.33592" lon="1.13501">
        <ele>68</ele>
        <time>2021-06-23T22:16:17Z</time>
      </trkpt>
      <trkpt lat="47.33592" lon="1.13545">
        <ele>68</ele>
        <time>2021-06-23T22:16:23Z</time>
      </trkpt>
      <trkpt lat="47.33598" lon="1.13602">
        <ele>68</ele>
        <time>2021-06-23T22:16:30Z</time>
      </trkpt>
      <trkpt lat="47.33617" lon="1.13715">
        <ele>69</ele>
        <time>2021-06-23T22:16:44Z</time>
      </trkpt>
      <trkpt lat="47.33627" lon="1.13756">
        <ele>68</ele>
        <time>2021-06-23T22:16:49Z</time>
      </trkpt>
      <trkpt lat="47.33644" lon="1.13804">
        <ele>68</ele>
        <time>2021-06-23T22:16:55Z</time>
      </trkpt>
      <trkpt lat="47.33689" lon="1.13908">
        <ele>70</ele>
        <time>2021-06-23T22:17:10Z</time>
      </trkpt>
      <trkpt lat="47.33706" lon="1.13959">
        <ele>73</ele>
        <time>2021-06-23T22:17:17Z</time>
      </trkpt>
      <trkpt lat="47.33902" lon="1.14778">
        <ele>69</ele>
        <time>2021-06-23T22:19:02Z</time>
      </trkpt>
      <trkpt lat="47.33916" lon="1.14845">
        <ele>66</ele>
        <time>2021-06-23T22:19:10Z</time>
      </trkpt>
      <trkpt lat="47.33935" lon="1.14978">
        <ele>69</ele>
        <time>2021-06-23T22:19:27Z</time>
      </trkpt>
      <trkpt lat="47.33986" lon="1.1535">
        <ele>62</ele>
        <time>2021-06-23T22:20:13Z</time>
      </trkpt>
      <trkpt lat="47.33991" lon="1.15377">
        <ele>62</ele>
        <time>2021-06-23T22:20:16Z</time>
      </trkpt>
      <trkpt lat="47.34016" lon="1.15498">
        <ele>63</ele>
        <time>2021-06-23T22:20:31Z</time>
      </trkpt>
      <trkpt lat="47.34158" lon="1.16101">
        <ele>67</ele>
        <time>2021-06-23T22:21:48Z</time>
      </trkpt>
      <trkpt lat="47.34168" lon="1.16163">
        <ele>66</ele>
        <time>2021-06-23T22:21:56Z</time>
      </trkpt>
      <trkpt lat="47.34171" lon="1.16186">
        <ele>66</ele>
        <time>2021-06-23T22:21:59Z</time>
      </trkpt>
      <trkpt lat="47.34177" lon="1.16272">
        <ele>67</ele>
        <time>2021-06-23T22:22:09Z</time>
      </trkpt>
      <trkpt lat="47.34184" lon="1.16326">
        <ele>67</ele>
        <time>2021-06-23T22:22:16Z</time>
      </trkpt>
      <trkpt lat="47.34194" lon="1.16376">
        <ele>66</ele>
        <time>2021-06-23T22:22:22Z</time>
      </trkpt>
      <trkpt lat="47.34195" lon="1.16392">
        <ele>66</ele>
        <time>2021-06-23T22:22:24Z</time>
      </trkpt>
      <trkpt lat="47.34195" lon="1.16421">
        <ele>65</ele>
        <time>2021-06-23T22:22:27Z</time>
      </trkpt>
      <trkpt lat="47.34185" lon="1.16482">
        <ele>64</ele>
        <time>2021-06-23T22:22:35Z</time>
      </trkpt>
      <trkpt lat="47.34186" lon="1.16521">
        <ele>64</ele>
        <time>2021-06-23T22:22:40Z</time>
      </trkpt>
      <trkpt lat="47.34202" lon="1.16609">
        <ele>65</ele>
        <time>2021-06-23T22:22:51Z</time>
      </trkpt>
      <trkpt lat="47.34205" lon="1.16636">
        <ele>65</ele>
        <time>2021-06-23T22:22:54Z</time>
      </trkpt>
      <trkpt lat="47.34232" lon="1.17041">
        <ele>67</ele>
        <time>2021-06-23T22:23:43Z</time>
      </trkpt>
      <trkpt lat="47.34233" lon="1.17077">
        <ele>66</ele>
        <time>2021-06-23T22:23:47Z</time>
      </trkpt>
      <trkpt lat="47.34225" lon="1.1798">
        <ele>64</ele>
        <time>2021-06-23T22:25:36Z</time>
      </trkpt>
      <trkpt lat="47.34226" lon="1.1802">
        <ele>64</ele>
        <time>2021-06-23T22:25:41Z</time>
      </trkpt>
      <trkpt lat="47.3423" lon="1.18052">
        <ele>64</ele>
        <time>2021-06-23T22:25:45Z</time>
      </trkpt>
      <trkpt lat="47.34236" lon="1.18084">
        <ele>63</ele>
        <time>2021-06-23T22:25:49Z</time>
      </trkpt>
      <trkpt lat="47.34277" lon="1.18245">
        <ele>65</ele>
        <time>2021-06-23T22:26:10Z</time>
      </trkpt>
      <trkpt lat="47.3428" lon="1.18264">
        <ele>66</ele>
        <time>2021-06-23T22:26:12Z</time>
      </trkpt>
      <trkpt lat="47.34203" lon="1.18286">
        <ele>62</ele>
        <time>2021-06-23T22:26:26Z</time>
      </trkpt>
      <trkpt lat="47.34194" lon="1.18294">
        <ele>62</ele>
        <time>2021-06-23T22:26:28Z</time>
      </trkpt>
      <trkpt lat="47.34193" lon="1.18302">
        <ele>62</ele>
        <time>2021-06-23T22:26:29Z</time>
      </trkpt>
      <trkpt lat="47.3421" lon="1.18496">
        <ele>63</ele>
        <time>2021-06-23T22:26:52Z</time>
      </trkpt>
      <trkpt lat="47.34222" lon="1.18668">
        <ele>62</ele>
        <time>2021-06-23T22:27:13Z</time>
      </trkpt>
      <trkpt lat="47.34222" lon="1.18677">
        <ele>62</ele>
        <time>2021-06-23T22:27:14Z</time>
      </trkpt>
      <trkpt lat="47.34222" lon="1.18687">
        <ele>62</ele>
        <time>2021-06-23T22:27:16Z</time>
      </trkpt>
      <trkpt lat="47.34222" lon="1.18709">
        <ele>62</ele>
        <time>2021-06-23T22:27:18Z</time>
      </trkpt>
      <trkpt lat="47.34224" lon="1.18749">
        <ele>63</ele>
        <time>2021-06-23T22:27:23Z</time>
      </trkpt>
      <trkpt lat="47.34235" lon="1.18831">
        <ele>62</ele>
        <time>2021-06-23T22:27:33Z</time>
      </trkpt>
      <trkpt lat="47.34237" lon="1.18843">
        <ele>62</ele>
        <time>2021-06-23T22:27:35Z</time>
      </trkpt>
      <trkpt lat="47.34242" lon="1.18851">
        <ele>62</ele>
        <time>2021-06-23T22:27:36Z</time>
      </trkpt>
      <trkpt lat="47.34244" lon="1.18853">
        <ele>62</ele>
        <time>2021-06-23T22:27:36Z</time>
      </trkpt>
      <trkpt lat="47.3425" lon="1.18853">
        <ele>63</ele>
        <time>2021-06-23T22:27:37Z</time>
      </trkpt>
      <trkpt lat="47.34311" lon="1.18815">
        <ele>69</ele>
        <time>2021-06-23T22:27:49Z</time>
      </trkpt>
      <trkpt lat="47.34325" lon="1.1881">
        <ele>70</ele>
        <time>2021-06-23T22:27:52Z</time>
      </trkpt>
      <trkpt lat="47.34342" lon="1.18898">
        <ele>71</ele>
        <time>2021-06-23T22:28:03Z</time>
      </trkpt>
      <trkpt lat="47.3435" lon="1.18942">
        <ele>71</ele>
        <time>2021-06-23T22:28:08Z</time>
      </trkpt>
      <trkpt lat="47.34361" lon="1.19003">
        <ele>72</ele>
        <time>2021-06-23T22:28:16Z</time>
      </trkpt>
      <trkpt lat="47.34367" lon="1.19032">
        <ele>71</ele>
        <time>2021-06-23T22:28:20Z</time>
      </trkpt>
      <trkpt lat="47.34397" lon="1.19193">
        <ele>68</ele>
        <time>2021-06-23T22:28:40Z</time>
      </trkpt>
      <trkpt lat="47.34399" lon="1.19202">
        <ele>67</ele>
        <time>2021-06-23T22:28:41Z</time>
      </trkpt>
      <trkpt lat="47.34401" lon="1.1921">
        <ele>67</ele>
        <time>2021-06-23T22:28:42Z</time>
      </trkpt>
      <trkpt lat="47.34407" lon="1.19246">
        <ele>67</ele>
        <time>2021-06-23T22:28:46Z</time>
      </trkpt>
      <trkpt lat="47.34427" lon="1.1935">
        <ele>70</ele>
        <time>2021-06-23T22:28:59Z</time>
      </trkpt>
      <trkpt lat="47.34439" lon="1.19466">
        <ele>73</ele>
        <time>2021-06-23T22:29:14Z</time>
      </trkpt>
      <trkpt lat="47.34456" lon="1.19634">
        <ele>75</ele>
        <time>2021-06-23T22:29:34Z</time>
      </trkpt>
      <trkpt lat="47.34466" lon="1.19717">
        <ele>75</ele>
        <time>2021-06-23T22:29:44Z</time>
      </trkpt>
      <trkpt lat="47.34473" lon="1.19783">
        <ele>74</ele>
        <time>2021-06-23T22:29:52Z</time>
      </trkpt>
      <trkpt lat="47.34477" lon="1.19825">
        <ele>73</ele>
        <time>2021-06-23T22:29:57Z</time>
      </trkpt>
      <trkpt lat="47.34494" lon="1.20002">
        <ele>70</ele>
        <time>2021-06-23T22:30:19Z</time>
      </trkpt>
      <trkpt lat="47.34503" lon="1.2008">
        <ele>71</ele>
        <time>2021-06-23T22:30:28Z</time>
      </trkpt>
      <trkpt lat="47.34505" lon="1.20092">
        <ele>71</ele>
        <time>2021-06-23T22:30:30Z</time>
      </trkpt>
      <trkpt lat="47.34508" lon="1.20114">
        <ele>72</ele>
        <time>2021-06-23T22:30:33Z</time>
      </trkpt>
      <trkpt lat="47.34518" lon="1.20174">
        <ele>73</ele>
        <time>2021-06-23T22:30:40Z</time>
      </trkpt>
      <trkpt lat="47.34528" lon="1.20218">
        <ele>73</ele>
        <time>2021-06-23T22:30:46Z</time>
      </trkpt>
      <trkpt lat="47.34532" lon="1.20238">
        <ele>73</ele>
        <time>2021-06-23T22:30:48Z</time>
      </trkpt>
      <trkpt lat="47.34536" lon="1.2028">
        <ele>73</ele>
        <time>2021-06-23T22:30:53Z</time>
      </trkpt>
      <trkpt lat="47.34538" lon="1.20321">
        <ele>72</ele>
        <time>2021-06-23T22:30:58Z</time>
      </trkpt>
      <trkpt lat="47.34528" lon="1.20605">
        <ele>69</ele>
        <time>2021-06-23T22:31:33Z</time>
      </trkpt>
      <trkpt lat="47.34529" lon="1.20641">
        <ele>68</ele>
        <time>2021-06-23T22:31:37Z</time>
      </trkpt>
      <trkpt lat="47.3453" lon="1.20657">
        <ele>68</ele>
        <time>2021-06-23T22:31:39Z</time>
      </trkpt>
      <trkpt lat="47.34532" lon="1.20675">
        <ele>69</ele>
        <time>2021-06-23T22:31:41Z</time>
      </trkpt>
      <trkpt lat="47.34551" lon="1.20799">
        <ele>69</ele>
        <time>2021-06-23T22:31:56Z</time>
      </trkpt>
      <trkpt lat="47.34569" lon="1.20908">
        <ele>67</ele>
        <time>2021-06-23T22:32:10Z</time>
      </trkpt>
      <trkpt lat="47.34575" lon="1.20949">
        <ele>67</ele>
        <time>2021-06-23T22:32:15Z</time>
      </trkpt>
      <trkpt lat="47.34578" lon="1.20976">
        <ele>66</ele>
        <time>2021-06-23T22:32:18Z</time>
      </trkpt>
      <trkpt lat="47.34579" lon="1.20995">
        <ele>66</ele>
        <time>2021-06-23T22:32:21Z</time>
      </trkpt>
      <trkpt lat="47.3458" lon="1.21014">
        <ele>66</ele>
        <time>2021-06-23T22:32:23Z</time>
      </trkpt>
      <trkpt lat="47.34578" lon="1.21064">
        <ele>68</ele>
        <time>2021-06-23T22:32:29Z</time>
      </trkpt>
      <trkpt lat="47.34571" lon="1.2115">
        <ele>73</ele>
        <time>2021-06-23T22:32:39Z</time>
      </trkpt>
      <trkpt lat="47.3457" lon="1.2116">
        <ele>73</ele>
        <time>2021-06-23T22:32:41Z</time>
      </trkpt>
      <trkpt lat="47.3457" lon="1.21166">
        <ele>74</ele>
        <time>2021-06-23T22:32:41Z</time>
      </trkpt>
      <trkpt lat="47.3457" lon="1.21195">
        <ele>73</ele>
        <time>2021-06-23T22:32:45Z</time>
      </trkpt>
      <trkpt lat="47.34571" lon="1.21213">
        <ele>73</ele>
        <time>2021-06-23T22:32:47Z</time>
      </trkpt>
      <trkpt lat="47.34579" lon="1.21317">
        <ele>72</ele>
        <time>2021-06-23T22:33:00Z</time>
      </trkpt>
      <trkpt lat="47.34581" lon="1.21344">
        <ele>71</ele>
        <time>2021-06-23T22:33:03Z</time>
      </trkpt>
      <trkpt lat="47.34585" lon="1.21381">
        <ele>71</ele>
        <time>2021-06-23T22:33:07Z</time>
      </trkpt>
      <trkpt lat="47.34586" lon="1.21391">
        <ele>71</ele>
        <time>2021-06-23T22:33:09Z</time>
      </trkpt>
      <trkpt lat="47.34588" lon="1.21405">
        <ele>71</ele>
        <time>2021-06-23T22:33:10Z</time>
      </trkpt>
      <trkpt lat="47.34603" lon="1.21501">
        <ele>71</ele>
        <time>2021-06-23T22:33:22Z</time>
      </trkpt>
      <trkpt lat="47.3461" lon="1.21559">
        <ele>72</ele>
        <time>2021-06-23T22:33:29Z</time>
      </trkpt>
      <trkpt lat="47.3461" lon="1.216">
        <ele>72</ele>
        <time>2021-06-23T22:33:34Z</time>
      </trkpt>
      <trkpt lat="47.34608" lon="1.21648">
        <ele>73</ele>
        <time>2021-06-23T22:33:40Z</time>
      </trkpt>
      <trkpt lat="47.34596" lon="1.21792">
        <ele>70</ele>
        <time>2021-06-23T22:33:58Z</time>
      </trkpt>
      <trkpt lat="47.34595" lon="1.21806">
        <ele>70</ele>
        <time>2021-06-23T22:33:59Z</time>
      </trkpt>
      <trkpt lat="47.34591" lon="1.21846">
        <ele>69</ele>
        <time>2021-06-23T22:34:04Z</time>
      </trkpt>
      <trkpt lat="47.34586" lon="1.21879">
        <ele>69</ele>
        <time>2021-06-23T22:34:08Z</time>
      </trkpt>
      <trkpt lat="47.34578" lon="1.21936">
        <ele>69</ele>
        <time>2021-06-23T22:34:15Z</time>
      </trkpt>
      <trkpt lat="47.34577" lon="1.21943">
        <ele>69</ele>
        <time>2021-06-23T22:34:16Z</time>
      </trkpt>
      <trkpt lat="47.34575" lon="1.21966">
        <ele>69</ele>
        <time>2021-06-23T22:34:19Z</time>
      </trkpt>
      <trkpt lat="47.34576" lon="1.21995">
        <ele>69</ele>
        <time>2021-06-23T22:34:22Z</time>
      </trkpt>
      <trkpt lat="47.34581" lon="1.222">
        <ele>69</ele>
        <time>2021-06-23T22:34:47Z</time>
      </trkpt>
      <trkpt lat="47.34581" lon="1.2221">
        <ele>69</ele>
        <time>2021-06-23T22:34:48Z</time>
      </trkpt>
      <trkpt lat="47.34581" lon="1.22258">
        <ele>70</ele>
        <time>2021-06-23T22:34:54Z</time>
      </trkpt>
      <trkpt lat="47.34582" lon="1.22271">
        <ele>70</ele>
        <time>2021-06-23T22:34:56Z</time>
      </trkpt>
      <trkpt lat="47.34582" lon="1.22285">
        <ele>70</ele>
        <time>2021-06-23T22:34:57Z</time>
      </trkpt>
      <trkpt lat="47.34582" lon="1.22297">
        <ele>70</ele>
        <time>2021-06-23T22:34:59Z</time>
      </trkpt>
      <trkpt lat="47.3458" lon="1.22321">
        <ele>70</ele>
        <time>2021-06-23T22:35:02Z</time>
      </trkpt>
      <trkpt lat="47.34575" lon="1.22353">
        <ele>69</ele>
        <time>2021-06-23T22:35:06Z</time>
      </trkpt>
      <trkpt lat="47.3457" lon="1.22393">
        <ele>68</ele>
        <time>2021-06-23T22:35:11Z</time>
      </trkpt>
      <trkpt lat="47.34569" lon="1.22419">
        <ele>68</ele>
        <time>2021-06-23T22:35:14Z</time>
      </trkpt>
      <trkpt lat="47.34569" lon="1.2246">
        <ele>68</ele>
        <time>2021-06-23T22:35:19Z</time>
      </trkpt>
      <trkpt lat="47.3457" lon="1.22515">
        <ele>67</ele>
        <time>2021-06-23T22:35:25Z</time>
      </trkpt>
      <trkpt lat="47.3457" lon="1.22566">
        <ele>67</ele>
        <time>2021-06-23T22:35:31Z</time>
      </trkpt>
      <trkpt lat="47.3457" lon="1.22575">
        <ele>68</ele>
        <time>2021-06-23T22:35:33Z</time>
      </trkpt>
      <trkpt lat="47.34571" lon="1.22624">
        <ele>68</ele>
        <time>2021-06-23T22:35:38Z</time>
      </trkpt>
      <trkpt lat="47.3457" lon="1.22664">
        <ele>68</ele>
        <time>2021-06-23T22:35:43Z</time>
      </trkpt>
      <trkpt lat="47.3457" lon="1.22684">
        <ele>69</ele>
        <time>2021-06-23T22:35:46Z</time>
      </trkpt>
      <trkpt lat="47.34567" lon="1.22715">
        <ele>70</ele>
        <time>2021-06-23T22:35:49Z</time>
      </trkpt>
      <trkpt lat="47.34559" lon="1.22751">
        <ele>70</ele>
        <time>2021-06-23T22:35:54Z</time>
      </trkpt>
      <trkpt lat="47.34556" lon="1.2276">
        <ele>71</ele>
        <time>2021-06-23T22:35:55Z</time>
      </trkpt>
      <trkpt lat="47.34537" lon="1.22844">
        <ele>74</ele>
        <time>2021-06-23T22:36:06Z</time>
      </trkpt>
      <trkpt lat="47.34525" lon="1.22898">
        <ele>74</ele>
        <time>2021-06-23T22:36:13Z</time>
      </trkpt>
      <trkpt lat="47.34524" lon="1.22907">
        <ele>74</ele>
        <time>2021-06-23T22:36:14Z</time>
      </trkpt>
      <trkpt lat="47.34522" lon="1.22924">
        <ele>73</ele>
        <time>2021-06-23T22:36:16Z</time>
      </trkpt>
      <trkpt lat="47.3452" lon="1.22943">
        <ele>73</ele>
        <time>2021-06-23T22:36:18Z</time>
      </trkpt>
      <trkpt lat="47.34519" lon="1.22952">
        <ele>73</ele>
        <time>2021-06-23T22:36:19Z</time>
      </trkpt>
      <trkpt lat="47.34518" lon="1.2296">
        <ele>73</ele>
        <time>2021-06-23T22:36:20Z</time>
      </trkpt>
      <trkpt lat="47.3451" lon="1.2305">
        <ele>72</ele>
        <time>2021-06-23T22:36:31Z</time>
      </trkpt>
      <trkpt lat="47.34489" lon="1.23292">
        <ele>69</ele>
        <time>2021-06-23T22:37:01Z</time>
      </trkpt>
      <trkpt lat="47.34475" lon="1.23443">
        <ele>73</ele>
        <time>2021-06-23T22:37:19Z</time>
      </trkpt>
      <trkpt lat="47.34472" lon="1.23483">
        <ele>74</ele>
        <time>2021-06-23T22:37:24Z</time>
      </trkpt>
      <trkpt lat="47.34471" lon="1.23488">
        <ele>74</ele>
        <time>2021-06-23T22:37:25Z</time>
      </trkpt>
      <trkpt lat="47.34463" lon="1.2356">
        <ele>75</ele>
        <time>2021-06-23T22:37:33Z</time>
      </trkpt>
      <trkpt lat="47.34453" lon="1.23607">
        <ele>75</ele>
        <time>2021-06-23T22:37:39Z</time>
      </trkpt>
      <trkpt lat="47.34426" lon="1.23706">
        <ele>72</ele>
        <time>2021-06-23T22:37:52Z</time>
      </trkpt>
      <trkpt lat="47.34419" lon="1.23736">
        <ele>70</ele>
        <time>2021-06-23T22:37:56Z</time>
      </trkpt>
      <trkpt lat="47.34415" lon="1.2377">
        <ele>70</ele>
        <time>2021-06-23T22:38:00Z</time>
      </trkpt>
      <trkpt lat="47.34414" lon="1.2379">
        <ele>69</ele>
        <time>2021-06-23T22:38:03Z</time>
      </trkpt>
      <trkpt lat="47.3441" lon="1.23987">
        <ele>69</ele>
        <time>2021-06-23T22:38:26Z</time>
      </trkpt>
      <trkpt lat="47.34405" lon="1.24068">
        <ele>73</ele>
        <time>2021-06-23T22:38:36Z</time>
      </trkpt>
      <trkpt lat="47.34394" lon="1.24139">
        <ele>77</ele>
        <time>2021-06-23T22:38:45Z</time>
      </trkpt>
      <trkpt lat="47.3431" lon="1.24606">
        <ele>74</ele>
        <time>2021-06-23T22:39:43Z</time>
      </trkpt>
      <trkpt lat="47.34289" lon="1.24741">
        <ele>76</ele>
        <time>2021-06-23T22:40:00Z</time>
      </trkpt>
      <trkpt lat="47.3422" lon="1.253">
        <ele>69</ele>
        <time>2021-06-23T22:41:08Z</time>
      </trkpt>
      <trkpt lat="47.34211" lon="1.25355">
        <ele>69</ele>
        <time>2021-06-23T22:41:15Z</time>
      </trkpt>
      <trkpt lat="47.34193" lon="1.25437">
        <ele>71</ele>
        <time>2021-06-23T22:41:26Z</time>
      </trkpt>
      <trkpt lat="47.34182" lon="1.25492">
        <ele>73</ele>
        <time>2021-06-23T22:41:32Z</time>
      </trkpt>
      <trkpt lat="47.34136" lon="1.25862">
        <ele>69</ele>
        <time>2021-06-23T22:42:18Z</time>
      </trkpt>
      <trkpt lat="47.34128" lon="1.25907">
        <ele>69</ele>
        <time>2021-06-23T22:42:23Z</time>
      </trkpt>
      <trkpt lat="47.34115" lon="1.25951">
        <ele>67</ele>
        <time>2021-06-23T22:42:29Z</time>
      </trkpt>
      <trkpt lat="47.34073" lon="1.26063">
        <ele>69</ele>
        <time>2021-06-23T22:42:45Z</time>
      </trkpt>
      <trkpt lat="47.34056" lon="1.26114">
        <ele>72</ele>
        <time>2021-06-23T22:42:52Z</time>
      </trkpt>
      <trkpt lat="47.33925" lon="1.26633">
        <ele>69</ele>
        <time>2021-06-23T22:43:58Z</time>
      </trkpt>
      <trkpt lat="47.33915" lon="1.26671">
        <ele>68</ele>
        <time>2021-06-23T22:44:03Z</time>
      </trkpt>
      <trkpt lat="47.33894" lon="1.2673">
        <ele>68</ele>
        <time>2021-06-23T22:44:11Z</time>
      </trkpt>
      <trkpt lat="47.33888" lon="1.26742">
        <ele>68</ele>
        <time>2021-06-23T22:44:13Z</time>
      </trkpt>
      <trkpt lat="47.33721" lon="1.27146">
        <ele>73</ele>
        <time>2021-06-23T22:45:10Z</time>
      </trkpt>
      <trkpt lat="47.33703" lon="1.27196">
        <ele>72</ele>
        <time>2021-06-23T22:45:17Z</time>
      </trkpt>
      <trkpt lat="47.33686" lon="1.27255">
        <ele>71</ele>
        <time>2021-06-23T22:45:25Z</time>
      </trkpt>
      <trkpt lat="47.33558" lon="1.27734">
        <ele>64</ele>
        <time>2021-06-23T22:46:27Z</time>
      </trkpt>
      <trkpt lat="47.33538" lon="1.27798">
        <ele>63</ele>
        <time>2021-06-23T22:46:35Z</time>
      </trkpt>
      <trkpt lat="47.33521" lon="1.27846">
        <ele>63</ele>
        <time>2021-06-23T22:46:42Z</time>
      </trkpt>
      <trkpt lat="47.33518" lon="1.27852">
        <ele>63</ele>
        <time>2021-06-23T22:46:43Z</time>
      </trkpt>
      <trkpt lat="47.335" lon="1.27901">
        <ele>65</ele>
        <time>2021-06-23T22:46:49Z</time>
      </trkpt>
      <trkpt lat="47.33497" lon="1.2791">
        <ele>65</ele>
        <time>2021-06-23T22:46:51Z</time>
      </trkpt>
      <trkpt lat="47.32824" lon="1.29731">
        <ele>71</ele>
        <time>2021-06-23T22:51:01Z</time>
      </trkpt>
      <trkpt lat="47.32799" lon="1.29793">
        <ele>71</ele>
        <time>2021-06-23T22:51:09Z</time>
      </trkpt>
      <trkpt lat="47.32714" lon="1.2999">
        <ele>69</ele>
        <time>2021-06-23T22:51:38Z</time>
      </trkpt>
      <trkpt lat="47.32689" lon="1.30077">
        <ele>67</ele>
        <time>2021-06-23T22:51:49Z</time>
      </trkpt>
      <trkpt lat="47.32656" lon="1.3022">
        <ele>69</ele>
        <time>2021-06-23T22:52:07Z</time>
      </trkpt>
      <trkpt lat="47.3265" lon="1.30243">
        <ele>69</ele>
        <time>2021-06-23T22:52:10Z</time>
      </trkpt>
      <trkpt lat="47.32639" lon="1.30278">
        <ele>69</ele>
        <time>2021-06-23T22:52:15Z</time>
      </trkpt>
      <trkpt lat="47.32622" lon="1.30321">
        <ele>69</ele>
        <time>2021-06-23T22:52:21Z</time>
      </trkpt>
      <trkpt lat="47.32583" lon="1.30412">
        <ele>69</ele>
        <time>2021-06-23T22:52:34Z</time>
      </trkpt>
      <trkpt lat="47.32543" lon="1.30532">
        <ele>70</ele>
        <time>2021-06-23T22:52:50Z</time>
      </trkpt>
      <trkpt lat="47.32541" lon="1.30545">
        <ele>70</ele>
        <time>2021-06-23T22:52:52Z</time>
      </trkpt>
      <trkpt lat="47.32497" lon="1.30733">
        <ele>71</ele>
        <time>2021-06-23T22:53:16Z</time>
      </trkpt>
      <trkpt lat="47.32489" lon="1.30759">
        <ele>70</ele>
        <time>2021-06-23T22:53:19Z</time>
      </trkpt>
      <trkpt lat="47.32448" lon="1.30863">
        <ele>70</ele>
        <time>2021-06-23T22:53:33Z</time>
      </trkpt>
      <trkpt lat="47.32391" lon="1.30995">
        <ele>70</ele>
        <time>2021-06-23T22:53:52Z</time>
      </trkpt>
      <trkpt lat="47.32377" lon="1.31017">
        <ele>70</ele>
        <time>2021-06-23T22:53:56Z</time>
      </trkpt>
      <trkpt lat="47.32364" lon="1.3105">
        <ele>70</ele>
        <time>2021-06-23T22:54:01Z</time>
      </trkpt>
      <trkpt lat="47.32331" lon="1.3112">
        <ele>70</ele>
        <time>2021-06-23T22:54:11Z</time>
      </trkpt>
      <trkpt lat="47.32262" lon="1.31254">
        <ele>68</ele>
        <time>2021-06-23T22:54:31Z</time>
      </trkpt>
      <trkpt lat="47.32241" lon="1.31328">
        <ele>70</ele>
        <time>2021-06-23T22:54:41Z</time>
      </trkpt>
      <trkpt lat="47.3219" lon="1.3153">
        <ele>69</ele>
        <time>2021-06-23T22:55:07Z</time>
      </trkpt>
      <trkpt lat="47.32182" lon="1.31552">
        <ele>69</ele>
        <time>2021-06-23T22:55:10Z</time>
      </trkpt>
      <trkpt lat="47.32174" lon="1.31568">
        <ele>69</ele>
        <time>2021-06-23T22:55:12Z</time>
      </trkpt>
      <trkpt lat="47.32156" lon="1.3159">
        <ele>69</ele>
        <time>2021-06-23T22:55:16Z</time>
      </trkpt>
      <trkpt lat="47.32134" lon="1.31606">
        <ele>69</ele>
        <time>2021-06-23T22:55:21Z</time>
      </trkpt>
      <trkpt lat="47.32092" lon="1.31632">
        <ele>68</ele>
        <time>2021-06-23T22:55:29Z</time>
      </trkpt>
      <trkpt lat="47.32084" lon="1.31638">
        <ele>68</ele>
        <time>2021-06-23T22:55:30Z</time>
      </trkpt>
      <trkpt lat="47.32079" lon="1.31646">
        <ele>68</ele>
        <time>2021-06-23T22:55:32Z</time>
      </trkpt>
      <trkpt lat="47.32056" lon="1.31704">
        <ele>68</ele>
        <time>2021-06-23T22:55:40Z</time>
      </trkpt>
      <trkpt lat="47.32036" lon="1.31746">
        <ele>70</ele>
        <time>2021-06-23T22:55:46Z</time>
      </trkpt>
      <trkpt lat="47.31666" lon="1.32533">
        <ele>69</ele>
        <time>2021-06-23T22:57:42Z</time>
      </trkpt>
      <trkpt lat="47.31648" lon="1.32575">
        <ele>70</ele>
        <time>2021-06-23T22:57:48Z</time>
      </trkpt>
      <trkpt lat="47.31637" lon="1.32606">
        <ele>70</ele>
        <time>2021-06-23T22:57:52Z</time>
      </trkpt>
      <trkpt lat="47.31591" lon="1.32754">
        <ele>69</ele>
        <time>2021-06-23T22:58:11Z</time>
      </trkpt>
      <trkpt lat="47.31551" lon="1.32897">
        <ele>70</ele>
        <time>2021-06-23T22:58:30Z</time>
      </trkpt>
      <trkpt lat="47.31538" lon="1.32933">
        <ele>70</ele>
        <time>2021-06-23T22:58:35Z</time>
      </trkpt>
      <trkpt lat="47.31446" lon="1.33124">
        <ele>67</ele>
        <time>2021-06-23T22:59:03Z</time>
      </trkpt>
      <trkpt lat="47.31283" lon="1.33475">
        <ele>67</ele>
        <time>2021-06-23T22:59:55Z</time>
      </trkpt>
      <trkpt lat="47.31261" lon="1.33514">
        <ele>67</ele>
        <time>2021-06-23T23:00:01Z</time>
      </trkpt>
      <trkpt lat="47.31246" lon="1.33534">
        <ele>67</ele>
        <time>2021-06-23T23:00:04Z</time>
      </trkpt>
      <trkpt lat="47.31001" lon="1.33773">
        <ele>66</ele>
        <time>2021-06-23T23:00:57Z</time>
      </trkpt>
      <trkpt lat="47.30977" lon="1.33805">
        <ele>65</ele>
        <time>2021-06-23T23:01:02Z</time>
      </trkpt>
      <trkpt lat="47.30968" lon="1.33818">
        <ele>65</ele>
        <time>2021-06-23T23:01:05Z</time>
      </trkpt>
      <trkpt lat="47.30962" lon="1.33829">
        <ele>65</ele>
        <time>2021-06-23T23:01:06Z</time>
      </trkpt>
      <trkpt lat="47.30949" lon="1.3385">
        <ele>65</ele>
        <time>2021-06-23T23:01:10Z</time>
      </trkpt>
      <trkpt lat="47.30932" lon="1.33879">
        <ele>66</ele>
        <time>2021-06-23T23:01:14Z</time>
      </trkpt>
      <trkpt lat="47.30923" lon="1.33893">
        <ele>67</ele>
        <time>2021-06-23T23:01:17Z</time>
      </trkpt>
      <trkpt lat="47.30914" lon="1.33895">
        <ele>67</ele>
        <time>2021-06-23T23:01:18Z</time>
      </trkpt>
      <trkpt lat="47.30905" lon="1.33895">
        <ele>67</ele>
        <time>2021-06-23T23:01:20Z</time>
      </trkpt>
      <trkpt lat="47.30899" lon="1.33891">
        <ele>66</ele>
        <time>2021-06-23T23:01:21Z</time>
      </trkpt>
      <trkpt lat="47.30893" lon="1.33892">
        <ele>66</ele>
        <time>2021-06-23T23:01:22Z</time>
      </trkpt>
      <trkpt lat="47.30884" lon="1.33895">
        <ele>66</ele>
        <time>2021-06-23T23:01:24Z</time>
      </trkpt>
      <trkpt lat="47.30876" lon="1.33894">
        <ele>66</ele>
        <time>2021-06-23T23:01:25Z</time>
      </trkpt>
      <trkpt lat="47.30854" lon="1.33959">
        <ele>67</ele>
        <time>2021-06-23T23:01:34Z</time>
      </trkpt>
      <trkpt lat="47.30837" lon="1.34001">
        <ele>67</ele>
        <time>2021-06-23T23:01:40Z</time>
      </trkpt>
      <trkpt lat="47.30798" lon="1.34083">
        <ele>66</ele>
        <time>2021-06-23T23:01:52Z</time>
      </trkpt>
      <trkpt lat="47.30767" lon="1.34141">
        <ele>67</ele>
        <time>2021-06-23T23:02:01Z</time>
      </trkpt>
      <trkpt lat="47.30741" lon="1.34184">
        <ele>68</ele>
        <time>2021-06-23T23:02:08Z</time>
      </trkpt>
      <trkpt lat="47.30731" lon="1.3417">
        <ele>67</ele>
        <time>2021-06-23T23:02:10Z</time>
      </trkpt>
      <trkpt lat="47.30713" lon="1.34211">
        <ele>67</ele>
        <time>2021-06-23T23:02:16Z</time>
      </trkpt>
      <trkpt lat="47.30382" lon="1.3474">
        <ele>67</ele>
        <time>2021-06-23T23:03:43Z</time>
      </trkpt>
      <trkpt lat="47.30304" lon="1.34867">
        <ele>70</ele>
        <time>2021-06-23T23:04:04Z</time>
      </trkpt>
      <trkpt lat="47.30243" lon="1.34943">
        <ele>69</ele>
        <time>2021-06-23T23:04:18Z</time>
      </trkpt>
      <trkpt lat="47.30217" lon="1.3495">
        <ele>68</ele>
        <time>2021-06-23T23:04:23Z</time>
      </trkpt>
      <trkpt lat="47.30209" lon="1.34958">
        <ele>68</ele>
        <time>2021-06-23T23:04:24Z</time>
      </trkpt>
      <trkpt lat="47.30207" lon="1.34964">
        <ele>68</ele>
        <time>2021-06-23T23:04:25Z</time>
      </trkpt>
      <trkpt lat="47.30218" lon="1.34983">
        <ele>68</ele>
        <time>2021-06-23T23:04:28Z</time>
      </trkpt>
      <trkpt lat="47.30216" lon="1.34986">
        <ele>68</ele>
        <time>2021-06-23T23:04:29Z</time>
      </trkpt>
      <trkpt lat="47.30213" lon="1.35002">
        <ele>68</ele>
        <time>2021-06-23T23:04:31Z</time>
      </trkpt>
      <trkpt lat="47.30213" lon="1.35007">
        <ele>68</ele>
        <time>2021-06-23T23:04:31Z</time>
      </trkpt>
      <trkpt lat="47.30213" lon="1.35015">
        <ele>68</ele>
        <time>2021-06-23T23:04:32Z</time>
      </trkpt>
      <trkpt lat="47.3021" lon="1.35033">
        <ele>68</ele>
        <time>2021-06-23T23:04:34Z</time>
      </trkpt>
      <trkpt lat="47.30199" lon="1.35055">
        <ele>69</ele>
        <time>2021-06-23T23:04:38Z</time>
      </trkpt>
      <trkpt lat="47.3018" lon="1.35092">
        <ele>69</ele>
        <time>2021-06-23T23:04:43Z</time>
      </trkpt>
      <trkpt lat="47.30155" lon="1.35139">
        <ele>68</ele>
        <time>2021-06-23T23:04:51Z</time>
      </trkpt>
      <trkpt lat="47.30092" lon="1.35271">
        <ele>67</ele>
        <time>2021-06-23T23:05:10Z</time>
      </trkpt>
      <trkpt lat="47.30034" lon="1.35393">
        <ele>70</ele>
        <time>2021-06-23T23:05:28Z</time>
      </trkpt>
      <trkpt lat="47.29997" lon="1.35473">
        <ele>71</ele>
        <time>2021-06-23T23:05:40Z</time>
      </trkpt>
      <trkpt lat="47.29783" lon="1.35927">
        <ele>70</ele>
        <time>2021-06-23T23:06:46Z</time>
      </trkpt>
      <trkpt lat="47.29748" lon="1.36001">
        <ele>70</ele>
        <time>2021-06-23T23:06:57Z</time>
      </trkpt>
      <trkpt lat="47.29723" lon="1.36051">
        <ele>70</ele>
        <time>2021-06-23T23:07:05Z</time>
      </trkpt>
      <trkpt lat="47.29689" lon="1.36112">
        <ele>69</ele>
        <time>2021-06-23T23:07:14Z</time>
      </trkpt>
      <trkpt lat="47.29664" lon="1.36148">
        <ele>68</ele>
        <time>2021-06-23T23:07:21Z</time>
      </trkpt>
      <trkpt lat="47.29627" lon="1.36193">
        <ele>68</ele>
        <time>2021-06-23T23:07:29Z</time>
      </trkpt>
      <trkpt lat="47.29599" lon="1.36221">
        <ele>69</ele>
        <time>2021-06-23T23:07:35Z</time>
      </trkpt>
      <trkpt lat="47.29442" lon="1.36367">
        <ele>67</ele>
        <time>2021-06-23T23:08:08Z</time>
      </trkpt>
      <trkpt lat="47.28899" lon="1.36865">
        <ele>64</ele>
        <time>2021-06-23T23:10:02Z</time>
      </trkpt>
      <trkpt lat="47.28775" lon="1.36977">
        <ele>66</ele>
        <time>2021-06-23T23:10:28Z</time>
      </trkpt>
      <trkpt lat="47.28764" lon="1.36984">
        <ele>66</ele>
        <time>2021-06-23T23:10:30Z</time>
      </trkpt>
      <trkpt lat="47.28555" lon="1.37176">
        <ele>67</ele>
        <time>2021-06-23T23:11:14Z</time>
      </trkpt>
      <trkpt lat="47.28543" lon="1.37187">
        <ele>67</ele>
        <time>2021-06-23T23:11:16Z</time>
      </trkpt>
      <trkpt lat="47.28502" lon="1.37225">
        <ele>67</ele>
        <time>2021-06-23T23:11:25Z</time>
      </trkpt>
      <trkpt lat="47.28431" lon="1.37289">
        <ele>67</ele>
        <time>2021-06-23T23:11:40Z</time>
      </trkpt>
      <trkpt lat="47.28405" lon="1.37314">
        <ele>67</ele>
        <time>2021-06-23T23:11:45Z</time>
      </trkpt>
      <trkpt lat="47.28266" lon="1.37442">
        <ele>68</ele>
        <time>2021-06-23T23:12:14Z</time>
      </trkpt>
      <trkpt lat="47.28229" lon="1.37479">
        <ele>68</ele>
        <time>2021-06-23T23:12:22Z</time>
      </trkpt>
      <trkpt lat="47.28195" lon="1.37509">
        <ele>67</ele>
        <time>2021-06-23T23:12:29Z</time>
      </trkpt>
      <trkpt lat="47.28107" lon="1.37589">
        <ele>69</ele>
        <time>2021-06-23T23:12:48Z</time>
      </trkpt>
      <trkpt lat="47.2806" lon="1.37633">
        <ele>69</ele>
        <time>2021-06-23T23:12:58Z</time>
      </trkpt>
      <trkpt lat="47.27972" lon="1.37714">
        <ele>68</ele>
        <time>2021-06-23T23:13:16Z</time>
      </trkpt>
      <trkpt lat="47.27954" lon="1.3773">
        <ele>69</ele>
        <time>2021-06-23T23:13:20Z</time>
      </trkpt>
      <trkpt lat="47.27905" lon="1.37776">
        <ele>69</ele>
        <time>2021-06-23T23:13:30Z</time>
      </trkpt>
      <trkpt lat="47.2789" lon="1.37791">
        <ele>69</ele>
        <time>2021-06-23T23:13:33Z</time>
      </trkpt>
      <trkpt lat="47.27885" lon="1.37796">
        <ele>69</ele>
        <time>2021-06-23T23:13:35Z</time>
      </trkpt>
      <trkpt lat="47.27872" lon="1.37808">
        <ele>69</ele>
        <time>2021-06-23T23:13:37Z</time>
      </trkpt>
      <trkpt lat="47.27865" lon="1.37814">
        <ele>69</ele>
        <time>2021-06-23T23:13:39Z</time>
      </trkpt>
      <trkpt lat="47.27849" lon="1.37824">
        <ele>70</ele>
        <time>2021-06-23T23:13:42Z</time>
      </trkpt>
      <trkpt lat="47.27836" lon="1.37831">
        <ele>70</ele>
        <time>2021-06-23T23:13:44Z</time>
      </trkpt>
      <trkpt lat="47.27826" lon="1.37835">
        <ele>70</ele>
        <time>2021-06-23T23:13:46Z</time>
      </trkpt>
      <trkpt lat="47.27821" lon="1.37831">
        <ele>70</ele>
        <time>2021-06-23T23:13:47Z</time>
      </trkpt>
      <trkpt lat="47.2781" lon="1.3783">
        <ele>70</ele>
        <time>2021-06-23T23:13:49Z</time>
      </trkpt>
      <trkpt lat="47.27804" lon="1.37833">
        <ele>70</ele>
        <time>2021-06-23T23:13:50Z</time>
      </trkpt>
      <trkpt lat="47.27795" lon="1.37835">
        <ele>70</ele>
        <time>2021-06-23T23:13:52Z</time>
      </trkpt>
      <trkpt lat="47.27778" lon="1.37832">
        <ele>71</ele>
        <time>2021-06-23T23:13:55Z</time>
      </trkpt>
      <trkpt lat="47.27767" lon="1.3783">
        <ele>71</ele>
        <time>2021-06-23T23:13:57Z</time>
      </trkpt>
      <trkpt lat="47.27666" lon="1.37795">
        <ele>71</ele>
        <time>2021-06-23T23:14:15Z</time>
      </trkpt>
      <trkpt lat="47.27609" lon="1.37767">
        <ele>70</ele>
        <time>2021-06-23T23:14:26Z</time>
      </trkpt>
      <trkpt lat="47.27595" lon="1.37761">
        <ele>69</ele>
        <time>2021-06-23T23:14:29Z</time>
      </trkpt>
      <trkpt lat="47.2756" lon="1.37744">
        <ele>69</ele>
        <time>2021-06-23T23:14:35Z</time>
      </trkpt>
      <trkpt lat="47.27526" lon="1.37728">
        <ele>70</ele>
        <time>2021-06-23T23:14:41Z</time>
      </trkpt>
      <trkpt lat="47.27441" lon="1.37694">
        <ele>69</ele>
        <time>2021-06-23T23:14:57Z</time>
      </trkpt>
      <trkpt lat="47.27411" lon="1.37685">
        <ele>70</ele>
        <time>2021-06-23T23:15:03Z</time>
      </trkpt>
      <trkpt lat="47.27383" lon="1.37675">
        <ele>70</ele>
        <time>2021-06-23T23:15:08Z</time>
      </trkpt>
      <trkpt lat="47.27347" lon="1.37662">
        <ele>70</ele>
        <time>2021-06-23T23:15:14Z</time>
      </trkpt>
      <trkpt lat="47.27273" lon="1.37627">
        <ele>71</ele>
        <time>2021-06-23T23:15:28Z</time>
      </trkpt>
      <trkpt lat="47.2727" lon="1.37626">
        <ele>72</ele>
        <time>2021-06-23T23:15:29Z</time>
      </trkpt>
      <trkpt lat="47.27264" lon="1.37623">
        <ele>72</ele>
        <time>2021-06-23T23:15:30Z</time>
      </trkpt>
      <trkpt lat="47.27258" lon="1.3762">
        <ele>72</ele>
        <time>2021-06-23T23:15:31Z</time>
      </trkpt>
      <trkpt lat="47.27227" lon="1.37606">
        <ele>72</ele>
        <time>2021-06-23T23:15:37Z</time>
      </trkpt>
      <trkpt lat="47.27141" lon="1.37563">
        <ele>71</ele>
        <time>2021-06-23T23:15:53Z</time>
      </trkpt>
      <trkpt lat="47.27124" lon="1.37554">
        <ele>70</ele>
        <time>2021-06-23T23:15:56Z</time>
      </trkpt>
      <trkpt lat="47.27068" lon="1.37521">
        <ele>72</ele>
        <time>2021-06-23T23:16:07Z</time>
      </trkpt>
      <trkpt lat="47.27062" lon="1.37516">
        <ele>73</ele>
        <time>2021-06-23T23:16:08Z</time>
      </trkpt>
      <trkpt lat="47.27031" lon="1.37589">
        <ele>75</ele>
        <time>2021-06-23T23:16:18Z</time>
      </trkpt>
      <trkpt lat="47.26999" lon="1.37662">
        <ele>72</ele>
        <time>2021-06-23T23:16:29Z</time>
      </trkpt>
      <trkpt lat="47.26984" lon="1.37701">
        <ele>73</ele>
        <time>2021-06-23T23:16:34Z</time>
      </trkpt>
      <trkpt lat="47.26968" lon="1.37741">
        <ele>72</ele>
        <time>2021-06-23T23:16:40Z</time>
      </trkpt>
      <trkpt lat="47.26964" lon="1.37752">
        <ele>72</ele>
        <time>2021-06-23T23:16:41Z</time>
      </trkpt>
      <trkpt lat="47.2696" lon="1.37764">
        <ele>72</ele>
        <time>2021-06-23T23:16:43Z</time>
      </trkpt>
      <trkpt lat="47.26958" lon="1.37772">
        <ele>73</ele>
        <time>2021-06-23T23:16:44Z</time>
      </trkpt>
      <trkpt lat="47.26953" lon="1.37799">
        <ele>72</ele>
        <time>2021-06-23T23:16:48Z</time>
      </trkpt>
      <trkpt lat="47.26942" lon="1.37832">
        <ele>72</ele>
        <time>2021-06-23T23:16:52Z</time>
      </trkpt>
      <trkpt lat="47.26933" lon="1.37851">
        <ele>71</ele>
        <time>2021-06-23T23:16:55Z</time>
      </trkpt>
      <trkpt lat="47.26929" lon="1.3786">
        <ele>71</ele>
        <time>2021-06-23T23:16:56Z</time>
      </trkpt>
      <trkpt lat="47.26923" lon="1.37872">
        <ele>71</ele>
        <time>2021-06-23T23:16:58Z</time>
      </trkpt>
      <trkpt lat="47.26915" lon="1.37883">
        <ele>70</ele>
        <time>2021-06-23T23:17:00Z</time>
      </trkpt>
      <trkpt lat="47.26904" lon="1.37893">
        <ele>71</ele>
        <time>2021-06-23T23:17:02Z</time>
      </trkpt>
      <trkpt lat="47.26894" lon="1.37896">
        <ele>71</ele>
        <time>2021-06-23T23:17:04Z</time>
      </trkpt>
      <trkpt lat="47.26881" lon="1.37895">
        <ele>72</ele>
        <time>2021-06-23T23:17:06Z</time>
      </trkpt>
      <trkpt lat="47.26881" lon="1.37892">
        <ele>72</ele>
        <time>2021-06-23T23:17:07Z</time>
      </trkpt>
      <trkpt lat="47.26877" lon="1.37885">
        <ele>72</ele>
        <time>2021-06-23T23:17:08Z</time>
      </trkpt>
      <trkpt lat="47.26871" lon="1.37886">
        <ele>72</ele>
        <time>2021-06-23T23:17:09Z</time>
      </trkpt>
      <trkpt lat="47.26869" lon="1.37888">
        <ele>72</ele>
        <time>2021-06-23T23:17:09Z</time>
      </trkpt>
      <trkpt lat="47.26864" lon="1.37884">
        <ele>73</ele>
        <time>2021-06-23T23:17:10Z</time>
      </trkpt>
      <trkpt lat="47.26839" lon="1.37869">
        <ele>74</ele>
        <time>2021-06-23T23:17:15Z</time>
      </trkpt>
      <trkpt lat="47.2681" lon="1.37845">
        <ele>76</ele>
        <time>2021-06-23T23:17:21Z</time>
      </trkpt>
      <trkpt lat="47.26782" lon="1.37823">
        <ele>77</ele>
        <time>2021-06-23T23:17:27Z</time>
      </trkpt>
      <trkpt lat="47.26778" lon="1.37821">
        <ele>77</ele>
        <time>2021-06-23T23:17:27Z</time>
      </trkpt>
      <trkpt lat="47.2677" lon="1.37812">
        <ele>77</ele>
        <time>2021-06-23T23:17:29Z</time>
      </trkpt>
      <trkpt lat="47.26764" lon="1.37801">
        <ele>78</ele>
        <time>2021-06-23T23:17:31Z</time>
      </trkpt>
      <trkpt lat="47.26761" lon="1.37793">
        <ele>78</ele>
        <time>2021-06-23T23:17:32Z</time>
      </trkpt>
      <trkpt lat="47.26758" lon="1.37777">
        <ele>79</ele>
        <time>2021-06-23T23:17:34Z</time>
      </trkpt>
      <trkpt lat="47.26756" lon="1.37759">
        <ele>80</ele>
        <time>2021-06-23T23:17:36Z</time>
      </trkpt>
      <trkpt lat="47.26754" lon="1.37702">
        <ele>83</ele>
        <time>2021-06-23T23:17:43Z</time>
      </trkpt>
      <trkpt lat="47.26754" lon="1.37696">
        <ele>84</ele>
        <time>2021-06-23T23:17:44Z</time>
      </trkpt>
      <trkpt lat="47.26754" lon="1.37688">
        <ele>84</ele>
        <time>2021-06-23T23:17:45Z</time>
      </trkpt>
      <trkpt lat="47.26754" lon="1.37684">
        <ele>84</ele>
        <time>2021-06-23T23:17:45Z</time>
      </trkpt>
      <trkpt lat="47.26752" lon="1.37533">
        <ele>90</ele>
        <time>2021-06-23T23:18:03Z</time>
      </trkpt>
      <trkpt lat="47.26753" lon="1.37522">
        <ele>90</ele>
        <time>2021-06-23T23:18:05Z</time>
      </trkpt>
      <trkpt lat="47.26754" lon="1.37512">
        <ele>90</ele>
        <time>2021-06-23T23:18:06Z</time>
      </trkpt>
      <trkpt lat="47.26755" lon="1.37496">
        <ele>90</ele>
        <time>2021-06-23T23:18:08Z</time>
      </trkpt>
      <trkpt lat="47.26767" lon="1.37371">
        <ele>91</ele>
        <time>2021-06-23T23:18:23Z</time>
      </trkpt>
      <trkpt lat="47.26773" lon="1.37349">
        <ele>92</ele>
        <time>2021-06-23T23:18:26Z</time>
      </trkpt>
      <trkpt lat="47.2678" lon="1.37337">
        <ele>92</ele>
        <time>2021-06-23T23:18:28Z</time>
      </trkpt>
      <trkpt lat="47.26795" lon="1.37322">
        <ele>91</ele>
        <time>2021-06-23T23:18:31Z</time>
      </trkpt>
      <trkpt lat="47.26808" lon="1.37313">
        <ele>91</ele>
        <time>2021-06-23T23:18:34Z</time>
      </trkpt>
      <trkpt lat="47.26833" lon="1.37305">
        <ele>90</ele>
        <time>2021-06-23T23:18:38Z</time>
      </trkpt>
      <trkpt lat="47.2684" lon="1.37302">
        <ele>90</ele>
        <time>2021-06-23T23:18:40Z</time>
      </trkpt>
      <trkpt lat="47.26847" lon="1.37299">
        <ele>91</ele>
        <time>2021-06-23T23:18:41Z</time>
      </trkpt>
      <trkpt lat="47.26857" lon="1.37292">
        <ele>92</ele>
        <time>2021-06-23T23:18:43Z</time>
      </trkpt>
      <trkpt lat="47.26866" lon="1.37282">
        <ele>93</ele>
        <time>2021-06-23T23:18:45Z</time>
      </trkpt>
      <trkpt lat="47.26868" lon="1.3728">
        <ele>93</ele>
        <time>2021-06-23T23:18:45Z</time>
      </trkpt>
      <trkpt lat="47.26873" lon="1.37274">
        <ele>94</ele>
        <time>2021-06-23T23:18:46Z</time>
      </trkpt>
      <trkpt lat="47.26878" lon="1.37268">
        <ele>94</ele>
        <time>2021-06-23T23:18:48Z</time>
      </trkpt>
      <trkpt lat="47.26884" lon="1.37261">
        <ele>95</ele>
        <time>2021-06-23T23:18:49Z</time>
      </trkpt>
      <trkpt lat="47.26888" lon="1.37252">
        <ele>96</ele>
        <time>2021-06-23T23:18:50Z</time>
      </trkpt>
      <trkpt lat="47.2689" lon="1.37243">
        <ele>96</ele>
        <time>2021-06-23T23:18:51Z</time>
      </trkpt>
      <trkpt lat="47.26891" lon="1.37225">
        <ele>97</ele>
        <time>2021-06-23T23:18:54Z</time>
      </trkpt>
      <trkpt lat="47.26888" lon="1.37213">
        <ele>98</ele>
        <time>2021-06-23T23:18:55Z</time>
      </trkpt>
      <trkpt lat="47.26867" lon="1.37156">
        <ele>99</ele>
        <time>2021-06-23T23:19:03Z</time>
      </trkpt>
      <trkpt lat="47.26861" lon="1.37143">
        <ele>99</ele>
        <time>2021-06-23T23:19:05Z</time>
      </trkpt>
      <trkpt lat="47.26818" lon="1.37048">
        <ele>99</ele>
        <time>2021-06-23T23:19:19Z</time>
      </trkpt>
      <trkpt lat="47.26796" lon="1.36998">
        <ele>100</ele>
        <time>2021-06-23T23:19:26Z</time>
      </trkpt>
      <trkpt lat="47.26787" lon="1.36977">
        <ele>100</ele>
        <time>2021-06-23T23:19:29Z</time>
      </trkpt>
      <trkpt lat="47.26778" lon="1.36953">
        <ele>100</ele>
        <time>2021-06-23T23:19:32Z</time>
      </trkpt>
      <trkpt lat="47.26773" lon="1.36958">
        <ele>99</ele>
        <time>2021-06-23T23:19:33Z</time>
      </trkpt>
      <trkpt lat="47.26778" lon="1.36953">
        <ele>100</ele>
        <time>2021-06-23T23:19:34Z</time>
      </trkpt>
      <trkpt lat="47.26757" lon="1.36906">
        <ele>100</ele>
        <time>2021-06-23T23:19:41Z</time>
      </trkpt>
      <trkpt lat="47.26749" lon="1.36893">
        <ele>99</ele>
        <time>2021-06-23T23:19:43Z</time>
      </trkpt>
      <trkpt lat="47.26488" lon="1.36296">
        <ele>114</ele>
        <time>2021-06-23T23:21:09Z</time>
      </trkpt>
      <trkpt lat="47.26476" lon="1.36273">
        <ele>115</ele>
        <time>2021-06-23T23:21:12Z</time>
      </trkpt>
      <trkpt lat="47.26462" lon="1.36255">
        <ele>115</ele>
        <time>2021-06-23T23:21:16Z</time>
      </trkpt>
      <trkpt lat="47.26449" lon="1.36243">
        <ele>116</ele>
        <time>2021-06-23T23:21:18Z</time>
      </trkpt>
      <trkpt lat="47.26412" lon="1.36222">
        <ele>117</ele>
        <time>2021-06-23T23:21:26Z</time>
      </trkpt>
      <trkpt lat="47.2617" lon="1.36093">
        <ele>122</ele>
        <time>2021-06-23T23:22:11Z</time>
      </trkpt>
      <trkpt lat="47.26161" lon="1.3609">
        <ele>122</ele>
        <time>2021-06-23T23:22:13Z</time>
      </trkpt>
      <trkpt lat="47.26139" lon="1.3609">
        <ele>123</ele>
        <time>2021-06-23T23:22:17Z</time>
      </trkpt>
      <trkpt lat="47.26127" lon="1.36086">
        <ele>124</ele>
        <time>2021-06-23T23:22:19Z</time>
      </trkpt>
      <trkpt lat="47.26117" lon="1.36079">
        <ele>124</ele>
        <time>2021-06-23T23:22:21Z</time>
      </trkpt>
      <trkpt lat="47.26091" lon="1.36052">
        <ele>125</ele>
        <time>2021-06-23T23:22:27Z</time>
      </trkpt>
      <trkpt lat="47.25606" lon="1.35795">
        <ele>127</ele>
        <time>2021-06-23T23:23:58Z</time>
      </trkpt>
      <trkpt lat="47.25577" lon="1.35779">
        <ele>127</ele>
        <time>2021-06-23T23:24:04Z</time>
      </trkpt>
      <trkpt lat="47.25552" lon="1.35757">
        <ele>127</ele>
        <time>2021-06-23T23:24:09Z</time>
      </trkpt>
      <trkpt lat="47.25549" lon="1.35751">
        <ele>127</ele>
        <time>2021-06-23T23:24:10Z</time>
      </trkpt>
      <trkpt lat="47.25551" lon="1.35743">
        <ele>127</ele>
        <time>2021-06-23T23:24:11Z</time>
      </trkpt>
      <trkpt lat="47.2555" lon="1.35734">
        <ele>127</ele>
        <time>2021-06-23T23:24:12Z</time>
      </trkpt>
      <trkpt lat="47.25548" lon="1.35727">
        <ele>126</ele>
        <time>2021-06-23T23:24:13Z</time>
      </trkpt>
      <trkpt lat="47.25544" lon="1.35721">
        <ele>126</ele>
        <time>2021-06-23T23:24:14Z</time>
      </trkpt>
      <trkpt lat="47.25539" lon="1.35717">
        <ele>126</ele>
        <time>2021-06-23T23:24:15Z</time>
      </trkpt>
      <trkpt lat="47.25533" lon="1.35716">
        <ele>126</ele>
        <time>2021-06-23T23:24:16Z</time>
      </trkpt>
      <trkpt lat="47.25518" lon="1.35701">
        <ele>125</ele>
        <time>2021-06-23T23:24:19Z</time>
      </trkpt>
      <trkpt lat="47.25484" lon="1.35647">
        <ele>123</ele>
        <time>2021-06-23T23:24:28Z</time>
      </trkpt>
      <trkpt lat="47.25477" lon="1.35629">
        <ele>123</ele>
        <time>2021-06-23T23:24:31Z</time>
      </trkpt>
      <trkpt lat="47.25474" lon="1.35601">
        <ele>122</ele>
        <time>2021-06-23T23:24:34Z</time>
      </trkpt>
      <trkpt lat="47.25477" lon="1.35579">
        <ele>121</ele>
        <time>2021-06-23T23:24:37Z</time>
      </trkpt>
      <trkpt lat="47.25481" lon="1.35568">
        <ele>120</ele>
        <time>2021-06-23T23:24:38Z</time>
      </trkpt>
      <trkpt lat="47.25489" lon="1.35554">
        <ele>118</ele>
        <time>2021-06-23T23:24:41Z</time>
      </trkpt>
      <trkpt lat="47.25499" lon="1.35544">
        <ele>118</ele>
        <time>2021-06-23T23:24:43Z</time>
      </trkpt>
      <trkpt lat="47.25533" lon="1.35521">
        <ele>118</ele>
        <time>2021-06-23T23:24:49Z</time>
      </trkpt>
      <trkpt lat="47.2555" lon="1.35502">
        <ele>117</ele>
        <time>2021-06-23T23:24:53Z</time>
      </trkpt>
      <trkpt lat="47.25562" lon="1.35484">
        <ele>117</ele>
        <time>2021-06-23T23:24:56Z</time>
      </trkpt>
      <trkpt lat="47.25573" lon="1.35461">
        <ele>117</ele>
        <time>2021-06-23T23:25:00Z</time>
      </trkpt>
      <trkpt lat="47.25578" lon="1.35445">
        <ele>117</ele>
        <time>2021-06-23T23:25:02Z</time>
      </trkpt>
      <trkpt lat="47.25581" lon="1.35429">
        <ele>116</ele>
        <time>2021-06-23T23:25:04Z</time>
      </trkpt>
      <trkpt lat="47.25581" lon="1.35412">
        <ele>116</ele>
        <time>2021-06-23T23:25:06Z</time>
      </trkpt>
      <trkpt lat="47.25577" lon="1.35388">
        <ele>115</ele>
        <time>2021-06-23T23:25:09Z</time>
      </trkpt>
      <trkpt lat="47.25568" lon="1.35371">
        <ele>115</ele>
        <time>2021-06-23T23:25:11Z</time>
      </trkpt>
      <trkpt lat="47.25558" lon="1.35359">
        <ele>114</ele>
        <time>2021-06-23T23:25:14Z</time>
      </trkpt>
      <trkpt lat="47.25515" lon="1.35323">
        <ele>110</ele>
        <time>2021-06-23T23:25:23Z</time>
      </trkpt>
      <trkpt lat="47.25494" lon="1.35311">
        <ele>109</ele>
        <time>2021-06-23T23:25:27Z</time>
      </trkpt>
      <trkpt lat="47.25476" lon="1.35303">
        <ele>109</ele>
        <time>2021-06-23T23:25:30Z</time>
      </trkpt>
      <trkpt lat="47.25454" lon="1.353">
        <ele>109</ele>
        <time>2021-06-23T23:25:34Z</time>
      </trkpt>
      <trkpt lat="47.25437" lon="1.35302">
        <ele>109</ele>
        <time>2021-06-23T23:25:37Z</time>
      </trkpt>
      <trkpt lat="47.25424" lon="1.35305">
        <ele>109</ele>
        <time>2021-06-23T23:25:39Z</time>
      </trkpt>
      <trkpt lat="47.25404" lon="1.35316">
        <ele>108</ele>
        <time>2021-06-23T23:25:43Z</time>
      </trkpt>
      <trkpt lat="47.25353" lon="1.35349">
        <ele>107</ele>
        <time>2021-06-23T23:25:53Z</time>
      </trkpt>
      <trkpt lat="47.25331" lon="1.35355">
        <ele>107</ele>
        <time>2021-06-23T23:25:57Z</time>
      </trkpt>
      <trkpt lat="47.25317" lon="1.35353">
        <ele>107</ele>
        <time>2021-06-23T23:25:59Z</time>
      </trkpt>
      <trkpt lat="47.25303" lon="1.35346">
        <ele>107</ele>
        <time>2021-06-23T23:26:02Z</time>
      </trkpt>
      <trkpt lat="47.25283" lon="1.35326">
        <ele>106</ele>
        <time>2021-06-23T23:26:06Z</time>
      </trkpt>
      <trkpt lat="47.25255" lon="1.35306">
        <ele>106</ele>
        <time>2021-06-23T23:26:12Z</time>
      </trkpt>
      <trkpt lat="47.25243" lon="1.35301">
        <ele>106</ele>
        <time>2021-06-23T23:26:14Z</time>
      </trkpt>
      <trkpt lat="47.25207" lon="1.35294">
        <ele>105</ele>
        <time>2021-06-23T23:26:21Z</time>
      </trkpt>
      <trkpt lat="47.25169" lon="1.35295">
        <ele>103</ele>
        <time>2021-06-23T23:26:27Z</time>
      </trkpt>
      <trkpt lat="47.2515" lon="1.35301">
        <ele>102</ele>
        <time>2021-06-23T23:26:31Z</time>
      </trkpt>
      <trkpt lat="47.25124" lon="1.35314">
        <ele>100</ele>
        <time>2021-06-23T23:26:36Z</time>
      </trkpt>
      <trkpt lat="47.25105" lon="1.35319">
        <ele>99</ele>
        <time>2021-06-23T23:26:39Z</time>
      </trkpt>
      <trkpt lat="47.25082" lon="1.35321">
        <ele>98</ele>
        <time>2021-06-23T23:26:43Z</time>
      </trkpt>
      <trkpt lat="47.2493" lon="1.35324">
        <ele>95</ele>
        <time>2021-06-23T23:27:10Z</time>
      </trkpt>
      <trkpt lat="47.24909" lon="1.35329">
        <ele>95</ele>
        <time>2021-06-23T23:27:14Z</time>
      </trkpt>
      <trkpt lat="47.24875" lon="1.35343">
        <ele>95</ele>
        <time>2021-06-23T23:27:20Z</time>
      </trkpt>
      <trkpt lat="47.2485" lon="1.35346">
        <ele>95</ele>
        <time>2021-06-23T23:27:25Z</time>
      </trkpt>
      <trkpt lat="47.24757" lon="1.35337">
        <ele>93</ele>
        <time>2021-06-23T23:27:41Z</time>
      </trkpt>
      <trkpt lat="47.24744" lon="1.35334">
        <ele>93</ele>
        <time>2021-06-23T23:27:44Z</time>
      </trkpt>
      <trkpt lat="47.24709" lon="1.3532">
        <ele>93</ele>
        <time>2021-06-23T23:27:50Z</time>
      </trkpt>
      <trkpt lat="47.24649" lon="1.35289">
        <ele>95</ele>
        <time>2021-06-23T23:28:01Z</time>
      </trkpt>
      <trkpt lat="47.24636" lon="1.35281">
        <ele>96</ele>
        <time>2021-06-23T23:28:04Z</time>
      </trkpt>
      <trkpt lat="47.24626" lon="1.35272">
        <ele>98</ele>
        <time>2021-06-23T23:28:06Z</time>
      </trkpt>
      <trkpt lat="47.24616" lon="1.35259">
        <ele>98</ele>
        <time>2021-06-23T23:28:08Z</time>
      </trkpt>
      <trkpt lat="47.24609" lon="1.35245">
        <ele>99</ele>
        <time>2021-06-23T23:28:10Z</time>
      </trkpt>
      <trkpt lat="47.24604" lon="1.35229">
        <ele>99</ele>
        <time>2021-06-23T23:28:13Z</time>
      </trkpt>
      <trkpt lat="47.24601" lon="1.35212">
        <ele>99</ele>
        <time>2021-06-23T23:28:15Z</time>
      </trkpt>
      <trkpt lat="47.246" lon="1.35185">
        <ele>98</ele>
        <time>2021-06-23T23:28:18Z</time>
      </trkpt>
      <trkpt lat="47.24604" lon="1.35133">
        <ele>98</ele>
        <time>2021-06-23T23:28:24Z</time>
      </trkpt>
      <trkpt lat="47.24602" lon="1.35103">
        <ele>98</ele>
        <time>2021-06-23T23:28:28Z</time>
      </trkpt>
      <trkpt lat="47.24599" lon="1.3509">
        <ele>98</ele>
        <time>2021-06-23T23:28:30Z</time>
      </trkpt>
      <trkpt lat="47.24588" lon="1.35064">
        <ele>99</ele>
        <time>2021-06-23T23:28:33Z</time>
      </trkpt>
      <trkpt lat="47.2458" lon="1.35051">
        <ele>99</ele>
        <time>2021-06-23T23:28:35Z</time>
      </trkpt>
      <trkpt lat="47.2457" lon="1.3504">
        <ele>99</ele>
        <time>2021-06-23T23:28:38Z</time>
      </trkpt>
      <trkpt lat="47.24533" lon="1.35014">
        <ele>102</ele>
        <time>2021-06-23T23:28:45Z</time>
      </trkpt>
      <trkpt lat="47.24518" lon="1.35006">
        <ele>103</ele>
        <time>2021-06-23T23:28:48Z</time>
      </trkpt>
      <trkpt lat="47.24492" lon="1.34997">
        <ele>104</ele>
        <time>2021-06-23T23:28:53Z</time>
      </trkpt>
      <trkpt lat="47.24478" lon="1.34994">
        <ele>105</ele>
        <time>2021-06-23T23:28:55Z</time>
      </trkpt>
      <trkpt lat="47.24459" lon="1.34993">
        <ele>105</ele>
        <time>2021-06-23T23:28:58Z</time>
      </trkpt>
      <trkpt lat="47.2442" lon="1.34997">
        <ele>107</ele>
        <time>2021-06-23T23:29:05Z</time>
      </trkpt>
      <trkpt lat="47.24368" lon="1.34992">
        <ele>109</ele>
        <time>2021-06-23T23:29:15Z</time>
      </trkpt>
      <trkpt lat="47.24343" lon="1.35">
        <ele>110</ele>
        <time>2021-06-23T23:29:19Z</time>
      </trkpt>
      <trkpt lat="47.243" lon="1.35028">
        <ele>113</ele>
        <time>2021-06-23T23:29:28Z</time>
      </trkpt>
      <trkpt lat="47.24284" lon="1.35031">
        <ele>114</ele>
        <time>2021-06-23T23:29:30Z</time>
      </trkpt>
      <trkpt lat="47.24267" lon="1.35028">
        <ele>114</ele>
        <time>2021-06-23T23:29:34Z</time>
      </trkpt>
      <trkpt lat="47.24247" lon="1.35015">
        <ele>115</ele>
        <time>2021-06-23T23:29:37Z</time>
      </trkpt>
      <trkpt lat="47.24228" lon="1.34995">
        <ele>116</ele>
        <time>2021-06-23T23:29:42Z</time>
      </trkpt>
      <trkpt lat="47.24215" lon="1.34976">
        <ele>117</ele>
        <time>2021-06-23T23:29:45Z</time>
      </trkpt>
      <trkpt lat="47.24198" lon="1.3494">
        <ele>118</ele>
        <time>2021-06-23T23:29:50Z</time>
      </trkpt>
      <trkpt lat="47.2419" lon="1.34911">
        <ele>118</ele>
        <time>2021-06-23T23:29:54Z</time>
      </trkpt>
      <trkpt lat="47.24184" lon="1.34873">
        <ele>119</ele>
        <time>2021-06-23T23:29:59Z</time>
      </trkpt>
      <trkpt lat="47.24183" lon="1.34834">
        <ele>120</ele>
        <time>2021-06-23T23:30:03Z</time>
      </trkpt>
      <trkpt lat="47.24188" lon="1.34795">
        <ele>120</ele>
        <time>2021-06-23T23:30:08Z</time>
      </trkpt>
      <trkpt lat="47.24216" lon="1.34664">
        <ele>123</ele>
        <time>2021-06-23T23:30:25Z</time>
      </trkpt>
      <trkpt lat="47.24218" lon="1.34645">
        <ele>123</ele>
        <time>2021-06-23T23:30:27Z</time>
      </trkpt>
      <trkpt lat="47.24217" lon="1.34627">
        <ele>123</ele>
        <time>2021-06-23T23:30:29Z</time>
      </trkpt>
      <trkpt lat="47.24215" lon="1.34609">
        <ele>123</ele>
        <time>2021-06-23T23:30:31Z</time>
      </trkpt>
      <trkpt lat="47.24208" lon="1.34587">
        <ele>123</ele>
        <time>2021-06-23T23:30:34Z</time>
      </trkpt>
      <trkpt lat="47.242" lon="1.34567">
        <ele>123</ele>
        <time>2021-06-23T23:30:37Z</time>
      </trkpt>
      <trkpt lat="47.24125" lon="1.34448">
        <ele>125</ele>
        <time>2021-06-23T23:30:57Z</time>
      </trkpt>
      <trkpt lat="47.24113" lon="1.34423">
        <ele>125</ele>
        <time>2021-06-23T23:31:00Z</time>
      </trkpt>
      <trkpt lat="47.24105" lon="1.34396">
        <ele>126</ele>
        <time>2021-06-23T23:31:04Z</time>
      </trkpt>
      <trkpt lat="47.24102" lon="1.3438">
        <ele>126</ele>
        <time>2021-06-23T23:31:06Z</time>
      </trkpt>
      <trkpt lat="47.24101" lon="1.34358">
        <ele>127</ele>
        <time>2021-06-23T23:31:09Z</time>
      </trkpt>
      <trkpt lat="47.24102" lon="1.34334">
        <ele>127</ele>
        <time>2021-06-23T23:31:12Z</time>
      </trkpt>
      <trkpt lat="47.24108" lon="1.34304">
        <ele>127</ele>
        <time>2021-06-23T23:31:15Z</time>
      </trkpt>
      <trkpt lat="47.24123" lon="1.34246">
        <ele>128</ele>
        <time>2021-06-23T23:31:23Z</time>
      </trkpt>
      <trkpt lat="47.24123" lon="1.34228">
        <ele>128</ele>
        <time>2021-06-23T23:31:25Z</time>
      </trkpt>
      <trkpt lat="47.24121" lon="1.3421">
        <ele>128</ele>
        <time>2021-06-23T23:31:27Z</time>
      </trkpt>
      <trkpt lat="47.24117" lon="1.34196">
        <ele>128</ele>
        <time>2021-06-23T23:31:29Z</time>
      </trkpt>
      <trkpt lat="47.2411" lon="1.34181">
        <ele>128</ele>
        <time>2021-06-23T23:31:31Z</time>
      </trkpt>
      <trkpt lat="47.24101" lon="1.34169">
        <ele>129</ele>
        <time>2021-06-23T23:31:33Z</time>
      </trkpt>
      <trkpt lat="47.24089" lon="1.3416">
        <ele>129</ele>
        <time>2021-06-23T23:31:36Z</time>
      </trkpt>
      <trkpt lat="47.24078" lon="1.34155">
        <ele>130</ele>
        <time>2021-06-23T23:31:38Z</time>
      </trkpt>
      <trkpt lat="47.23994" lon="1.34155">
        <ele>129</ele>
        <time>2021-06-23T23:31:53Z</time>
      </trkpt>
      <trkpt lat="47.2397" lon="1.3415">
        <ele>129</ele>
        <time>2021-06-23T23:31:57Z</time>
      </trkpt>
      <trkpt lat="47.23944" lon="1.34137">
        <ele>129</ele>
        <time>2021-06-23T23:32:02Z</time>
      </trkpt>
      <trkpt lat="47.23929" lon="1.34124">
        <ele>129</ele>
        <time>2021-06-23T23:32:05Z</time>
      </trkpt>
      <trkpt lat="47.23689" lon="1.33848">
        <ele>130</ele>
        <time>2021-06-23T23:32:59Z</time>
      </trkpt>
      <trkpt lat="47.23668" lon="1.3383">
        <ele>130</ele>
        <time>2021-06-23T23:33:04Z</time>
      </trkpt>
      <trkpt lat="47.23619" lon="1.33798">
        <ele>132</ele>
        <time>2021-06-23T23:33:13Z</time>
      </trkpt>
      <trkpt lat="47.23544" lon="1.33757">
        <ele>132</ele>
        <time>2021-06-23T23:33:27Z</time>
      </trkpt>
      <trkpt lat="47.23514" lon="1.33748">
        <ele>132</ele>
        <time>2021-06-23T23:33:33Z</time>
      </trkpt>
      <trkpt lat="47.23488" lon="1.33743">
        <ele>132</ele>
        <time>2021-06-23T23:33:38Z</time>
      </trkpt>
      <trkpt lat="47.23455" lon="1.33744">
        <ele>132</ele>
        <time>2021-06-23T23:33:43Z</time>
      </trkpt>
      <trkpt lat="47.23432" lon="1.33747">
        <ele>132</ele>
        <time>2021-06-23T23:33:48Z</time>
      </trkpt>
      <trkpt lat="47.23412" lon="1.33752">
        <ele>132</ele>
        <time>2021-06-23T23:33:51Z</time>
      </trkpt>
      <trkpt lat="47.23377" lon="1.33766">
        <ele>133</ele>
        <time>2021-06-23T23:33:58Z</time>
      </trkpt>
      <trkpt lat="47.23198" lon="1.33845">
        <ele>136</ele>
        <time>2021-06-23T23:34:31Z</time>
      </trkpt>
      <trkpt lat="47.23162" lon="1.33852">
        <ele>136</ele>
        <time>2021-06-23T23:34:37Z</time>
      </trkpt>
      <trkpt lat="47.23134" lon="1.33848">
        <ele>135</ele>
        <time>2021-06-23T23:34:42Z</time>
      </trkpt>
      <trkpt lat="47.23101" lon="1.3383">
        <ele>133</ele>
        <time>2021-06-23T23:34:49Z</time>
      </trkpt>
      <trkpt lat="47.23072" lon="1.33806">
        <ele>132</ele>
        <time>2021-06-23T23:34:54Z</time>
      </trkpt>
      <trkpt lat="47.23053" lon="1.33783">
        <ele>131</ele>
        <time>2021-06-23T23:34:59Z</time>
      </trkpt>
      <trkpt lat="47.23038" lon="1.33754">
        <ele>130</ele>
        <time>2021-06-23T23:35:03Z</time>
      </trkpt>
      <trkpt lat="47.23023" lon="1.33709">
        <ele>130</ele>
        <time>2021-06-23T23:35:09Z</time>
      </trkpt>
      <trkpt lat="47.23014" lon="1.33665">
        <ele>131</ele>
        <time>2021-06-23T23:35:15Z</time>
      </trkpt>
      <trkpt lat="47.23006" lon="1.33631">
        <ele>132</ele>
        <time>2021-06-23T23:35:19Z</time>
      </trkpt>
      <trkpt lat="47.22908" lon="1.33371">
        <ele>127</ele>
        <time>2021-06-23T23:35:55Z</time>
      </trkpt>
      <trkpt lat="47.22893" lon="1.3334">
        <ele>126</ele>
        <time>2021-06-23T23:36:00Z</time>
      </trkpt>
      <trkpt lat="47.22879" lon="1.33319">
        <ele>126</ele>
        <time>2021-06-23T23:36:03Z</time>
      </trkpt>
      <trkpt lat="47.22865" lon="1.33305">
        <ele>125</ele>
        <time>2021-06-23T23:36:06Z</time>
      </trkpt>
      <trkpt lat="47.22835" lon="1.3329">
        <ele>123</ele>
        <time>2021-06-23T23:36:12Z</time>
      </trkpt>
      <trkpt lat="47.22821" lon="1.33286">
        <ele>123</ele>
        <time>2021-06-23T23:36:14Z</time>
      </trkpt>
      <trkpt lat="47.22805" lon="1.33286">
        <ele>122</ele>
        <time>2021-06-23T23:36:17Z</time>
      </trkpt>
      <trkpt lat="47.22787" lon="1.33288">
        <ele>122</ele>
        <time>2021-06-23T23:36:21Z</time>
      </trkpt>
      <trkpt lat="47.22769" lon="1.33296">
        <ele>121</ele>
        <time>2021-06-23T23:36:24Z</time>
      </trkpt>
      <trkpt lat="47.22755" lon="1.33305">
        <ele>121</ele>
        <time>2021-06-23T23:36:27Z</time>
      </trkpt>
      <trkpt lat="47.22743" lon="1.33318">
        <ele>121</ele>
        <time>2021-06-23T23:36:29Z</time>
      </trkpt>
      <trkpt lat="47.22732" lon="1.33334">
        <ele>121</ele>
        <time>2021-06-23T23:36:32Z</time>
      </trkpt>
      <trkpt lat="47.22719" lon="1.33356">
        <ele>121</ele>
        <time>2021-06-23T23:36:36Z</time>
      </trkpt>
      <trkpt lat="47.22709" lon="1.33382">
        <ele>120</ele>
        <time>2021-06-23T23:36:39Z</time>
      </trkpt>
      <trkpt lat="47.22676" lon="1.33495">
        <ele>121</ele>
        <time>2021-06-23T23:36:54Z</time>
      </trkpt>
      <trkpt lat="47.22663" lon="1.33519">
        <ele>121</ele>
        <time>2021-06-23T23:36:58Z</time>
      </trkpt>
      <trkpt lat="47.2265" lon="1.33536">
        <ele>120</ele>
        <time>2021-06-23T23:37:01Z</time>
      </trkpt>
      <trkpt lat="47.22638" lon="1.33548">
        <ele>120</ele>
        <time>2021-06-23T23:37:03Z</time>
      </trkpt>
      <trkpt lat="47.22383" lon="1.33751">
        <ele>130</ele>
        <time>2021-06-23T23:37:55Z</time>
      </trkpt>
      <trkpt lat="47.22362" lon="1.33766">
        <ele>131</ele>
        <time>2021-06-23T23:37:59Z</time>
      </trkpt>
      <trkpt lat="47.22345" lon="1.33774">
        <ele>132</ele>
        <time>2021-06-23T23:38:02Z</time>
      </trkpt>
      <trkpt lat="47.22318" lon="1.33784">
        <ele>133</ele>
        <time>2021-06-23T23:38:07Z</time>
      </trkpt>
      <trkpt lat="47.22288" lon="1.33787">
        <ele>133</ele>
        <time>2021-06-23T23:38:13Z</time>
      </trkpt>
      <trkpt lat="47.22255" lon="1.33785">
        <ele>134</ele>
        <time>2021-06-23T23:38:18Z</time>
      </trkpt>
      <trkpt lat="47.22188" lon="1.33764">
        <ele>134</ele>
        <time>2021-06-23T23:38:31Z</time>
      </trkpt>
      <trkpt lat="47.22172" lon="1.33761">
        <ele>134</ele>
        <time>2021-06-23T23:38:34Z</time>
      </trkpt>
      <trkpt lat="47.22158" lon="1.33762">
        <ele>133</ele>
        <time>2021-06-23T23:38:36Z</time>
      </trkpt>
      <trkpt lat="47.22144" lon="1.33766">
        <ele>133</ele>
        <time>2021-06-23T23:38:39Z</time>
      </trkpt>
      <trkpt lat="47.22129" lon="1.33776">
        <ele>132</ele>
        <time>2021-06-23T23:38:41Z</time>
      </trkpt>
      <trkpt lat="47.22094" lon="1.33818">
        <ele>131</ele>
        <time>2021-06-23T23:38:50Z</time>
      </trkpt>
      <trkpt lat="47.22081" lon="1.33831">
        <ele>131</ele>
        <time>2021-06-23T23:38:52Z</time>
      </trkpt>
      <trkpt lat="47.22067" lon="1.33841">
        <ele>131</ele>
        <time>2021-06-23T23:38:55Z</time>
      </trkpt>
      <trkpt lat="47.22054" lon="1.33846">
        <ele>131</ele>
        <time>2021-06-23T23:38:57Z</time>
      </trkpt>
      <trkpt lat="47.22036" lon="1.33847">
        <ele>131</ele>
        <time>2021-06-23T23:39:01Z</time>
      </trkpt>
      <trkpt lat="47.22023" lon="1.33845">
        <ele>131</ele>
        <time>2021-06-23T23:39:03Z</time>
      </trkpt>
      <trkpt lat="47.22007" lon="1.3384">
        <ele>131</ele>
        <time>2021-06-23T23:39:06Z</time>
      </trkpt>
      <trkpt lat="47.21978" lon="1.33823">
        <ele>131</ele>
        <time>2021-06-23T23:39:11Z</time>
      </trkpt>
      <trkpt lat="47.21921" lon="1.33784">
        <ele>130</ele>
        <time>2021-06-23T23:39:23Z</time>
      </trkpt>
      <trkpt lat="47.21901" lon="1.33772">
        <ele>130</ele>
        <time>2021-06-23T23:39:26Z</time>
      </trkpt>
      <trkpt lat="47.21876" lon="1.33762">
        <ele>130</ele>
        <time>2021-06-23T23:39:31Z</time>
      </trkpt>
      <trkpt lat="47.21801" lon="1.33749">
        <ele>128</ele>
        <time>2021-06-23T23:39:45Z</time>
      </trkpt>
      <trkpt lat="47.21778" lon="1.33734">
        <ele>127</ele>
        <time>2021-06-23T23:39:49Z</time>
      </trkpt>
      <trkpt lat="47.21764" lon="1.3372">
        <ele>127</ele>
        <time>2021-06-23T23:39:52Z</time>
      </trkpt>
      <trkpt lat="47.21723" lon="1.33656">
        <ele>126</ele>
        <time>2021-06-23T23:40:03Z</time>
      </trkpt>
      <trkpt lat="47.2169" lon="1.33609">
        <ele>127</ele>
        <time>2021-06-23T23:40:11Z</time>
      </trkpt>
      <trkpt lat="47.21674" lon="1.33581">
        <ele>127</ele>
        <time>2021-06-23T23:40:15Z</time>
      </trkpt>
      <trkpt lat="47.21661" lon="1.33555">
        <ele>128</ele>
        <time>2021-06-23T23:40:19Z</time>
      </trkpt>
      <trkpt lat="47.21647" lon="1.33518">
        <ele>129</ele>
        <time>2021-06-23T23:40:24Z</time>
      </trkpt>
      <trkpt lat="47.21628" lon="1.33452">
        <ele>130</ele>
        <time>2021-06-23T23:40:33Z</time>
      </trkpt>
      <trkpt lat="47.21616" lon="1.33426">
        <ele>130</ele>
        <time>2021-06-23T23:40:37Z</time>
      </trkpt>
      <trkpt lat="47.21602" lon="1.33408">
        <ele>130</ele>
        <time>2021-06-23T23:40:40Z</time>
      </trkpt>
      <trkpt lat="47.21586" lon="1.33395">
        <ele>130</ele>
        <time>2021-06-23T23:40:43Z</time>
      </trkpt>
      <trkpt lat="47.21568" lon="1.33385">
        <ele>131</ele>
        <time>2021-06-23T23:40:47Z</time>
      </trkpt>
      <trkpt lat="47.21549" lon="1.33379">
        <ele>132</ele>
        <time>2021-06-23T23:40:50Z</time>
      </trkpt>
      <trkpt lat="47.21526" lon="1.33378">
        <ele>132</ele>
        <time>2021-06-23T23:40:54Z</time>
      </trkpt>
      <trkpt lat="47.21498" lon="1.33384">
        <ele>133</ele>
        <time>2021-06-23T23:40:59Z</time>
      </trkpt>
      <trkpt lat="47.21335" lon="1.33457">
        <ele>136</ele>
        <time>2021-06-23T23:41:30Z</time>
      </trkpt>
      <trkpt lat="47.21291" lon="1.33469">
        <ele>138</ele>
        <time>2021-06-23T23:41:38Z</time>
      </trkpt>
      <trkpt lat="47.21187" lon="1.33471">
        <ele>141</ele>
        <time>2021-06-23T23:41:56Z</time>
      </trkpt>
      <trkpt lat="47.20925" lon="1.3351">
        <ele>143</ele>
        <time>2021-06-23T23:42:43Z</time>
      </trkpt>
      <trkpt lat="47.20914" lon="1.33511">
        <ele>143</ele>
        <time>2021-06-23T23:42:45Z</time>
      </trkpt>
      <trkpt lat="47.20901" lon="1.33517">
        <ele>144</ele>
        <time>2021-06-23T23:42:47Z</time>
      </trkpt>
      <trkpt lat="47.2088" lon="1.33528">
        <ele>144</ele>
        <time>2021-06-23T23:42:51Z</time>
      </trkpt>
      <trkpt lat="47.20862" lon="1.33544">
        <ele>145</ele>
        <time>2021-06-23T23:42:55Z</time>
      </trkpt>
      <trkpt lat="47.20846" lon="1.33561">
        <ele>145</ele>
        <time>2021-06-23T23:42:59Z</time>
      </trkpt>
      <trkpt lat="47.20835" lon="1.33577">
        <ele>145</ele>
        <time>2021-06-23T23:43:01Z</time>
      </trkpt>
      <trkpt lat="47.20824" lon="1.33597">
        <ele>146</ele>
        <time>2021-06-23T23:43:04Z</time>
      </trkpt>
      <trkpt lat="47.20812" lon="1.33623">
        <ele>146</ele>
        <time>2021-06-23T23:43:08Z</time>
      </trkpt>
      <trkpt lat="47.20777" lon="1.3373">
        <ele>147</ele>
        <time>2021-06-23T23:43:23Z</time>
      </trkpt>
      <trkpt lat="47.20769" lon="1.3375">
        <ele>147</ele>
        <time>2021-06-23T23:43:25Z</time>
      </trkpt>
      <trkpt lat="47.20749" lon="1.3378">
        <ele>147</ele>
        <time>2021-06-23T23:43:30Z</time>
      </trkpt>
      <trkpt lat="47.20738" lon="1.33792">
        <ele>148</ele>
        <time>2021-06-23T23:43:33Z</time>
      </trkpt>
      <trkpt lat="47.20712" lon="1.33806">
        <ele>149</ele>
        <time>2021-06-23T23:43:38Z</time>
      </trkpt>
      <trkpt lat="47.20702" lon="1.33808">
        <ele>150</ele>
        <time>2021-06-23T23:43:40Z</time>
      </trkpt>
      <trkpt lat="47.20685" lon="1.33808">
        <ele>151</ele>
        <time>2021-06-23T23:43:43Z</time>
      </trkpt>
      <trkpt lat="47.20667" lon="1.33803">
        <ele>153</ele>
        <time>2021-06-23T23:43:46Z</time>
      </trkpt>
      <trkpt lat="47.20488" lon="1.33697">
        <ele>152</ele>
        <time>2021-06-23T23:44:20Z</time>
      </trkpt>
      <trkpt lat="47.19522" lon="1.33156">
        <ele>163</ele>
        <time>2021-06-23T23:47:24Z</time>
      </trkpt>
      <trkpt lat="47.19459" lon="1.33123">
        <ele>165</ele>
        <time>2021-06-23T23:47:36Z</time>
      </trkpt>
      <trkpt lat="47.19205" lon="1.32976">
        <ele>160</ele>
        <time>2021-06-23T23:48:25Z</time>
      </trkpt>
      <trkpt lat="47.18593" lon="1.32627">
        <ele>158</ele>
        <time>2021-06-23T23:50:21Z</time>
      </trkpt>
      <trkpt lat="47.183" lon="1.3247">
        <ele>159</ele>
        <time>2021-06-23T23:51:17Z</time>
      </trkpt>
      <trkpt lat="47.18181" lon="1.32398">
        <ele>158</ele>
        <time>2021-06-23T23:51:40Z</time>
      </trkpt>
      <trkpt lat="47.17623" lon="1.32081">
        <ele>146</ele>
        <time>2021-06-23T23:53:26Z</time>
      </trkpt>
      <trkpt lat="47.17404" lon="1.31958">
        <ele>139</ele>
        <time>2021-06-23T23:54:08Z</time>
      </trkpt>
      <trkpt lat="47.16447" lon="1.31415">
        <ele>142</ele>
        <time>2021-06-23T23:57:10Z</time>
      </trkpt>
      <trkpt lat="47.1479" lon="1.30479">
        <ele>143</ele>
        <time>2021-06-24T00:02:26Z</time>
      </trkpt>
      <trkpt lat="47.14602" lon="1.30375">
        <ele>144</ele>
        <time>2021-06-24T00:03:02Z</time>
      </trkpt>
      <trkpt lat="47.13958" lon="1.30008">
        <ele>118</ele>
        <time>2021-06-24T00:05:05Z</time>
      </trkpt>
      <trkpt lat="47.13905" lon="1.29974">
        <ele>115</ele>
        <time>2021-06-24T00:05:15Z</time>
      </trkpt>
      <trkpt lat="47.13719" lon="1.29838">
        <ele>114</ele>
        <time>2021-06-24T00:05:52Z</time>
      </trkpt>
      <trkpt lat="47.13692" lon="1.2982">
        <ele>116</ele>
        <time>2021-06-24T00:05:57Z</time>
      </trkpt>
      <trkpt lat="47.13664" lon="1.29805">
        <ele>117</ele>
        <time>2021-06-24T00:06:03Z</time>
      </trkpt>
      <trkpt lat="47.13653" lon="1.29801">
        <ele>118</ele>
        <time>2021-06-24T00:06:05Z</time>
      </trkpt>
      <trkpt lat="47.13629" lon="1.29801">
        <ele>119</ele>
        <time>2021-06-24T00:06:09Z</time>
      </trkpt>
      <trkpt lat="47.13627" lon="1.29808">
        <ele>119</ele>
        <time>2021-06-24T00:06:10Z</time>
      </trkpt>
      <trkpt lat="47.13621" lon="1.2987">
        <ele>119</ele>
        <time>2021-06-24T00:06:17Z</time>
      </trkpt>
      <trkpt lat="47.13619" lon="1.299">
        <ele>119</ele>
        <time>2021-06-24T00:06:21Z</time>
      </trkpt>
      <trkpt lat="47.13613" lon="1.29975">
        <ele>118</ele>
        <time>2021-06-24T00:06:30Z</time>
      </trkpt>
      <trkpt lat="47.13609" lon="1.29975">
        <ele>118</ele>
        <time>2021-06-24T00:06:31Z</time>
      </trkpt>
      <trkpt lat="47.13592" lon="1.29982">
        <ele>119</ele>
        <time>2021-06-24T00:06:34Z</time>
      </trkpt>
      <trkpt lat="47.13576" lon="1.29995">
        <ele>119</ele>
        <time>2021-06-24T00:06:37Z</time>
      </trkpt>
      <trkpt lat="47.13563" lon="1.30004">
        <ele>120</ele>
        <time>2021-06-24T00:06:40Z</time>
      </trkpt>
      <trkpt lat="47.13438" lon="1.30096">
        <ele>122</ele>
        <time>2021-06-24T00:07:05Z</time>
      </trkpt>
      <trkpt lat="47.13388" lon="1.30137">
        <ele>123</ele>
        <time>2021-06-24T00:07:15Z</time>
      </trkpt>
      <trkpt lat="47.13356" lon="1.30173">
        <ele>123</ele>
        <time>2021-06-24T00:07:22Z</time>
      </trkpt>
      <trkpt lat="47.13239" lon="1.30305">
        <ele>124</ele>
        <time>2021-06-24T00:07:48Z</time>
      </trkpt>
      <trkpt lat="47.13162" lon="1.30394">
        <ele>125</ele>
        <time>2021-06-24T00:08:06Z</time>
      </trkpt>
      <trkpt lat="47.12822" lon="1.30779">
        <ele>128</ele>
        <time>2021-06-24T00:09:22Z</time>
      </trkpt>
      <trkpt lat="47.12622" lon="1.31005">
        <ele>130</ele>
        <time>2021-06-24T00:10:07Z</time>
      </trkpt>
      <trkpt lat="47.12218" lon="1.31466">
        <ele>135</ele>
        <time>2021-06-24T00:11:38Z</time>
      </trkpt>
      <trkpt lat="47.11745" lon="1.32006">
        <ele>132</ele>
        <time>2021-06-24T00:13:25Z</time>
      </trkpt>
      <trkpt lat="47.11597" lon="1.32131">
        <ele>128</ele>
        <time>2021-06-24T00:13:55Z</time>
      </trkpt>
      <trkpt lat="47.11222" lon="1.32443">
        <ele>137</ele>
        <time>2021-06-24T00:15:12Z</time>
      </trkpt>
      <trkpt lat="47.10918" lon="1.32698">
        <ele>146</ele>
        <time>2021-06-24T00:16:14Z</time>
      </trkpt>
      <trkpt lat="47.09989" lon="1.33475">
        <ele>155</ele>
        <time>2021-06-24T00:19:24Z</time>
      </trkpt>
      <trkpt lat="47.09856" lon="1.33586">
        <ele>150</ele>
        <time>2021-06-24T00:19:51Z</time>
      </trkpt>
      <trkpt lat="47.09492" lon="1.33891">
        <ele>156</ele>
        <time>2021-06-24T00:21:06Z</time>
      </trkpt>
      <trkpt lat="47.09317" lon="1.34038">
        <ele>159</ele>
        <time>2021-06-24T00:21:42Z</time>
      </trkpt>
      <trkpt lat="47.09274" lon="1.34074">
        <ele>159</ele>
        <time>2021-06-24T00:21:51Z</time>
      </trkpt>
      <trkpt lat="47.09231" lon="1.34109">
        <ele>160</ele>
        <time>2021-06-24T00:21:59Z</time>
      </trkpt>
      <trkpt lat="47.09186" lon="1.34142">
        <ele>161</ele>
        <time>2021-06-24T00:22:08Z</time>
      </trkpt>
      <trkpt lat="47.09172" lon="1.34152">
        <ele>161</ele>
        <time>2021-06-24T00:22:11Z</time>
      </trkpt>
      <trkpt lat="47.09142" lon="1.34172">
        <ele>161</ele>
        <time>2021-06-24T00:22:17Z</time>
      </trkpt>
      <trkpt lat="47.0909" lon="1.34201">
        <ele>161</ele>
        <time>2021-06-24T00:22:27Z</time>
      </trkpt>
      <trkpt lat="47.08968" lon="1.34261">
        <ele>158</ele>
        <time>2021-06-24T00:22:50Z</time>
      </trkpt>
      <trkpt lat="47.08952" lon="1.34268">
        <ele>157</ele>
        <time>2021-06-24T00:22:53Z</time>
      </trkpt>
      <trkpt lat="47.08897" lon="1.34295">
        <ele>155</ele>
        <time>2021-06-24T00:23:03Z</time>
      </trkpt>
      <trkpt lat="47.08868" lon="1.34309">
        <ele>153</ele>
        <time>2021-06-24T00:23:08Z</time>
      </trkpt>
      <trkpt lat="47.08675" lon="1.34403">
        <ele>139</ele>
        <time>2021-06-24T00:23:45Z</time>
      </trkpt>
      <trkpt lat="47.08662" lon="1.34409">
        <ele>138</ele>
        <time>2021-06-24T00:23:47Z</time>
      </trkpt>
      <trkpt lat="47.08661" lon="1.34409">
        <ele>138</ele>
        <time>2021-06-24T00:23:47Z</time>
      </trkpt>
      <trkpt lat="47.08649" lon="1.34415">
        <ele>138</ele>
        <time>2021-06-24T00:23:50Z</time>
      </trkpt>
      <trkpt lat="47.08603" lon="1.34437">
        <ele>137</ele>
        <time>2021-06-24T00:23:58Z</time>
      </trkpt>
      <trkpt lat="47.08576" lon="1.34449">
        <ele>137</ele>
        <time>2021-06-24T00:24:03Z</time>
      </trkpt>
      <trkpt lat="47.08442" lon="1.34514">
        <ele>143</ele>
        <time>2021-06-24T00:24:28Z</time>
      </trkpt>
      <trkpt lat="47.08432" lon="1.34522">
        <ele>144</ele>
        <time>2021-06-24T00:24:30Z</time>
      </trkpt>
      <trkpt lat="47.08439" lon="1.3455">
        <ele>144</ele>
        <time>2021-06-24T00:24:34Z</time>
      </trkpt>
      <trkpt lat="47.08448" lon="1.34574">
        <ele>144</ele>
        <time>2021-06-24T00:24:37Z</time>
      </trkpt>
      <trkpt lat="47.08498" lon="1.3467">
        <ele>143</ele>
        <time>2021-06-24T00:24:52Z</time>
      </trkpt>
      <trkpt lat="47.08518" lon="1.34723">
        <ele>143</ele>
        <time>2021-06-24T00:24:59Z</time>
      </trkpt>
      <trkpt lat="47.0854" lon="1.34771">
        <ele>141</ele>
        <time>2021-06-24T00:25:06Z</time>
      </trkpt>
      <trkpt lat="47.08547" lon="1.34781">
        <ele>141</ele>
        <time>2021-06-24T00:25:08Z</time>
      </trkpt>
      <trkpt lat="47.08564" lon="1.34797">
        <ele>139</ele>
        <time>2021-06-24T00:25:12Z</time>
      </trkpt>
      <trkpt lat="47.08611" lon="1.34836">
        <ele>137</ele>
        <time>2021-06-24T00:25:21Z</time>
      </trkpt>
      <trkpt lat="47.08651" lon="1.34876">
        <ele>139</ele>
        <time>2021-06-24T00:25:30Z</time>
      </trkpt>
      <trkpt lat="47.0866" lon="1.34885">
        <ele>140</ele>
        <time>2021-06-24T00:25:32Z</time>
      </trkpt>
      <trkpt lat="47.08668" lon="1.34897">
        <ele>140</ele>
        <time>2021-06-24T00:25:34Z</time>
      </trkpt>
      <trkpt lat="47.08674" lon="1.34912">
        <ele>142</ele>
        <time>2021-06-24T00:25:36Z</time>
      </trkpt>
      <trkpt lat="47.08677" lon="1.34939">
        <ele>143</ele>
        <time>2021-06-24T00:25:39Z</time>
      </trkpt>
      <trkpt lat="47.08675" lon="1.34951">
        <ele>142</ele>
        <time>2021-06-24T00:25:41Z</time>
      </trkpt>
      <trkpt lat="47.0866" lon="1.3501">
        <ele>141</ele>
        <time>2021-06-24T00:25:48Z</time>
      </trkpt>
      <trkpt lat="47.08629" lon="1.35119">
        <ele>141</ele>
        <time>2021-06-24T00:26:03Z</time>
      </trkpt>
      <trkpt lat="47.08625" lon="1.35142">
        <ele>141</ele>
        <time>2021-06-24T00:26:05Z</time>
      </trkpt>
      <trkpt lat="47.08623" lon="1.35163">
        <ele>141</ele>
        <time>2021-06-24T00:26:08Z</time>
      </trkpt>
      <trkpt lat="47.08624" lon="1.35192">
        <ele>142</ele>
        <time>2021-06-24T00:26:12Z</time>
      </trkpt>
      <trkpt lat="47.08631" lon="1.35238">
        <ele>144</ele>
        <time>2021-06-24T00:26:17Z</time>
      </trkpt>
      <trkpt lat="47.08638" lon="1.35269">
        <ele>145</ele>
        <time>2021-06-24T00:26:21Z</time>
      </trkpt>
      <trkpt lat="47.08647" lon="1.3529">
        <ele>146</ele>
        <time>2021-06-24T00:26:24Z</time>
      </trkpt>
      <trkpt lat="47.08787" lon="1.35524">
        <ele>153</ele>
        <time>2021-06-24T00:27:02Z</time>
      </trkpt>
      <trkpt lat="47.08805" lon="1.35565">
        <ele>154</ele>
        <time>2021-06-24T00:27:08Z</time>
      </trkpt>
      <trkpt lat="47.08961" lon="1.36024">
        <ele>157</ele>
        <time>2021-06-24T00:28:10Z</time>
      </trkpt>
      <trkpt lat="47.09001" lon="1.36136">
        <ele>160</ele>
        <time>2021-06-24T00:28:25Z</time>
      </trkpt>
      <trkpt lat="47.09023" lon="1.36178">
        <ele>161</ele>
        <time>2021-06-24T00:28:32Z</time>
      </trkpt>
      <trkpt lat="47.09044" lon="1.36212">
        <ele>162</ele>
        <time>2021-06-24T00:28:37Z</time>
      </trkpt>
      <trkpt lat="47.09078" lon="1.36283">
        <ele>165</ele>
        <time>2021-06-24T00:28:48Z</time>
      </trkpt>
      <trkpt lat="47.09116" lon="1.36376">
        <ele>167</ele>
        <time>2021-06-24T00:29:01Z</time>
      </trkpt>
      <trkpt lat="47.09431" lon="1.3709">
        <ele>173</ele>
        <time>2021-06-24T00:30:44Z</time>
      </trkpt>
      <trkpt lat="47.10322" lon="1.39107">
        <ele>168</ele>
        <time>2021-06-24T00:35:35Z</time>
      </trkpt>
      <trkpt lat="47.10582" lon="1.39691">
        <ele>164</ele>
        <time>2021-06-24T00:37:00Z</time>
      </trkpt>
      <trkpt lat="47.11082" lon="1.40827">
        <ele>158</ele>
        <time>2021-06-24T00:39:44Z</time>
      </trkpt>
      <trkpt lat="47.11094" lon="1.40863">
        <ele>157</ele>
        <time>2021-06-24T00:39:48Z</time>
      </trkpt>
      <trkpt lat="47.11104" lon="1.40914">
        <ele>156</ele>
        <time>2021-06-24T00:39:55Z</time>
      </trkpt>
      <trkpt lat="47.11223" lon="1.42056">
        <ele>153</ele>
        <time>2021-06-24T00:42:15Z</time>
      </trkpt>
      <trkpt lat="47.11229" lon="1.42094">
        <ele>153</ele>
        <time>2021-06-24T00:42:20Z</time>
      </trkpt>
      <trkpt lat="47.11237" lon="1.42122">
        <ele>153</ele>
        <time>2021-06-24T00:42:23Z</time>
      </trkpt>
      <trkpt lat="47.11242" lon="1.42137">
        <ele>153</ele>
        <time>2021-06-24T00:42:25Z</time>
      </trkpt>
      <trkpt lat="47.11263" lon="1.42181">
        <ele>152</ele>
        <time>2021-06-24T00:42:32Z</time>
      </trkpt>
      <trkpt lat="47.11405" lon="1.4244">
        <ele>150</ele>
        <time>2021-06-24T00:43:12Z</time>
      </trkpt>
      <trkpt lat="47.11428" lon="1.42478">
        <ele>150</ele>
        <time>2021-06-24T00:43:18Z</time>
      </trkpt>
      <trkpt lat="47.11435" lon="1.42486">
        <ele>149</ele>
        <time>2021-06-24T00:43:20Z</time>
      </trkpt>
      <trkpt lat="47.11445" lon="1.42491">
        <ele>149</ele>
        <time>2021-06-24T00:43:22Z</time>
      </trkpt>
      <trkpt lat="47.11466" lon="1.42491">
        <ele>150</ele>
        <time>2021-06-24T00:43:25Z</time>
      </trkpt>
      <trkpt lat="47.11477" lon="1.42537">
        <ele>149</ele>
        <time>2021-06-24T00:43:31Z</time>
      </trkpt>
      <trkpt lat="47.11492" lon="1.42584">
        <ele>147</ele>
        <time>2021-06-24T00:43:38Z</time>
      </trkpt>
      <trkpt lat="47.11506" lon="1.42619">
        <ele>146</ele>
        <time>2021-06-24T00:43:42Z</time>
      </trkpt>
      <trkpt lat="47.11533" lon="1.42672">
        <ele>144</ele>
        <time>2021-06-24T00:43:50Z</time>
      </trkpt>
      <trkpt lat="47.11715" lon="1.43002">
        <ele>128</ele>
        <time>2021-06-24T00:44:42Z</time>
      </trkpt>
      <trkpt lat="47.11733" lon="1.4304">
        <ele>126</ele>
        <time>2021-06-24T00:44:48Z</time>
      </trkpt>
      <trkpt lat="47.1174" lon="1.43066">
        <ele>125</ele>
        <time>2021-06-24T00:44:51Z</time>
      </trkpt>
      <trkpt lat="47.11743" lon="1.431">
        <ele>123</ele>
        <time>2021-06-24T00:44:55Z</time>
      </trkpt>
      <trkpt lat="47.11741" lon="1.43138">
        <ele>120</ele>
        <time>2021-06-24T00:45:00Z</time>
      </trkpt>
      <trkpt lat="47.11723" lon="1.433">
        <ele>116</ele>
        <time>2021-06-24T00:45:20Z</time>
      </trkpt>
      <trkpt lat="47.11721" lon="1.43327">
        <ele>115</ele>
        <time>2021-06-24T00:45:23Z</time>
      </trkpt>
      <trkpt lat="47.11723" lon="1.43359">
        <ele>115</ele>
        <time>2021-06-24T00:45:27Z</time>
      </trkpt>
      <trkpt lat="47.11734" lon="1.43415">
        <ele>116</ele>
        <time>2021-06-24T00:45:34Z</time>
      </trkpt>
      <trkpt lat="47.11739" lon="1.43439">
        <ele>117</ele>
        <time>2021-06-24T00:45:37Z</time>
      </trkpt>
      <trkpt lat="47.11745" lon="1.43456">
        <ele>119</ele>
        <time>2021-06-24T00:45:39Z</time>
      </trkpt>
      <trkpt lat="47.11754" lon="1.43466">
        <ele>120</ele>
        <time>2021-06-24T00:45:41Z</time>
      </trkpt>
      <trkpt lat="47.11762" lon="1.4347">
        <ele>120</ele>
        <time>2021-06-24T00:45:43Z</time>
      </trkpt>
      <trkpt lat="47.11773" lon="1.43471">
        <ele>121</ele>
        <time>2021-06-24T00:45:45Z</time>
      </trkpt>
      <trkpt lat="47.11846" lon="1.43455">
        <ele>122</ele>
        <time>2021-06-24T00:45:58Z</time>
      </trkpt>
      <trkpt lat="47.11902" lon="1.4345">
        <ele>124</ele>
        <time>2021-06-24T00:46:08Z</time>
      </trkpt>
      <trkpt lat="47.11927" lon="1.43454">
        <ele>126</ele>
        <time>2021-06-24T00:46:12Z</time>
      </trkpt>
      <trkpt lat="47.11988" lon="1.43478">
        <ele>130</ele>
        <time>2021-06-24T00:46:23Z</time>
      </trkpt>
      <trkpt lat="47.12227" lon="1.43585">
        <ele>137</ele>
        <time>2021-06-24T00:47:08Z</time>
      </trkpt>
      <trkpt lat="47.12263" lon="1.43594">
        <ele>138</ele>
        <time>2021-06-24T00:47:14Z</time>
      </trkpt>
      <trkpt lat="47.12333" lon="1.43606">
        <ele>138</ele>
        <time>2021-06-24T00:47:27Z</time>
      </trkpt>
      <trkpt lat="47.12367" lon="1.43617">
        <ele>139</ele>
        <time>2021-06-24T00:47:33Z</time>
      </trkpt>
      <trkpt lat="47.12386" lon="1.43627">
        <ele>139</ele>
        <time>2021-06-24T00:47:37Z</time>
      </trkpt>
      <trkpt lat="47.12507" lon="1.43711">
        <ele>140</ele>
        <time>2021-06-24T00:48:01Z</time>
      </trkpt>
      <trkpt lat="47.12596" lon="1.43769">
        <ele>141</ele>
        <time>2021-06-24T00:48:18Z</time>
      </trkpt>
      <trkpt lat="47.12656" lon="1.43814">
        <ele>139</ele>
        <time>2021-06-24T00:48:30Z</time>
      </trkpt>
      <trkpt lat="47.12947" lon="1.44099">
        <ele>124</ele>
        <time>2021-06-24T00:49:32Z</time>
      </trkpt>
      <trkpt lat="47.12969" lon="1.44123">
        <ele>123</ele>
        <time>2021-06-24T00:49:37Z</time>
      </trkpt>
      <trkpt lat="47.12988" lon="1.44147">
        <ele>121</ele>
        <time>2021-06-24T00:49:41Z</time>
      </trkpt>
      <trkpt lat="47.13018" lon="1.44202">
        <ele>119</ele>
        <time>2021-06-24T00:49:50Z</time>
      </trkpt>
      <trkpt lat="47.13036" lon="1.44251">
        <ele>118</ele>
        <time>2021-06-24T00:49:57Z</time>
      </trkpt>
      <trkpt lat="47.13041" lon="1.44271">
        <ele>117</ele>
        <time>2021-06-24T00:49:59Z</time>
      </trkpt>
      <trkpt lat="47.13044" lon="1.44298">
        <ele>115</ele>
        <time>2021-06-24T00:50:03Z</time>
      </trkpt>
      <trkpt lat="47.13044" lon="1.44311">
        <ele>115</ele>
        <time>2021-06-24T00:50:04Z</time>
      </trkpt>
      <trkpt lat="47.13041" lon="1.44317">
        <ele>114</ele>
        <time>2021-06-24T00:50:05Z</time>
      </trkpt>
      <trkpt lat="47.13041" lon="1.44327">
        <ele>114</ele>
        <time>2021-06-24T00:50:06Z</time>
      </trkpt>
      <trkpt lat="47.13046" lon="1.44334">
        <ele>113</ele>
        <time>2021-06-24T00:50:07Z</time>
      </trkpt>
      <trkpt lat="47.13049" lon="1.44336">
        <ele>113</ele>
        <time>2021-06-24T00:50:08Z</time>
      </trkpt>
      <trkpt lat="47.13061" lon="1.44371">
        <ele>113</ele>
        <time>2021-06-24T00:50:13Z</time>
      </trkpt>
      <trkpt lat="47.13066" lon="1.44393">
        <ele>113</ele>
        <time>2021-06-24T00:50:16Z</time>
      </trkpt>
      <trkpt lat="47.13067" lon="1.44402">
        <ele>113</ele>
        <time>2021-06-24T00:50:17Z</time>
      </trkpt>
      <trkpt lat="47.13069" lon="1.44412">
        <ele>113</ele>
        <time>2021-06-24T00:50:18Z</time>
      </trkpt>
      <trkpt lat="47.13074" lon="1.44435">
        <ele>114</ele>
        <time>2021-06-24T00:50:21Z</time>
      </trkpt>
      <trkpt lat="47.13077" lon="1.44452">
        <ele>114</ele>
        <time>2021-06-24T00:50:23Z</time>
      </trkpt>
      <trkpt lat="47.1308" lon="1.44466">
        <ele>115</ele>
        <time>2021-06-24T00:50:25Z</time>
      </trkpt>
      <trkpt lat="47.13082" lon="1.44481">
        <ele>115</ele>
        <time>2021-06-24T00:50:27Z</time>
      </trkpt>
      <trkpt lat="47.13083" lon="1.44493">
        <ele>116</ele>
        <time>2021-06-24T00:50:28Z</time>
      </trkpt>
      <trkpt lat="47.13083" lon="1.44511">
        <ele>117</ele>
        <time>2021-06-24T00:50:30Z</time>
      </trkpt>
      <trkpt lat="47.13081" lon="1.44527">
        <ele>118</ele>
        <time>2021-06-24T00:50:32Z</time>
      </trkpt>
      <trkpt lat="47.13076" lon="1.44544">
        <ele>119</ele>
        <time>2021-06-24T00:50:34Z</time>
      </trkpt>
      <trkpt lat="47.1307" lon="1.44561">
        <ele>120</ele>
        <time>2021-06-24T00:50:37Z</time>
      </trkpt>
      <trkpt lat="47.13068" lon="1.44563">
        <ele>120</ele>
        <time>2021-06-24T00:50:37Z</time>
      </trkpt>
      <trkpt lat="47.13065" lon="1.44568">
        <ele>121</ele>
        <time>2021-06-24T00:50:38Z</time>
      </trkpt>
      <trkpt lat="47.13056" lon="1.44583">
        <ele>122</ele>
        <time>2021-06-24T00:50:40Z</time>
      </trkpt>
      <trkpt lat="47.13053" lon="1.44586">
        <ele>122</ele>
        <time>2021-06-24T00:50:41Z</time>
      </trkpt>
      <trkpt lat="47.13012" lon="1.44641">
        <ele>126</ele>
        <time>2021-06-24T00:50:51Z</time>
      </trkpt>
      <trkpt lat="47.13009" lon="1.44644">
        <ele>127</ele>
        <time>2021-06-24T00:50:52Z</time>
      </trkpt>
      <trkpt lat="47.13005" lon="1.4465">
        <ele>127</ele>
        <time>2021-06-24T00:50:53Z</time>
      </trkpt>
      <trkpt lat="47.13" lon="1.44658">
        <ele>127</ele>
        <time>2021-06-24T00:50:54Z</time>
      </trkpt>
      <trkpt lat="47.12989" lon="1.44683">
        <ele>130</ele>
        <time>2021-06-24T00:50:58Z</time>
      </trkpt>
      <trkpt lat="47.12981" lon="1.44711">
        <ele>132</ele>
        <time>2021-06-24T00:51:01Z</time>
      </trkpt>
      <trkpt lat="47.12977" lon="1.44745">
        <ele>135</ele>
        <time>2021-06-24T00:51:05Z</time>
      </trkpt>
      <trkpt lat="47.12976" lon="1.44762">
        <ele>136</ele>
        <time>2021-06-24T00:51:07Z</time>
      </trkpt>
      <trkpt lat="47.12977" lon="1.44796">
        <ele>137</ele>
        <time>2021-06-24T00:51:12Z</time>
      </trkpt>
      <trkpt lat="47.12979" lon="1.44829">
        <ele>139</ele>
        <time>2021-06-24T00:51:16Z</time>
      </trkpt>
      <trkpt lat="47.12982" lon="1.44856">
        <ele>140</ele>
        <time>2021-06-24T00:51:19Z</time>
      </trkpt>
      <trkpt lat="47.12991" lon="1.44901">
        <ele>142</ele>
        <time>2021-06-24T00:51:25Z</time>
      </trkpt>
      <trkpt lat="47.13014" lon="1.44975">
        <ele>140</ele>
        <time>2021-06-24T00:51:34Z</time>
      </trkpt>
      <trkpt lat="47.1302" lon="1.44993">
        <ele>139</ele>
        <time>2021-06-24T00:51:37Z</time>
      </trkpt>
      <trkpt lat="47.13024" lon="1.45006">
        <ele>138</ele>
        <time>2021-06-24T00:51:39Z</time>
      </trkpt>
      <trkpt lat="47.13035" lon="1.45027">
        <ele>137</ele>
        <time>2021-06-24T00:51:42Z</time>
      </trkpt>
      <trkpt lat="47.13044" lon="1.45042">
        <ele>136</ele>
        <time>2021-06-24T00:51:44Z</time>
      </trkpt>
      <trkpt lat="47.13132" lon="1.45148">
        <ele>138</ele>
        <time>2021-06-24T00:52:04Z</time>
      </trkpt>
      <trkpt lat="47.13153" lon="1.45178">
        <ele>140</ele>
        <time>2021-06-24T00:52:10Z</time>
      </trkpt>
      <trkpt lat="47.13168" lon="1.45207">
        <ele>141</ele>
        <time>2021-06-24T00:52:14Z</time>
      </trkpt>
      <trkpt lat="47.1317" lon="1.45211">
        <ele>142</ele>
        <time>2021-06-24T00:52:15Z</time>
      </trkpt>
      <trkpt lat="47.13173" lon="1.45217">
        <ele>142</ele>
        <time>2021-06-24T00:52:16Z</time>
      </trkpt>
      <trkpt lat="47.13183" lon="1.4525">
        <ele>144</ele>
        <time>2021-06-24T00:52:20Z</time>
      </trkpt>
      <trkpt lat="47.1319" lon="1.45282">
        <ele>144</ele>
        <time>2021-06-24T00:52:24Z</time>
      </trkpt>
      <trkpt lat="47.13219" lon="1.45475">
        <ele>148</ele>
        <time>2021-06-24T00:52:48Z</time>
      </trkpt>
      <trkpt lat="47.1322" lon="1.45501">
        <ele>148</ele>
        <time>2021-06-24T00:52:51Z</time>
      </trkpt>
      <trkpt lat="47.13222" lon="1.4557">
        <ele>149</ele>
        <time>2021-06-24T00:52:59Z</time>
      </trkpt>
      <trkpt lat="47.13223" lon="1.45627">
        <ele>149</ele>
        <time>2021-06-24T00:53:06Z</time>
      </trkpt>
      <trkpt lat="47.13226" lon="1.45703">
        <ele>150</ele>
        <time>2021-06-24T00:53:16Z</time>
      </trkpt>
      <trkpt lat="47.13228" lon="1.45778">
        <ele>151</ele>
        <time>2021-06-24T00:53:25Z</time>
      </trkpt>
      <trkpt lat="47.13229" lon="1.45789">
        <ele>151</ele>
        <time>2021-06-24T00:53:26Z</time>
      </trkpt>
      <trkpt lat="47.13233" lon="1.45865">
        <ele>152</ele>
        <time>2021-06-24T00:53:35Z</time>
      </trkpt>
      <trkpt lat="47.13241" lon="1.45927">
        <ele>153</ele>
        <time>2021-06-24T00:53:43Z</time>
      </trkpt>
      <trkpt lat="47.13249" lon="1.4599">
        <ele>155</ele>
        <time>2021-06-24T00:53:51Z</time>
      </trkpt>
      <trkpt lat="47.1326" lon="1.46075">
        <ele>156</ele>
        <time>2021-06-24T00:54:01Z</time>
      </trkpt>
      <trkpt lat="47.13278" lon="1.46207">
        <ele>156</ele>
        <time>2021-06-24T00:54:17Z</time>
      </trkpt>
      <trkpt lat="47.13282" lon="1.46246">
        <ele>157</ele>
        <time>2021-06-24T00:54:22Z</time>
      </trkpt>
      <trkpt lat="47.13282" lon="1.46257">
        <ele>157</ele>
        <time>2021-06-24T00:54:24Z</time>
      </trkpt>
      <trkpt lat="47.13282" lon="1.4627">
        <ele>157</ele>
        <time>2021-06-24T00:54:25Z</time>
      </trkpt>
      <trkpt lat="47.13282" lon="1.46288">
        <ele>157</ele>
        <time>2021-06-24T00:54:27Z</time>
      </trkpt>
      <trkpt lat="47.13281" lon="1.46291">
        <ele>157</ele>
        <time>2021-06-24T00:54:28Z</time>
      </trkpt>
      <trkpt lat="47.13279" lon="1.46338">
        <ele>157</ele>
        <time>2021-06-24T00:54:33Z</time>
      </trkpt>
      <trkpt lat="47.13278" lon="1.46367">
        <ele>157</ele>
        <time>2021-06-24T00:54:37Z</time>
      </trkpt>
      <trkpt lat="47.13273" lon="1.46442">
        <ele>157</ele>
        <time>2021-06-24T00:54:46Z</time>
      </trkpt>
      <trkpt lat="47.13273" lon="1.46447">
        <ele>157</ele>
        <time>2021-06-24T00:54:47Z</time>
      </trkpt>
      <trkpt lat="47.1327" lon="1.46493">
        <ele>156</ele>
        <time>2021-06-24T00:54:52Z</time>
      </trkpt>
      <trkpt lat="47.13269" lon="1.46513">
        <ele>156</ele>
        <time>2021-06-24T00:54:55Z</time>
      </trkpt>
      <trkpt lat="47.13242" lon="1.46952">
        <ele>152</ele>
        <time>2021-06-24T00:55:48Z</time>
      </trkpt>
      <trkpt lat="47.1324" lon="1.4701">
        <ele>152</ele>
        <time>2021-06-24T00:55:55Z</time>
      </trkpt>
      <trkpt lat="47.13241" lon="1.47097">
        <ele>152</ele>
        <time>2021-06-24T00:56:06Z</time>
      </trkpt>
      <trkpt lat="47.13243" lon="1.47165">
        <ele>151</ele>
        <time>2021-06-24T00:56:14Z</time>
      </trkpt>
      <trkpt lat="47.13243" lon="1.47186">
        <ele>151</ele>
        <time>2021-06-24T00:56:16Z</time>
      </trkpt>
      <trkpt lat="47.13243" lon="1.47198">
        <ele>151</ele>
        <time>2021-06-24T00:56:18Z</time>
      </trkpt>
      <trkpt lat="47.13243" lon="1.47207">
        <ele>151</ele>
        <time>2021-06-24T00:56:19Z</time>
      </trkpt>
      <trkpt lat="47.1324" lon="1.4728">
        <ele>149</ele>
        <time>2021-06-24T00:56:28Z</time>
      </trkpt>
      <trkpt lat="47.13228" lon="1.47457">
        <ele>150</ele>
        <time>2021-06-24T00:56:49Z</time>
      </trkpt>
      <trkpt lat="47.13225" lon="1.4753">
        <ele>150</ele>
        <time>2021-06-24T00:56:58Z</time>
      </trkpt>
      <trkpt lat="47.13225" lon="1.47551">
        <ele>150</ele>
        <time>2021-06-24T00:57:01Z</time>
      </trkpt>
      <trkpt lat="47.13231" lon="1.47616">
        <ele>150</ele>
        <time>2021-06-24T00:57:09Z</time>
      </trkpt>
      <trkpt lat="47.13243" lon="1.47724">
        <ele>151</ele>
        <time>2021-06-24T00:57:22Z</time>
      </trkpt>
      <trkpt lat="47.13253" lon="1.47792">
        <ele>151</ele>
        <time>2021-06-24T00:57:30Z</time>
      </trkpt>
      <trkpt lat="47.13255" lon="1.47806">
        <ele>151</ele>
        <time>2021-06-24T00:57:32Z</time>
      </trkpt>
      <trkpt lat="47.13256" lon="1.4781">
        <ele>151</ele>
        <time>2021-06-24T00:57:33Z</time>
      </trkpt>
      <trkpt lat="47.13259" lon="1.47822">
        <ele>151</ele>
        <time>2021-06-24T00:57:34Z</time>
      </trkpt>
      <trkpt lat="47.13274" lon="1.47869">
        <ele>150</ele>
        <time>2021-06-24T00:57:40Z</time>
      </trkpt>
      <trkpt lat="47.13312" lon="1.47946">
        <ele>149</ele>
        <time>2021-06-24T00:57:52Z</time>
      </trkpt>
      <trkpt lat="47.13534" lon="1.48369">
        <ele>143</ele>
        <time>2021-06-24T00:58:57Z</time>
      </trkpt>
      <trkpt lat="47.13566" lon="1.48431">
        <ele>145</ele>
        <time>2021-06-24T00:59:06Z</time>
      </trkpt>
      <trkpt lat="47.1361" lon="1.48516">
        <ele>149</ele>
        <time>2021-06-24T00:59:19Z</time>
      </trkpt>
      <trkpt lat="47.13659" lon="1.48611">
        <ele>151</ele>
        <time>2021-06-24T00:59:33Z</time>
      </trkpt>
      <trkpt lat="47.13721" lon="1.48728">
        <ele>153</ele>
        <time>2021-06-24T00:59:51Z</time>
      </trkpt>
      <trkpt lat="47.13916" lon="1.49098">
        <ele>157</ele>
        <time>2021-06-24T01:00:48Z</time>
      </trkpt>
      <trkpt lat="47.13935" lon="1.49132">
        <ele>157</ele>
        <time>2021-06-24T01:00:53Z</time>
      </trkpt>
      <trkpt lat="47.13945" lon="1.49147">
        <ele>158</ele>
        <time>2021-06-24T01:00:56Z</time>
      </trkpt>
      <trkpt lat="47.13957" lon="1.49164">
        <ele>158</ele>
        <time>2021-06-24T01:00:59Z</time>
      </trkpt>
      <trkpt lat="47.14097" lon="1.49347">
        <ele>161</ele>
        <time>2021-06-24T01:01:32Z</time>
      </trkpt>
      <trkpt lat="47.14136" lon="1.49398">
        <ele>159</ele>
        <time>2021-06-24T01:01:41Z</time>
      </trkpt>
      <trkpt lat="47.14224" lon="1.49511">
        <ele>155</ele>
        <time>2021-06-24T01:02:02Z</time>
      </trkpt>
      <trkpt lat="47.14518" lon="1.49891">
        <ele>154</ele>
        <time>2021-06-24T01:03:12Z</time>
      </trkpt>
      <trkpt lat="47.14562" lon="1.49952">
        <ele>156</ele>
        <time>2021-06-24T01:03:23Z</time>
      </trkpt>
      <trkpt lat="47.14746" lon="1.50184">
        <ele>156</ele>
        <time>2021-06-24T01:04:06Z</time>
      </trkpt>
      <trkpt lat="47.14763" lon="1.50208">
        <ele>156</ele>
        <time>2021-06-24T01:04:10Z</time>
      </trkpt>
      <trkpt lat="47.14787" lon="1.50236">
        <ele>156</ele>
        <time>2021-06-24T01:04:15Z</time>
      </trkpt>
      <trkpt lat="47.14807" lon="1.50259">
        <ele>155</ele>
        <time>2021-06-24T01:04:20Z</time>
      </trkpt>
      <trkpt lat="47.1484" lon="1.50306">
        <ele>154</ele>
        <time>2021-06-24T01:04:28Z</time>
      </trkpt>
      <trkpt lat="47.15084" lon="1.50623">
        <ele>149</ele>
        <time>2021-06-24T01:05:26Z</time>
      </trkpt>
      <trkpt lat="47.15104" lon="1.50651">
        <ele>149</ele>
        <time>2021-06-24T01:05:31Z</time>
      </trkpt>
      <trkpt lat="47.15122" lon="1.50683">
        <ele>149</ele>
        <time>2021-06-24T01:05:36Z</time>
      </trkpt>
      <trkpt lat="47.15146" lon="1.50736">
        <ele>149</ele>
        <time>2021-06-24T01:05:44Z</time>
      </trkpt>
      <trkpt lat="47.15161" lon="1.50772">
        <ele>149</ele>
        <time>2021-06-24T01:05:49Z</time>
      </trkpt>
      <trkpt lat="47.15175" lon="1.50805">
        <ele>149</ele>
        <time>2021-06-24T01:05:53Z</time>
      </trkpt>
      <trkpt lat="47.15179" lon="1.50816">
        <ele>149</ele>
        <time>2021-06-24T01:05:55Z</time>
      </trkpt>
      <trkpt lat="47.15206" lon="1.50882">
        <ele>148</ele>
        <time>2021-06-24T01:06:04Z</time>
      </trkpt>
      <trkpt lat="47.15239" lon="1.50972">
        <ele>148</ele>
        <time>2021-06-24T01:06:17Z</time>
      </trkpt>
      <trkpt lat="47.15258" lon="1.51034">
        <ele>147</ele>
        <time>2021-06-24T01:06:25Z</time>
      </trkpt>
      <trkpt lat="47.15279" lon="1.51118">
        <ele>147</ele>
        <time>2021-06-24T01:06:36Z</time>
      </trkpt>
      <trkpt lat="47.15292" lon="1.51181">
        <ele>147</ele>
        <time>2021-06-24T01:06:44Z</time>
      </trkpt>
      <trkpt lat="47.15318" lon="1.51321">
        <ele>148</ele>
        <time>2021-06-24T01:07:01Z</time>
      </trkpt>
      <trkpt lat="47.15323" lon="1.51355">
        <ele>148</ele>
        <time>2021-06-24T01:07:05Z</time>
      </trkpt>
      <trkpt lat="47.15331" lon="1.51393">
        <ele>148</ele>
        <time>2021-06-24T01:07:10Z</time>
      </trkpt>
      <trkpt lat="47.15347" lon="1.51497">
        <ele>148</ele>
        <time>2021-06-24T01:07:23Z</time>
      </trkpt>
      <trkpt lat="47.15365" lon="1.51639">
        <ele>149</ele>
        <time>2021-06-24T01:07:41Z</time>
      </trkpt>
      <trkpt lat="47.15371" lon="1.51686">
        <ele>149</ele>
        <time>2021-06-24T01:07:46Z</time>
      </trkpt>
      <trkpt lat="47.15382" lon="1.5177">
        <ele>147</ele>
        <time>2021-06-24T01:07:57Z</time>
      </trkpt>
      <trkpt lat="47.15395" lon="1.51881">
        <ele>148</ele>
        <time>2021-06-24T01:08:10Z</time>
      </trkpt>
      <trkpt lat="47.15417" lon="1.52146">
        <ele>146</ele>
        <time>2021-06-24T01:08:43Z</time>
      </trkpt>
      <trkpt lat="47.15447" lon="1.52454">
        <ele>146</ele>
        <time>2021-06-24T01:09:20Z</time>
      </trkpt>
      <trkpt lat="47.15451" lon="1.52491">
        <ele>146</ele>
        <time>2021-06-24T01:09:25Z</time>
      </trkpt>
      <trkpt lat="47.15451" lon="1.52495">
        <ele>146</ele>
        <time>2021-06-24T01:09:25Z</time>
      </trkpt>
      <trkpt lat="47.15456" lon="1.52525">
        <ele>146</ele>
        <time>2021-06-24T01:09:29Z</time>
      </trkpt>
      <trkpt lat="47.15469" lon="1.52614">
        <ele>148</ele>
        <time>2021-06-24T01:09:40Z</time>
      </trkpt>
      <trkpt lat="47.15473" lon="1.52662">
        <ele>147</ele>
        <time>2021-06-24T01:09:46Z</time>
      </trkpt>
      <trkpt lat="47.15472" lon="1.5272">
        <ele>148</ele>
        <time>2021-06-24T01:09:53Z</time>
      </trkpt>
      <trkpt lat="47.15464" lon="1.52813">
        <ele>147</ele>
        <time>2021-06-24T01:10:04Z</time>
      </trkpt>
      <trkpt lat="47.1546" lon="1.52905">
        <ele>144</ele>
        <time>2021-06-24T01:10:15Z</time>
      </trkpt>
      <trkpt lat="47.15461" lon="1.52966">
        <ele>143</ele>
        <time>2021-06-24T01:10:23Z</time>
      </trkpt>
      <trkpt lat="47.15466" lon="1.5305">
        <ele>142</ele>
        <time>2021-06-24T01:10:33Z</time>
      </trkpt>
      <trkpt lat="47.1547" lon="1.53089">
        <ele>143</ele>
        <time>2021-06-24T01:10:38Z</time>
      </trkpt>
      <trkpt lat="47.15473" lon="1.53121">
        <ele>143</ele>
        <time>2021-06-24T01:10:42Z</time>
      </trkpt>
      <trkpt lat="47.15475" lon="1.53139">
        <ele>144</ele>
        <time>2021-06-24T01:10:44Z</time>
      </trkpt>
      <trkpt lat="47.15491" lon="1.53241">
        <ele>145</ele>
        <time>2021-06-24T01:10:57Z</time>
      </trkpt>
      <trkpt lat="47.1552" lon="1.53387">
        <ele>147</ele>
        <time>2021-06-24T01:11:15Z</time>
      </trkpt>
      <trkpt lat="47.1554" lon="1.53477">
        <ele>145</ele>
        <time>2021-06-24T01:11:26Z</time>
      </trkpt>
      <trkpt lat="47.15562" lon="1.53558">
        <ele>144</ele>
        <time>2021-06-24T01:11:37Z</time>
      </trkpt>
      <trkpt lat="47.15581" lon="1.53624">
        <ele>142</ele>
        <time>2021-06-24T01:11:46Z</time>
      </trkpt>
      <trkpt lat="47.15596" lon="1.53679">
        <ele>140</ele>
        <time>2021-06-24T01:11:53Z</time>
      </trkpt>
      <trkpt lat="47.15644" lon="1.53844">
        <ele>139</ele>
        <time>2021-06-24T01:12:15Z</time>
      </trkpt>
      <trkpt lat="47.15657" lon="1.53901">
        <ele>139</ele>
        <time>2021-06-24T01:12:22Z</time>
      </trkpt>
      <trkpt lat="47.15662" lon="1.53961">
        <ele>139</ele>
        <time>2021-06-24T01:12:29Z</time>
      </trkpt>
      <trkpt lat="47.15663" lon="1.54056">
        <ele>142</ele>
        <time>2021-06-24T01:12:41Z</time>
      </trkpt>
      <trkpt lat="47.15663" lon="1.54083">
        <ele>143</ele>
        <time>2021-06-24T01:12:44Z</time>
      </trkpt>
      <trkpt lat="47.15664" lon="1.54088">
        <ele>143</ele>
        <time>2021-06-24T01:12:45Z</time>
      </trkpt>
      <trkpt lat="47.15666" lon="1.54134">
        <ele>142</ele>
        <time>2021-06-24T01:12:50Z</time>
      </trkpt>
      <trkpt lat="47.15674" lon="1.54292">
        <ele>141</ele>
        <time>2021-06-24T01:13:09Z</time>
      </trkpt>
      <trkpt lat="47.15682" lon="1.54409">
        <ele>140</ele>
        <time>2021-06-24T01:13:24Z</time>
      </trkpt>
      <trkpt lat="47.15686" lon="1.54454">
        <ele>140</ele>
        <time>2021-06-24T01:13:29Z</time>
      </trkpt>
      <trkpt lat="47.15692" lon="1.54486">
        <ele>140</ele>
        <time>2021-06-24T01:13:33Z</time>
      </trkpt>
      <trkpt lat="47.15704" lon="1.54524">
        <ele>139</ele>
        <time>2021-06-24T01:13:38Z</time>
      </trkpt>
      <trkpt lat="47.15706" lon="1.5453">
        <ele>139</ele>
        <time>2021-06-24T01:13:39Z</time>
      </trkpt>
      <trkpt lat="47.15708" lon="1.54535">
        <ele>139</ele>
        <time>2021-06-24T01:13:40Z</time>
      </trkpt>
      <trkpt lat="47.1571" lon="1.54539">
        <ele>139</ele>
        <time>2021-06-24T01:13:40Z</time>
      </trkpt>
      <trkpt lat="47.15762" lon="1.54642">
        <ele>136</ele>
        <time>2021-06-24T01:13:56Z</time>
      </trkpt>
      <trkpt lat="47.15774" lon="1.54669">
        <ele>136</ele>
        <time>2021-06-24T01:14:00Z</time>
      </trkpt>
      <trkpt lat="47.15779" lon="1.54684">
        <ele>135</ele>
        <time>2021-06-24T01:14:02Z</time>
      </trkpt>
      <trkpt lat="47.15785" lon="1.54733">
        <ele>134</ele>
        <time>2021-06-24T01:14:08Z</time>
      </trkpt>
      <trkpt lat="47.15796" lon="1.54884">
        <ele>131</ele>
        <time>2021-06-24T01:14:26Z</time>
      </trkpt>
      <trkpt lat="47.15805" lon="1.54989">
        <ele>129</ele>
        <time>2021-06-24T01:14:39Z</time>
      </trkpt>
      <trkpt lat="47.15806" lon="1.55006">
        <ele>128</ele>
        <time>2021-06-24T01:14:41Z</time>
      </trkpt>
      <trkpt lat="47.15809" lon="1.55046">
        <ele>129</ele>
        <time>2021-06-24T01:14:46Z</time>
      </trkpt>
      <trkpt lat="47.15807" lon="1.55086">
        <ele>129</ele>
        <time>2021-06-24T01:14:51Z</time>
      </trkpt>
      <trkpt lat="47.15792" lon="1.55211">
        <ele>128</ele>
        <time>2021-06-24T01:15:06Z</time>
      </trkpt>
      <trkpt lat="47.15791" lon="1.55223">
        <ele>128</ele>
        <time>2021-06-24T01:15:07Z</time>
      </trkpt>
      <trkpt lat="47.15791" lon="1.55227">
        <ele>128</ele>
        <time>2021-06-24T01:15:08Z</time>
      </trkpt>
      <trkpt lat="47.1579" lon="1.55252">
        <ele>127</ele>
        <time>2021-06-24T01:15:11Z</time>
      </trkpt>
      <trkpt lat="47.15794" lon="1.55306">
        <ele>127</ele>
        <time>2021-06-24T01:15:18Z</time>
      </trkpt>
      <trkpt lat="47.15815" lon="1.55492">
        <ele>126</ele>
        <time>2021-06-24T01:15:40Z</time>
      </trkpt>
      <trkpt lat="47.15817" lon="1.55511">
        <ele>125</ele>
        <time>2021-06-24T01:15:43Z</time>
      </trkpt>
      <trkpt lat="47.15835" lon="1.55675">
        <ele>125</ele>
        <time>2021-06-24T01:16:03Z</time>
      </trkpt>
      <trkpt lat="47.15842" lon="1.55747">
        <ele>129</ele>
        <time>2021-06-24T01:16:12Z</time>
      </trkpt>
      <trkpt lat="47.15848" lon="1.55801">
        <ele>131</ele>
        <time>2021-06-24T01:16:18Z</time>
      </trkpt>
      <trkpt lat="47.1585" lon="1.55812">
        <ele>131</ele>
        <time>2021-06-24T01:16:20Z</time>
      </trkpt>
      <trkpt lat="47.15853" lon="1.55829">
        <ele>132</ele>
        <time>2021-06-24T01:16:22Z</time>
      </trkpt>
      <trkpt lat="47.15857" lon="1.55844">
        <ele>132</ele>
        <time>2021-06-24T01:16:24Z</time>
      </trkpt>
      <trkpt lat="47.15943" lon="1.56082">
        <ele>128</ele>
        <time>2021-06-24T01:16:56Z</time>
      </trkpt>
      <trkpt lat="47.15962" lon="1.56138">
        <ele>129</ele>
        <time>2021-06-24T01:17:04Z</time>
      </trkpt>
      <trkpt lat="47.15973" lon="1.56172">
        <ele>130</ele>
        <time>2021-06-24T01:17:08Z</time>
      </trkpt>
      <trkpt lat="47.15976" lon="1.56184">
        <ele>129</ele>
        <time>2021-06-24T01:17:10Z</time>
      </trkpt>
      <trkpt lat="47.1598" lon="1.56194">
        <ele>129</ele>
        <time>2021-06-24T01:17:11Z</time>
      </trkpt>
      <trkpt lat="47.15987" lon="1.56201">
        <ele>128</ele>
        <time>2021-06-24T01:17:13Z</time>
      </trkpt>
      <trkpt lat="47.15989" lon="1.56202">
        <ele>128</ele>
        <time>2021-06-24T01:17:13Z</time>
      </trkpt>
      <trkpt lat="47.15987" lon="1.56209">
        <ele>128</ele>
        <time>2021-06-24T01:17:14Z</time>
      </trkpt>
      <trkpt lat="47.15988" lon="1.56224">
        <ele>128</ele>
        <time>2021-06-24T01:17:16Z</time>
      </trkpt>
      <trkpt lat="47.1599" lon="1.56233">
        <ele>127</ele>
        <time>2021-06-24T01:17:17Z</time>
      </trkpt>
      <trkpt lat="47.16124" lon="1.56568">
        <ele>121</ele>
        <time>2021-06-24T01:18:04Z</time>
      </trkpt>
      <trkpt lat="47.16059" lon="1.56408">
        <ele>121</ele>
        <time>2021-06-24T01:18:27Z</time>
      </trkpt>
      <trkpt lat="47.15983" lon="1.56466">
        <ele>128</ele>
        <time>2021-06-24T01:18:42Z</time>
      </trkpt>
      <trkpt lat="47.15974" lon="1.56475">
        <ele>129</ele>
        <time>2021-06-24T01:18:44Z</time>
      </trkpt>
      <trkpt lat="47.15953" lon="1.56461">
        <ele>129</ele>
        <time>2021-06-24T01:18:48Z</time>
      </trkpt>
      <trkpt lat="47.15954" lon="1.56458">
        <ele>129</ele>
        <time>2021-06-24T01:18:48Z</time>
      </trkpt>
      <trkpt lat="47.15952" lon="1.56449">
        <ele>129</ele>
        <time>2021-06-24T01:18:49Z</time>
      </trkpt>
      <trkpt lat="47.15946" lon="1.56447">
        <ele>129</ele>
        <time>2021-06-24T01:18:51Z</time>
      </trkpt>
      <trkpt lat="47.15942" lon="1.56451">
        <ele>129</ele>
        <time>2021-06-24T01:18:51Z</time>
      </trkpt>
      <trkpt lat="47.15942" lon="1.56462">
        <ele>129</ele>
        <time>2021-06-24T01:18:53Z</time>
      </trkpt>
      <trkpt lat="47.15937" lon="1.56464">
        <ele>129</ele>
        <time>2021-06-24T01:18:54Z</time>
      </trkpt>
      <trkpt lat="47.15899" lon="1.56468">
        <ele>128</ele>
        <time>2021-06-24T01:19:00Z</time>
      </trkpt>
      <trkpt lat="47.15889" lon="1.56456">
        <ele>129</ele>
        <time>2021-06-24T01:19:03Z</time>
      </trkpt>
      <trkpt lat="47.1585" lon="1.56397">
        <ele>130</ele>
        <time>2021-06-24T01:19:13Z</time>
      </trkpt>
      <trkpt lat="47.15848" lon="1.56394">
        <ele>130</ele>
        <time>2021-06-24T01:19:13Z</time>
      </trkpt>
      <trkpt lat="47.15845" lon="1.56392">
        <ele>130</ele>
        <time>2021-06-24T01:19:14Z</time>
      </trkpt>
      <trkpt lat="47.15837" lon="1.56392">
        <ele>130</ele>
        <time>2021-06-24T01:19:15Z</time>
      </trkpt>
      <trkpt lat="47.15834" lon="1.56393">
        <ele>130</ele>
        <time>2021-06-24T01:19:16Z</time>
      </trkpt>
      <trkpt lat="47.15831" lon="1.56394">
        <ele>130</ele>
        <time>2021-06-24T01:19:16Z</time>
      </trkpt>
      <trkpt lat="47.15827" lon="1.56396">
        <ele>130</ele>
        <time>2021-06-24T01:19:17Z</time>
      </trkpt>
      <trkpt lat="47.15757" lon="1.56458">
        <ele>116</ele>
        <time>2021-06-24T01:19:32Z</time>
      </trkpt>
      <trkpt lat="47.15749" lon="1.56463">
        <ele>115</ele>
        <time>2021-06-24T01:19:33Z</time>
      </trkpt>
      <trkpt lat="47.15735" lon="1.56464">
        <ele>113</ele>
        <time>2021-06-24T01:19:36Z</time>
      </trkpt>
      <trkpt lat="47.15727" lon="1.56461">
        <ele>112</ele>
        <time>2021-06-24T01:19:37Z</time>
      </trkpt>
      <trkpt lat="47.15719" lon="1.56454">
        <ele>111</ele>
        <time>2021-06-24T01:19:39Z</time>
      </trkpt>
      <trkpt lat="47.15664" lon="1.5636">
        <ele>111</ele>
        <time>2021-06-24T01:19:54Z</time>
      </trkpt>
      <trkpt lat="47.15652" lon="1.5635">
        <ele>110</ele>
        <time>2021-06-24T01:19:56Z</time>
      </trkpt>
      <trkpt lat="47.15648" lon="1.56349">
        <ele>110</ele>
        <time>2021-06-24T01:19:57Z</time>
      </trkpt>
      <trkpt lat="47.15644" lon="1.56348">
        <ele>109</ele>
        <time>2021-06-24T01:19:58Z</time>
      </trkpt>
      <trkpt lat="47.15643" lon="1.56348">
        <ele>109</ele>
        <time>2021-06-24T01:19:58Z</time>
      </trkpt>
      <trkpt lat="47.15625" lon="1.5635">
        <ele>105</ele>
        <time>2021-06-24T01:20:01Z</time>
      </trkpt>
      <trkpt lat="47.15611" lon="1.56357">
        <ele>103</ele>
        <time>2021-06-24T01:20:04Z</time>
      </trkpt>
      <trkpt lat="47.15601" lon="1.56365">
        <ele>100</ele>
        <time>2021-06-24T01:20:06Z</time>
      </trkpt>
      <trkpt lat="47.15587" lon="1.56374">
        <ele>98</ele>
        <time>2021-06-24T01:20:08Z</time>
      </trkpt>
      <trkpt lat="47.15542" lon="1.56409">
        <ele>97</ele>
        <time>2021-06-24T01:20:18Z</time>
      </trkpt>
      <trkpt lat="47.15515" lon="1.56429">
        <ele>97</ele>
        <time>2021-06-24T01:20:23Z</time>
      </trkpt>
      <trkpt lat="47.1547" lon="1.56462">
        <ele>98</ele>
        <time>2021-06-24T01:20:32Z</time>
      </trkpt>
      <trkpt lat="47.15369" lon="1.56537">
        <ele>101</ele>
        <time>2021-06-24T01:20:52Z</time>
      </trkpt>
      <trkpt lat="47.15358" lon="1.56542">
        <ele>102</ele>
        <time>2021-06-24T01:20:54Z</time>
      </trkpt>
      <trkpt lat="47.15355" lon="1.56545">
        <ele>102</ele>
        <time>2021-06-24T01:20:55Z</time>
      </trkpt>
      <trkpt lat="47.15352" lon="1.56548">
        <ele>102</ele>
        <time>2021-06-24T01:20:55Z</time>
      </trkpt>
      <trkpt lat="47.15307" lon="1.56581">
        <ele>105</ele>
        <time>2021-06-24T01:21:04Z</time>
      </trkpt>
      <trkpt lat="47.15305" lon="1.56584">
        <ele>105</ele>
        <time>2021-06-24T01:21:05Z</time>
      </trkpt>
      <trkpt lat="47.15301" lon="1.56588">
        <ele>105</ele>
        <time>2021-06-24T01:21:06Z</time>
      </trkpt>
      <trkpt lat="47.15295" lon="1.56596">
        <ele>106</ele>
        <time>2021-06-24T01:21:07Z</time>
      </trkpt>
      <trkpt lat="47.1529" lon="1.56604">
        <ele>107</ele>
        <time>2021-06-24T01:21:08Z</time>
      </trkpt>
      <trkpt lat="47.15275" lon="1.56609">
        <ele>107</ele>
        <time>2021-06-24T01:21:11Z</time>
      </trkpt>
      <trkpt lat="47.15256" lon="1.56618">
        <ele>108</ele>
        <time>2021-06-24T01:21:15Z</time>
      </trkpt>
      <trkpt lat="47.1507" lon="1.56755">
        <ele>119</ele>
        <time>2021-06-24T01:21:52Z</time>
      </trkpt>
      <trkpt lat="47.15066" lon="1.56758">
        <ele>120</ele>
        <time>2021-06-24T01:21:52Z</time>
      </trkpt>
      <trkpt lat="47.15006" lon="1.56802">
        <ele>121</ele>
        <time>2021-06-24T01:22:04Z</time>
      </trkpt>
      <trkpt lat="47.14953" lon="1.56841">
        <ele>125</ele>
        <time>2021-06-24T01:22:15Z</time>
      </trkpt>
      <trkpt lat="47.14803" lon="1.56951">
        <ele>129</ele>
        <time>2021-06-24T01:22:45Z</time>
      </trkpt>
      <trkpt lat="47.14713" lon="1.57016">
        <ele>131</ele>
        <time>2021-06-24T01:23:03Z</time>
      </trkpt>
      <trkpt lat="47.14712" lon="1.57017">
        <ele>131</ele>
        <time>2021-06-24T01:23:03Z</time>
      </trkpt>
      <trkpt lat="47.14648" lon="1.57064">
        <ele>133</ele>
        <time>2021-06-24T01:23:16Z</time>
      </trkpt>
      <trkpt lat="47.14582" lon="1.57111">
        <ele>136</ele>
        <time>2021-06-24T01:23:29Z</time>
      </trkpt>
      <trkpt lat="47.1455" lon="1.57135">
        <ele>136</ele>
        <time>2021-06-24T01:23:35Z</time>
      </trkpt>
      <trkpt lat="47.14481" lon="1.57186">
        <ele>138</ele>
        <time>2021-06-24T01:23:49Z</time>
      </trkpt>
      <trkpt lat="47.14476" lon="1.5719">
        <ele>138</ele>
        <time>2021-06-24T01:23:50Z</time>
      </trkpt>
      <trkpt lat="47.14371" lon="1.57267">
        <ele>139</ele>
        <time>2021-06-24T01:24:11Z</time>
      </trkpt>
      <trkpt lat="47.14291" lon="1.57325">
        <ele>140</ele>
        <time>2021-06-24T01:24:27Z</time>
      </trkpt>
      <trkpt lat="47.1426" lon="1.57348">
        <ele>140</ele>
        <time>2021-06-24T01:24:33Z</time>
      </trkpt>
      <trkpt lat="47.14106" lon="1.57461">
        <ele>139</ele>
        <time>2021-06-24T01:25:03Z</time>
      </trkpt>
      <trkpt lat="47.14066" lon="1.5749">
        <ele>138</ele>
        <time>2021-06-24T01:25:11Z</time>
      </trkpt>
      <trkpt lat="47.1401" lon="1.57531">
        <ele>138</ele>
        <time>2021-06-24T01:25:22Z</time>
      </trkpt>
      <trkpt lat="47.13884" lon="1.57623">
        <ele>141</ele>
        <time>2021-06-24T01:25:47Z</time>
      </trkpt>
      <trkpt lat="47.13821" lon="1.57669">
        <ele>141</ele>
        <time>2021-06-24T01:26:00Z</time>
      </trkpt>
      <trkpt lat="47.13761" lon="1.57713">
        <ele>141</ele>
        <time>2021-06-24T01:26:12Z</time>
      </trkpt>
      <trkpt lat="47.13747" lon="1.57723">
        <ele>142</ele>
        <time>2021-06-24T01:26:15Z</time>
      </trkpt>
      <trkpt lat="47.13736" lon="1.5773">
        <ele>142</ele>
        <time>2021-06-24T01:26:17Z</time>
      </trkpt>
      <trkpt lat="47.13721" lon="1.57739">
        <ele>142</ele>
        <time>2021-06-24T01:26:20Z</time>
      </trkpt>
      <trkpt lat="47.13699" lon="1.57752">
        <ele>142</ele>
        <time>2021-06-24T01:26:24Z</time>
      </trkpt>
      <trkpt lat="47.13643" lon="1.5778">
        <ele>143</ele>
        <time>2021-06-24T01:26:34Z</time>
      </trkpt>
      <trkpt lat="47.13635" lon="1.57783">
        <ele>143</ele>
        <time>2021-06-24T01:26:36Z</time>
      </trkpt>
      <trkpt lat="47.13629" lon="1.57785">
        <ele>143</ele>
        <time>2021-06-24T01:26:37Z</time>
      </trkpt>
      <trkpt lat="47.13585" lon="1.57799">
        <ele>144</ele>
        <time>2021-06-24T01:26:45Z</time>
      </trkpt>
      <trkpt lat="47.13547" lon="1.57809">
        <ele>143</ele>
        <time>2021-06-24T01:26:52Z</time>
      </trkpt>
      <trkpt lat="47.13477" lon="1.57819">
        <ele>143</ele>
        <time>2021-06-24T01:27:04Z</time>
      </trkpt>
      <trkpt lat="47.13425" lon="1.57826">
        <ele>142</ele>
        <time>2021-06-24T01:27:14Z</time>
      </trkpt>
      <trkpt lat="47.13151" lon="1.57857">
        <ele>143</ele>
        <time>2021-06-24T01:28:03Z</time>
      </trkpt>
      <trkpt lat="47.12894" lon="1.57886">
        <ele>145</ele>
        <time>2021-06-24T01:28:48Z</time>
      </trkpt>
      <trkpt lat="47.12516" lon="1.57928">
        <ele>146</ele>
        <time>2021-06-24T01:29:56Z</time>
      </trkpt>
      <trkpt lat="47.12513" lon="1.57929">
        <ele>146</ele>
        <time>2021-06-24T01:29:56Z</time>
      </trkpt>
      <trkpt lat="47.11977" lon="1.57991">
        <ele>146</ele>
        <time>2021-06-24T01:31:32Z</time>
      </trkpt>
      <trkpt lat="47.11889" lon="1.58001">
        <ele>147</ele>
        <time>2021-06-24T01:31:48Z</time>
      </trkpt>
      <trkpt lat="47.11495" lon="1.58046">
        <ele>149</ele>
        <time>2021-06-24T01:32:58Z</time>
      </trkpt>
      <trkpt lat="47.11161" lon="1.58085">
        <ele>153</ele>
        <time>2021-06-24T01:33:58Z</time>
      </trkpt>
      <trkpt lat="47.10916" lon="1.58112">
        <ele>159</ele>
        <time>2021-06-24T01:34:41Z</time>
      </trkpt>
      <trkpt lat="47.10804" lon="1.58125">
        <ele>159</ele>
        <time>2021-06-24T01:35:01Z</time>
      </trkpt>
      <trkpt lat="47.10799" lon="1.58125">
        <ele>159</ele>
        <time>2021-06-24T01:35:02Z</time>
      </trkpt>
      <trkpt lat="47.10715" lon="1.58135">
        <ele>160</ele>
        <time>2021-06-24T01:35:17Z</time>
      </trkpt>
      <trkpt lat="47.10339" lon="1.58178">
        <ele>164</ele>
        <time>2021-06-24T01:36:24Z</time>
      </trkpt>
      <trkpt lat="47.10166" lon="1.58198">
        <ele>165</ele>
        <time>2021-06-24T01:36:55Z</time>
      </trkpt>
      <trkpt lat="47.0986" lon="1.5823">
        <ele>170</ele>
        <time>2021-06-24T01:37:50Z</time>
      </trkpt>
      <trkpt lat="47.0984" lon="1.58233">
        <ele>170</ele>
        <time>2021-06-24T01:37:53Z</time>
      </trkpt>
      <trkpt lat="47.09831" lon="1.58234">
        <ele>170</ele>
        <time>2021-06-24T01:37:55Z</time>
      </trkpt>
      <trkpt lat="47.09693" lon="1.58252">
        <ele>170</ele>
        <time>2021-06-24T01:38:20Z</time>
      </trkpt>
      <trkpt lat="47.09379" lon="1.58286">
        <ele>174</ele>
        <time>2021-06-24T01:39:16Z</time>
      </trkpt>
      <trkpt lat="47.09315" lon="1.58293">
        <ele>174</ele>
        <time>2021-06-24T01:39:27Z</time>
      </trkpt>
      <trkpt lat="47.08586" lon="1.58376">
        <ele>182</ele>
        <time>2021-06-24T01:41:37Z</time>
      </trkpt>
      <trkpt lat="47.08396" lon="1.58397">
        <ele>185</ele>
        <time>2021-06-24T01:42:11Z</time>
      </trkpt>
      <trkpt lat="47.08156" lon="1.58424">
        <ele>187</ele>
        <time>2021-06-24T01:42:54Z</time>
      </trkpt>
      <trkpt lat="47.08122" lon="1.58432">
        <ele>187</ele>
        <time>2021-06-24T01:43:00Z</time>
      </trkpt>
      <trkpt lat="47.08077" lon="1.58448">
        <ele>187</ele>
        <time>2021-06-24T01:43:08Z</time>
      </trkpt>
      <trkpt lat="47.08049" lon="1.5846">
        <ele>186</ele>
        <time>2021-06-24T01:43:14Z</time>
      </trkpt>
      <trkpt lat="47.08022" lon="1.58475">
        <ele>186</ele>
        <time>2021-06-24T01:43:19Z</time>
      </trkpt>
      <trkpt lat="47.07969" lon="1.5851">
        <ele>186</ele>
        <time>2021-06-24T01:43:29Z</time>
      </trkpt>
      <trkpt lat="47.07424" lon="1.58965">
        <ele>176</ele>
        <time>2021-06-24T01:45:21Z</time>
      </trkpt>
      <trkpt lat="47.07087" lon="1.59245">
        <ele>177</ele>
        <time>2021-06-24T01:46:29Z</time>
      </trkpt>
      <trkpt lat="47.06912" lon="1.59391">
        <ele>176</ele>
        <time>2021-06-24T01:47:05Z</time>
      </trkpt>
      <trkpt lat="47.06791" lon="1.59491">
        <ele>176</ele>
        <time>2021-06-24T01:47:30Z</time>
      </trkpt>
      <trkpt lat="47.06632" lon="1.59624">
        <ele>176</ele>
        <time>2021-06-24T01:48:03Z</time>
      </trkpt>
      <trkpt lat="47.06494" lon="1.59739">
        <ele>176</ele>
        <time>2021-06-24T01:48:31Z</time>
      </trkpt>
      <trkpt lat="47.064" lon="1.59818">
        <ele>175</ele>
        <time>2021-06-24T01:48:50Z</time>
      </trkpt>
      <trkpt lat="47.05963" lon="1.6018">
        <ele>178</ele>
        <time>2021-06-24T01:50:19Z</time>
      </trkpt>
      <trkpt lat="47.05913" lon="1.60222">
        <ele>179</ele>
        <time>2021-06-24T01:50:30Z</time>
      </trkpt>
      <trkpt lat="47.05901" lon="1.60232">
        <ele>179</ele>
        <time>2021-06-24T01:50:32Z</time>
      </trkpt>
      <trkpt lat="47.05883" lon="1.60247">
        <ele>179</ele>
        <time>2021-06-24T01:50:36Z</time>
      </trkpt>
      <trkpt lat="47.05832" lon="1.60291">
        <ele>181</ele>
        <time>2021-06-24T01:50:46Z</time>
      </trkpt>
      <trkpt lat="47.05756" lon="1.60354">
        <ele>183</ele>
        <time>2021-06-24T01:51:02Z</time>
      </trkpt>
      <trkpt lat="47.05493" lon="1.60569">
        <ele>191</ele>
        <time>2021-06-24T01:51:55Z</time>
      </trkpt>
      <trkpt lat="47.05439" lon="1.606">
        <ele>191</ele>
        <time>2021-06-24T01:52:06Z</time>
      </trkpt>
      <trkpt lat="47.0539" lon="1.60623">
        <ele>191</ele>
        <time>2021-06-24T01:52:15Z</time>
      </trkpt>
      <trkpt lat="47.05347" lon="1.60635">
        <ele>192</ele>
        <time>2021-06-24T01:52:23Z</time>
      </trkpt>
      <trkpt lat="47.05301" lon="1.60643">
        <ele>192</ele>
        <time>2021-06-24T01:52:31Z</time>
      </trkpt>
      <trkpt lat="47.05129" lon="1.60654">
        <ele>189</ele>
        <time>2021-06-24T01:53:01Z</time>
      </trkpt>
      <trkpt lat="47.0507" lon="1.60658">
        <ele>188</ele>
        <time>2021-06-24T01:53:12Z</time>
      </trkpt>
      <trkpt lat="47.04916" lon="1.60667">
        <ele>185</ele>
        <time>2021-06-24T01:53:39Z</time>
      </trkpt>
      <trkpt lat="47.0474" lon="1.60678">
        <ele>185</ele>
        <time>2021-06-24T01:54:11Z</time>
      </trkpt>
      <trkpt lat="47.046" lon="1.60687">
        <ele>184</ele>
        <time>2021-06-24T01:54:36Z</time>
      </trkpt>
      <trkpt lat="47.04488" lon="1.60694">
        <ele>186</ele>
        <time>2021-06-24T01:54:56Z</time>
      </trkpt>
      <trkpt lat="47.04412" lon="1.60699">
        <ele>187</ele>
        <time>2021-06-24T01:55:09Z</time>
      </trkpt>
      <trkpt lat="47.043" lon="1.60707">
        <ele>188</ele>
        <time>2021-06-24T01:55:29Z</time>
      </trkpt>
      <trkpt lat="47.03603" lon="1.6075">
        <ele>193</ele>
        <time>2021-06-24T01:57:33Z</time>
      </trkpt>
      <trkpt lat="47.03534" lon="1.60754">
        <ele>194</ele>
        <time>2021-06-24T01:57:45Z</time>
      </trkpt>
      <trkpt lat="47.03357" lon="1.60766">
        <ele>199</ele>
        <time>2021-06-24T01:58:17Z</time>
      </trkpt>
      <trkpt lat="47.03297" lon="1.60767">
        <ele>199</ele>
        <time>2021-06-24T01:58:28Z</time>
      </trkpt>
      <trkpt lat="47.03131" lon="1.60772">
        <ele>198</ele>
        <time>2021-06-24T01:58:57Z</time>
      </trkpt>
      <trkpt lat="47.02568" lon="1.60785">
        <ele>204</ele>
        <time>2021-06-24T02:00:37Z</time>
      </trkpt>
      <trkpt lat="47.02388" lon="1.60796">
        <ele>201</ele>
        <time>2021-06-24T02:01:09Z</time>
      </trkpt>
      <trkpt lat="47.02309" lon="1.60806">
        <ele>198</ele>
        <time>2021-06-24T02:01:24Z</time>
      </trkpt>
      <trkpt lat="47.02271" lon="1.60806">
        <ele>196</ele>
        <time>2021-06-24T02:01:30Z</time>
      </trkpt>
      <trkpt lat="47.0224" lon="1.6081">
        <ele>195</ele>
        <time>2021-06-24T02:01:36Z</time>
      </trkpt>
      <trkpt lat="47.02178" lon="1.60813">
        <ele>193</ele>
        <time>2021-06-24T02:01:47Z</time>
      </trkpt>
      <trkpt lat="47.01886" lon="1.60837">
        <ele>179</ele>
        <time>2021-06-24T02:02:39Z</time>
      </trkpt>
      <trkpt lat="47.0184" lon="1.6084">
        <ele>177</ele>
        <time>2021-06-24T02:02:47Z</time>
      </trkpt>
      <trkpt lat="47.01584" lon="1.60854">
        <ele>176</ele>
        <time>2021-06-24T02:03:33Z</time>
      </trkpt>
      <trkpt lat="47.01451" lon="1.60846">
        <ele>170</ele>
        <time>2021-06-24T02:03:56Z</time>
      </trkpt>
      <trkpt lat="47.01318" lon="1.60839">
        <ele>165</ele>
        <time>2021-06-24T02:04:20Z</time>
      </trkpt>
      <trkpt lat="47.01273" lon="1.60837">
        <ele>164</ele>
        <time>2021-06-24T02:04:28Z</time>
      </trkpt>
      <trkpt lat="47.0113" lon="1.60828">
        <ele>161</ele>
        <time>2021-06-24T02:04:54Z</time>
      </trkpt>
      <trkpt lat="47.01097" lon="1.60826">
        <ele>159</ele>
        <time>2021-06-24T02:04:59Z</time>
      </trkpt>
      <trkpt lat="47.01008" lon="1.60821">
        <ele>157</ele>
        <time>2021-06-24T02:05:15Z</time>
      </trkpt>
      <trkpt lat="47.00992" lon="1.6082">
        <ele>157</ele>
        <time>2021-06-24T02:05:18Z</time>
      </trkpt>
      <trkpt lat="47.00766" lon="1.60806">
        <ele>154</ele>
        <time>2021-06-24T02:05:58Z</time>
      </trkpt>
      <trkpt lat="47.00494" lon="1.60788">
        <ele>156</ele>
        <time>2021-06-24T02:06:47Z</time>
      </trkpt>
      <trkpt lat="47.0037" lon="1.60782">
        <ele>153</ele>
        <time>2021-06-24T02:07:09Z</time>
      </trkpt>
      <trkpt lat="47.00361" lon="1.60781">
        <ele>153</ele>
        <time>2021-06-24T02:07:11Z</time>
      </trkpt>
      <trkpt lat="47.00293" lon="1.60778">
        <ele>152</ele>
        <time>2021-06-24T02:07:23Z</time>
      </trkpt>
      <trkpt lat="47.00067" lon="1.60764">
        <ele>151</ele>
        <time>2021-06-24T02:08:03Z</time>
      </trkpt>
      <trkpt lat="46.9997" lon="1.60759">
        <ele>148</ele>
        <time>2021-06-24T02:08:20Z</time>
      </trkpt>
      <trkpt lat="46.99821" lon="1.6075">
        <ele>141</ele>
        <time>2021-06-24T02:08:47Z</time>
      </trkpt>
      <trkpt lat="46.99752" lon="1.60746">
        <ele>136</ele>
        <time>2021-06-24T02:08:59Z</time>
      </trkpt>
      <trkpt lat="46.99679" lon="1.60742">
        <ele>136</ele>
        <time>2021-06-24T02:09:12Z</time>
      </trkpt>
      <trkpt lat="46.99677" lon="1.60742">
        <ele>136</ele>
        <time>2021-06-24T02:09:12Z</time>
      </trkpt>
      <trkpt lat="46.99643" lon="1.60739">
        <ele>138</ele>
        <time>2021-06-24T02:09:18Z</time>
      </trkpt>
      <trkpt lat="46.9913" lon="1.60708">
        <ele>143</ele>
        <time>2021-06-24T02:10:50Z</time>
      </trkpt>
      <trkpt lat="46.99067" lon="1.60705">
        <ele>145</ele>
        <time>2021-06-24T02:11:01Z</time>
      </trkpt>
      <trkpt lat="46.99045" lon="1.60703">
        <ele>146</ele>
        <time>2021-06-24T02:11:05Z</time>
      </trkpt>
      <trkpt lat="46.98953" lon="1.60699">
        <ele>148</ele>
        <time>2021-06-24T02:11:21Z</time>
      </trkpt>
      <trkpt lat="46.98917" lon="1.60697">
        <ele>149</ele>
        <time>2021-06-24T02:11:28Z</time>
      </trkpt>
      <trkpt lat="46.989" lon="1.60697">
        <ele>150</ele>
        <time>2021-06-24T02:11:31Z</time>
      </trkpt>
      <trkpt lat="46.98842" lon="1.60693">
        <ele>151</ele>
        <time>2021-06-24T02:11:41Z</time>
      </trkpt>
      <trkpt lat="46.98697" lon="1.60682">
        <ele>151</ele>
        <time>2021-06-24T02:12:07Z</time>
      </trkpt>
      <trkpt lat="46.98659" lon="1.60681">
        <ele>150</ele>
        <time>2021-06-24T02:12:14Z</time>
      </trkpt>
      <trkpt lat="46.98638" lon="1.60684">
        <ele>149</ele>
        <time>2021-06-24T02:12:17Z</time>
      </trkpt>
      <trkpt lat="46.98616" lon="1.6069">
        <ele>149</ele>
        <time>2021-06-24T02:12:21Z</time>
      </trkpt>
      <trkpt lat="46.9859" lon="1.60704">
        <ele>148</ele>
        <time>2021-06-24T02:12:26Z</time>
      </trkpt>
      <trkpt lat="46.98576" lon="1.60714">
        <ele>148</ele>
        <time>2021-06-24T02:12:29Z</time>
      </trkpt>
      <trkpt lat="46.98563" lon="1.60726">
        <ele>147</ele>
        <time>2021-06-24T02:12:32Z</time>
      </trkpt>
      <trkpt lat="46.9854" lon="1.60755">
        <ele>145</ele>
        <time>2021-06-24T02:12:37Z</time>
      </trkpt>
      <trkpt lat="46.98518" lon="1.60795">
        <ele>144</ele>
        <time>2021-06-24T02:12:43Z</time>
      </trkpt>
      <trkpt lat="46.98499" lon="1.60847">
        <ele>142</ele>
        <time>2021-06-24T02:12:51Z</time>
      </trkpt>
      <trkpt lat="46.98454" lon="1.60996">
        <ele>139</ele>
        <time>2021-06-24T02:13:10Z</time>
      </trkpt>
      <trkpt lat="46.9844" lon="1.61044">
        <ele>138</ele>
        <time>2021-06-24T02:13:17Z</time>
      </trkpt>
      <trkpt lat="46.98435" lon="1.61059">
        <ele>138</ele>
        <time>2021-06-24T02:13:19Z</time>
      </trkpt>
      <trkpt lat="46.98431" lon="1.61072">
        <ele>138</ele>
        <time>2021-06-24T02:13:20Z</time>
      </trkpt>
      <trkpt lat="46.98427" lon="1.61081">
        <ele>138</ele>
        <time>2021-06-24T02:13:22Z</time>
      </trkpt>
      <trkpt lat="46.98421" lon="1.6109">
        <ele>137</ele>
        <time>2021-06-24T02:13:23Z</time>
      </trkpt>
      <trkpt lat="46.98416" lon="1.61095">
        <ele>137</ele>
        <time>2021-06-24T02:13:24Z</time>
      </trkpt>
      <trkpt lat="46.98412" lon="1.61099">
        <ele>137</ele>
        <time>2021-06-24T02:13:25Z</time>
      </trkpt>
      <trkpt lat="46.98408" lon="1.61102">
        <ele>137</ele>
        <time>2021-06-24T02:13:26Z</time>
      </trkpt>
      <trkpt lat="46.98399" lon="1.61107">
        <ele>137</ele>
        <time>2021-06-24T02:13:28Z</time>
      </trkpt>
      <trkpt lat="46.98392" lon="1.61109">
        <ele>137</ele>
        <time>2021-06-24T02:13:29Z</time>
      </trkpt>
      <trkpt lat="46.98285" lon="1.61112">
        <ele>137</ele>
        <time>2021-06-24T02:13:48Z</time>
      </trkpt>
      <trkpt lat="46.98253" lon="1.61119">
        <ele>138</ele>
        <time>2021-06-24T02:13:54Z</time>
      </trkpt>
      <trkpt lat="46.98199" lon="1.61136">
        <ele>138</ele>
        <time>2021-06-24T02:14:04Z</time>
      </trkpt>
      <trkpt lat="46.9817" lon="1.61156">
        <ele>138</ele>
        <time>2021-06-24T02:14:09Z</time>
      </trkpt>
      <trkpt lat="46.98136" lon="1.61164">
        <ele>139</ele>
        <time>2021-06-24T02:14:15Z</time>
      </trkpt>
      <trkpt lat="46.98096" lon="1.61169">
        <ele>140</ele>
        <time>2021-06-24T02:14:23Z</time>
      </trkpt>
      <trkpt lat="46.98079" lon="1.61174">
        <ele>140</ele>
        <time>2021-06-24T02:14:26Z</time>
      </trkpt>
      <trkpt lat="46.98058" lon="1.61185">
        <ele>141</ele>
        <time>2021-06-24T02:14:30Z</time>
      </trkpt>
      <trkpt lat="46.9804" lon="1.61197">
        <ele>141</ele>
        <time>2021-06-24T02:14:33Z</time>
      </trkpt>
      <trkpt lat="46.97955" lon="1.61279">
        <ele>142</ele>
        <time>2021-06-24T02:14:51Z</time>
      </trkpt>
      <trkpt lat="46.97897" lon="1.61317">
        <ele>142</ele>
        <time>2021-06-24T02:15:03Z</time>
      </trkpt>
      <trkpt lat="46.97857" lon="1.61327">
        <ele>141</ele>
        <time>2021-06-24T02:15:10Z</time>
      </trkpt>
      <trkpt lat="46.97821" lon="1.6134">
        <ele>140</ele>
        <time>2021-06-24T02:15:16Z</time>
      </trkpt>
      <trkpt lat="46.97771" lon="1.61347">
        <ele>140</ele>
        <time>2021-06-24T02:15:25Z</time>
      </trkpt>
      <trkpt lat="46.97477" lon="1.61337">
        <ele>142</ele>
        <time>2021-06-24T02:16:18Z</time>
      </trkpt>
      <trkpt lat="46.9745" lon="1.61341">
        <ele>141</ele>
        <time>2021-06-24T02:16:22Z</time>
      </trkpt>
      <trkpt lat="46.97418" lon="1.61347">
        <ele>141</ele>
        <time>2021-06-24T02:16:28Z</time>
      </trkpt>
      <trkpt lat="46.97169" lon="1.61458">
        <ele>144</ele>
        <time>2021-06-24T02:17:15Z</time>
      </trkpt>
      <trkpt lat="46.95352" lon="1.62288">
        <ele>172</ele>
        <time>2021-06-24T02:22:53Z</time>
      </trkpt>
      <trkpt lat="46.94508" lon="1.6268">
        <ele>166</ele>
        <time>2021-06-24T02:25:31Z</time>
      </trkpt>
      <trkpt lat="46.94135" lon="1.6285">
        <ele>161</ele>
        <time>2021-06-24T02:26:40Z</time>
      </trkpt>
      <trkpt lat="46.93585" lon="1.63103">
        <ele>155</ele>
        <time>2021-06-24T02:28:23Z</time>
      </trkpt>
      <trkpt lat="46.91609" lon="1.64017">
        <ele>167</ele>
        <time>2021-06-24T02:34:32Z</time>
      </trkpt>
      <trkpt lat="46.89005" lon="1.65214">
        <ele>164</ele>
        <time>2021-06-24T02:42:37Z</time>
      </trkpt>
      <trkpt lat="46.88426" lon="1.65477">
        <ele>161</ele>
        <time>2021-06-24T02:44:25Z</time>
      </trkpt>
      <trkpt lat="46.87455" lon="1.6593">
        <ele>149</ele>
        <time>2021-06-24T02:47:26Z</time>
      </trkpt>
      <trkpt lat="46.87107" lon="1.66088">
        <ele>147</ele>
        <time>2021-06-24T02:48:31Z</time>
      </trkpt>
      <trkpt lat="46.85837" lon="1.66669">
        <ele>155</ele>
        <time>2021-06-24T02:52:28Z</time>
      </trkpt>
      <trkpt lat="46.85564" lon="1.66791">
        <ele>148</ele>
        <time>2021-06-24T02:53:19Z</time>
      </trkpt>
      <trkpt lat="46.85521" lon="1.66813">
        <ele>148</ele>
        <time>2021-06-24T02:53:27Z</time>
      </trkpt>
      <trkpt lat="46.85234" lon="1.66939">
        <ele>149</ele>
        <time>2021-06-24T02:54:20Z</time>
      </trkpt>
      <trkpt lat="46.8491" lon="1.67089">
        <ele>147</ele>
        <time>2021-06-24T02:55:21Z</time>
      </trkpt>
      <trkpt lat="46.84926" lon="1.67102">
        <ele>147</ele>
        <time>2021-06-24T02:55:24Z</time>
      </trkpt>
      <trkpt lat="46.84341" lon="1.67376">
        <ele>147</ele>
        <time>2021-06-24T02:57:13Z</time>
      </trkpt>
      <trkpt lat="46.84313" lon="1.67396">
        <ele>148</ele>
        <time>2021-06-24T02:57:19Z</time>
      </trkpt>
      <trkpt lat="46.84301" lon="1.67443">
        <ele>148</ele>
        <time>2021-06-24T02:57:25Z</time>
      </trkpt>
      <trkpt lat="46.84275" lon="1.67456">
        <ele>148</ele>
        <time>2021-06-24T02:57:30Z</time>
      </trkpt>
      <trkpt lat="46.84261" lon="1.6745">
        <ele>148</ele>
        <time>2021-06-24T02:57:32Z</time>
      </trkpt>
      <trkpt lat="46.84213" lon="1.67421">
        <ele>148</ele>
        <time>2021-06-24T02:57:42Z</time>
      </trkpt>
      <trkpt lat="46.83947" lon="1.6755">
        <ele>147</ele>
        <time>2021-06-24T02:58:31Z</time>
      </trkpt>
      <trkpt lat="46.8394" lon="1.67559">
        <ele>147</ele>
        <time>2021-06-24T02:58:33Z</time>
      </trkpt>
      <trkpt lat="46.8392" lon="1.67564">
        <ele>147</ele>
        <time>2021-06-24T02:58:37Z</time>
      </trkpt>
      <trkpt lat="46.83914" lon="1.67562">
        <ele>147</ele>
        <time>2021-06-24T02:58:38Z</time>
      </trkpt>
      <trkpt lat="46.83488" lon="1.67753">
        <ele>148</ele>
        <time>2021-06-24T02:59:57Z</time>
      </trkpt>
      <trkpt lat="46.83477" lon="1.67746">
        <ele>148</ele>
        <time>2021-06-24T02:59:59Z</time>
      </trkpt>
      <trkpt lat="46.83043" lon="1.67945">
        <ele>158</ele>
        <time>2021-06-24T03:01:20Z</time>
      </trkpt>
      <trkpt lat="46.82875" lon="1.68022">
        <ele>155</ele>
        <time>2021-06-24T03:01:51Z</time>
      </trkpt>
      <trkpt lat="46.82822" lon="1.68047">
        <ele>154</ele>
        <time>2021-06-24T03:02:01Z</time>
      </trkpt>
      <trkpt lat="46.82817" lon="1.68049">
        <ele>154</ele>
        <time>2021-06-24T03:02:02Z</time>
      </trkpt>
      <trkpt lat="46.82695" lon="1.68105">
        <ele>153</ele>
        <time>2021-06-24T03:02:25Z</time>
      </trkpt>
      <trkpt lat="46.82683" lon="1.68111">
        <ele>153</ele>
        <time>2021-06-24T03:02:27Z</time>
      </trkpt>
      <trkpt lat="46.82633" lon="1.68134">
        <ele>152</ele>
        <time>2021-06-24T03:02:37Z</time>
      </trkpt>
      <trkpt lat="46.82587" lon="1.68155">
        <ele>149</ele>
        <time>2021-06-24T03:02:45Z</time>
      </trkpt>
      <trkpt lat="46.82474" lon="1.68208">
        <ele>149</ele>
        <time>2021-06-24T03:03:06Z</time>
      </trkpt>
      <trkpt lat="46.82419" lon="1.68233">
        <ele>148</ele>
        <time>2021-06-24T03:03:17Z</time>
      </trkpt>
      <trkpt lat="46.82315" lon="1.68281">
        <ele>148</ele>
        <time>2021-06-24T03:03:36Z</time>
      </trkpt>
      <trkpt lat="46.82297" lon="1.6829">
        <ele>148</ele>
        <time>2021-06-24T03:03:39Z</time>
      </trkpt>
      <trkpt lat="46.82281" lon="1.68297">
        <ele>149</ele>
        <time>2021-06-24T03:03:42Z</time>
      </trkpt>
      <trkpt lat="46.82074" lon="1.68392">
        <ele>145</ele>
        <time>2021-06-24T03:04:21Z</time>
      </trkpt>
      <trkpt lat="46.82037" lon="1.68409">
        <ele>144</ele>
        <time>2021-06-24T03:04:28Z</time>
      </trkpt>
      <trkpt lat="46.82029" lon="1.68409">
        <ele>144</ele>
        <time>2021-06-24T03:04:29Z</time>
      </trkpt>
      <trkpt lat="46.82017" lon="1.68408">
        <ele>144</ele>
        <time>2021-06-24T03:04:31Z</time>
      </trkpt>
      <trkpt lat="46.82015" lon="1.68404">
        <ele>144</ele>
        <time>2021-06-24T03:04:32Z</time>
      </trkpt>
      <trkpt lat="46.82012" lon="1.68403">
        <ele>144</ele>
        <time>2021-06-24T03:04:33Z</time>
      </trkpt>
      <trkpt lat="46.82009" lon="1.68404">
        <ele>144</ele>
        <time>2021-06-24T03:04:33Z</time>
      </trkpt>
      <trkpt lat="46.82006" lon="1.68407">
        <ele>144</ele>
        <time>2021-06-24T03:04:34Z</time>
      </trkpt>
      <trkpt lat="46.82005" lon="1.68411">
        <ele>143</ele>
        <time>2021-06-24T03:04:34Z</time>
      </trkpt>
      <trkpt lat="46.82005" lon="1.68416">
        <ele>143</ele>
        <time>2021-06-24T03:04:35Z</time>
      </trkpt>
      <trkpt lat="46.81996" lon="1.6843">
        <ele>143</ele>
        <time>2021-06-24T03:04:37Z</time>
      </trkpt>
      <trkpt lat="46.81989" lon="1.68433">
        <ele>143</ele>
        <time>2021-06-24T03:04:39Z</time>
      </trkpt>
      <trkpt lat="46.81981" lon="1.68436">
        <ele>143</ele>
        <time>2021-06-24T03:04:40Z</time>
      </trkpt>
      <trkpt lat="46.81973" lon="1.68439">
        <ele>143</ele>
        <time>2021-06-24T03:04:41Z</time>
      </trkpt>
      <trkpt lat="46.81949" lon="1.68449">
        <ele>144</ele>
        <time>2021-06-24T03:04:46Z</time>
      </trkpt>
      <trkpt lat="46.81923" lon="1.68455">
        <ele>144</ele>
        <time>2021-06-24T03:04:51Z</time>
      </trkpt>
      <trkpt lat="46.81847" lon="1.68457">
        <ele>144</ele>
        <time>2021-06-24T03:05:04Z</time>
      </trkpt>
      <trkpt lat="46.81752" lon="1.68461">
        <ele>142</ele>
        <time>2021-06-24T03:05:21Z</time>
      </trkpt>
      <trkpt lat="46.81724" lon="1.68461">
        <ele>141</ele>
        <time>2021-06-24T03:05:26Z</time>
      </trkpt>
      <trkpt lat="46.81718" lon="1.68462">
        <ele>141</ele>
        <time>2021-06-24T03:05:27Z</time>
      </trkpt>
      <trkpt lat="46.81714" lon="1.68461">
        <ele>141</ele>
        <time>2021-06-24T03:05:28Z</time>
      </trkpt>
      <trkpt lat="46.81704" lon="1.68453">
        <ele>141</ele>
        <time>2021-06-24T03:05:30Z</time>
      </trkpt>
      <trkpt lat="46.81701" lon="1.68448">
        <ele>141</ele>
        <time>2021-06-24T03:05:31Z</time>
      </trkpt>
      <trkpt lat="46.81698" lon="1.68445">
        <ele>141</ele>
        <time>2021-06-24T03:05:31Z</time>
      </trkpt>
      <trkpt lat="46.81697" lon="1.68442">
        <ele>141</ele>
        <time>2021-06-24T03:05:32Z</time>
      </trkpt>
      <trkpt lat="46.81697" lon="1.6844">
        <ele>141</ele>
        <time>2021-06-24T03:05:32Z</time>
      </trkpt>
      <trkpt lat="46.81695" lon="1.68436">
        <ele>140</ele>
        <time>2021-06-24T03:05:33Z</time>
      </trkpt>
      <trkpt lat="46.8169" lon="1.68431">
        <ele>140</ele>
        <time>2021-06-24T03:05:34Z</time>
      </trkpt>
      <trkpt lat="46.81687" lon="1.6843">
        <ele>140</ele>
        <time>2021-06-24T03:05:34Z</time>
      </trkpt>
      <trkpt lat="46.81685" lon="1.6843">
        <ele>140</ele>
        <time>2021-06-24T03:05:35Z</time>
      </trkpt>
      <trkpt lat="46.8168" lon="1.68433">
        <ele>140</ele>
        <time>2021-06-24T03:05:35Z</time>
      </trkpt>
      <trkpt lat="46.81678" lon="1.68436">
        <ele>140</ele>
        <time>2021-06-24T03:05:36Z</time>
      </trkpt>
      <trkpt lat="46.81677" lon="1.68439">
        <ele>140</ele>
        <time>2021-06-24T03:05:36Z</time>
      </trkpt>
      <trkpt lat="46.81676" lon="1.68443">
        <ele>140</ele>
        <time>2021-06-24T03:05:37Z</time>
      </trkpt>
      <trkpt lat="46.81668" lon="1.68449">
        <ele>140</ele>
        <time>2021-06-24T03:05:39Z</time>
      </trkpt>
      <trkpt lat="46.81651" lon="1.68456">
        <ele>140</ele>
        <time>2021-06-24T03:05:42Z</time>
      </trkpt>
      <trkpt lat="46.81643" lon="1.6846">
        <ele>140</ele>
        <time>2021-06-24T03:05:43Z</time>
      </trkpt>
      <trkpt lat="46.81636" lon="1.68462">
        <ele>140</ele>
        <time>2021-06-24T03:05:44Z</time>
      </trkpt>
      <trkpt lat="46.81629" lon="1.68465">
        <ele>140</ele>
        <time>2021-06-24T03:05:46Z</time>
      </trkpt>
      <trkpt lat="46.81609" lon="1.68465">
        <ele>140</ele>
        <time>2021-06-24T03:05:49Z</time>
      </trkpt>
      <trkpt lat="46.81586" lon="1.68466">
        <ele>141</ele>
        <time>2021-06-24T03:05:53Z</time>
      </trkpt>
      <trkpt lat="46.8158" lon="1.68466">
        <ele>141</ele>
        <time>2021-06-24T03:05:54Z</time>
      </trkpt>
      <trkpt lat="46.81491" lon="1.68472">
        <ele>141</ele>
        <time>2021-06-24T03:06:10Z</time>
      </trkpt>
      <trkpt lat="46.81477" lon="1.68473">
        <ele>141</ele>
        <time>2021-06-24T03:06:13Z</time>
      </trkpt>
      <trkpt lat="46.81326" lon="1.68478">
        <ele>140</ele>
        <time>2021-06-24T03:06:40Z</time>
      </trkpt>
      <trkpt lat="46.81277" lon="1.68479">
        <ele>144</ele>
        <time>2021-06-24T03:06:48Z</time>
      </trkpt>
      <trkpt lat="46.81276" lon="1.68479">
        <ele>144</ele>
        <time>2021-06-24T03:06:49Z</time>
      </trkpt>
      <trkpt lat="46.81271" lon="1.6848">
        <ele>144</ele>
        <time>2021-06-24T03:06:49Z</time>
      </trkpt>
      <trkpt lat="46.81267" lon="1.6848">
        <ele>145</ele>
        <time>2021-06-24T03:06:50Z</time>
      </trkpt>
      <trkpt lat="46.81252" lon="1.68481">
        <ele>146</ele>
        <time>2021-06-24T03:06:53Z</time>
      </trkpt>
      <trkpt lat="46.81221" lon="1.68482">
        <ele>147</ele>
        <time>2021-06-24T03:06:58Z</time>
      </trkpt>
      <trkpt lat="46.81185" lon="1.68483">
        <ele>148</ele>
        <time>2021-06-24T03:07:05Z</time>
      </trkpt>
      <trkpt lat="46.81153" lon="1.68485">
        <ele>150</ele>
        <time>2021-06-24T03:07:10Z</time>
      </trkpt>
      <trkpt lat="46.8115" lon="1.68486">
        <ele>150</ele>
        <time>2021-06-24T03:07:11Z</time>
      </trkpt>
      <trkpt lat="46.81146" lon="1.68487">
        <ele>150</ele>
        <time>2021-06-24T03:07:12Z</time>
      </trkpt>
      <trkpt lat="46.81145" lon="1.68482">
        <ele>150</ele>
        <time>2021-06-24T03:07:12Z</time>
      </trkpt>
      <trkpt lat="46.81141" lon="1.68474">
        <ele>150</ele>
        <time>2021-06-24T03:07:14Z</time>
      </trkpt>
      <trkpt lat="46.81137" lon="1.68472">
        <ele>150</ele>
        <time>2021-06-24T03:07:14Z</time>
      </trkpt>
      <trkpt lat="46.81134" lon="1.68472">
        <ele>150</ele>
        <time>2021-06-24T03:07:15Z</time>
      </trkpt>
      <trkpt lat="46.8113" lon="1.68474">
        <ele>150</ele>
        <time>2021-06-24T03:07:16Z</time>
      </trkpt>
      <trkpt lat="46.81127" lon="1.68477">
        <ele>151</ele>
        <time>2021-06-24T03:07:16Z</time>
      </trkpt>
      <trkpt lat="46.81125" lon="1.68481">
        <ele>151</ele>
        <time>2021-06-24T03:07:17Z</time>
      </trkpt>
      <trkpt lat="46.81113" lon="1.68484">
        <ele>151</ele>
        <time>2021-06-24T03:07:19Z</time>
      </trkpt>
      <trkpt lat="46.81115" lon="1.68491">
        <ele>151</ele>
        <time>2021-06-24T03:07:20Z</time>
      </trkpt>
      <trkpt lat="46.8112" lon="1.68497">
        <ele>151</ele>
        <time>2021-06-24T03:07:21Z</time>
      </trkpt>
      <trkpt lat="46.81124" lon="1.68513">
        <ele>150</ele>
        <time>2021-06-24T03:07:23Z</time>
      </trkpt>
      <trkpt lat="46.81124" lon="1.68521">
        <ele>150</ele>
        <time>2021-06-24T03:07:24Z</time>
      </trkpt>
      <trkpt lat="46.81112" lon="1.68563">
        <ele>150</ele>
        <time>2021-06-24T03:07:30Z</time>
      </trkpt>
      <trkpt lat="46.81107" lon="1.68569">
        <ele>151</ele>
        <time>2021-06-24T03:07:31Z</time>
      </trkpt>
      <trkpt lat="46.81101" lon="1.68582">
        <ele>151</ele>
        <time>2021-06-24T03:07:33Z</time>
      </trkpt>
      <trkpt lat="46.81098" lon="1.68599">
        <ele>150</ele>
        <time>2021-06-24T03:07:35Z</time>
      </trkpt>
      <trkpt lat="46.8105" lon="1.68705">
        <ele>151</ele>
        <time>2021-06-24T03:07:50Z</time>
      </trkpt>
      <trkpt lat="46.81037" lon="1.68695">
        <ele>151</ele>
        <time>2021-06-24T03:07:53Z</time>
      </trkpt>
      <trkpt lat="46.81025" lon="1.68695">
        <ele>152</ele>
        <time>2021-06-24T03:07:55Z</time>
      </trkpt>
      <trkpt lat="46.8102" lon="1.68697">
        <ele>152</ele>
        <time>2021-06-24T03:07:56Z</time>
      </trkpt>
      <trkpt lat="46.81013" lon="1.6871">
        <ele>152</ele>
        <time>2021-06-24T03:07:58Z</time>
      </trkpt>
      <trkpt lat="46.80996" lon="1.68765">
        <ele>152</ele>
        <time>2021-06-24T03:08:05Z</time>
      </trkpt>
      <trkpt lat="46.80983" lon="1.68801">
        <ele>153</ele>
        <time>2021-06-24T03:08:10Z</time>
      </trkpt>
      <trkpt lat="46.80958" lon="1.6886">
        <ele>154</ele>
        <time>2021-06-24T03:08:19Z</time>
      </trkpt>
      <trkpt lat="46.80944" lon="1.68893">
        <ele>154</ele>
        <time>2021-06-24T03:08:24Z</time>
      </trkpt>
      <trkpt lat="46.80908" lon="1.68964">
        <ele>154</ele>
        <time>2021-06-24T03:08:34Z</time>
      </trkpt>
      <trkpt lat="46.8088" lon="1.69029">
        <ele>155</ele>
        <time>2021-06-24T03:08:44Z</time>
      </trkpt>
      <trkpt lat="46.80877" lon="1.69039">
        <ele>155</ele>
        <time>2021-06-24T03:08:45Z</time>
      </trkpt>
      <trkpt lat="46.80882" lon="1.69057">
        <ele>155</ele>
        <time>2021-06-24T03:08:47Z</time>
      </trkpt>
      <trkpt lat="46.80876" lon="1.6907">
        <ele>156</ele>
        <time>2021-06-24T03:08:49Z</time>
      </trkpt>
      <trkpt lat="46.80858" lon="1.69112">
        <ele>156</ele>
        <time>2021-06-24T03:08:55Z</time>
      </trkpt>
      <trkpt lat="46.80842" lon="1.69143">
        <ele>156</ele>
        <time>2021-06-24T03:09:00Z</time>
      </trkpt>
      <trkpt lat="46.80832" lon="1.69161">
        <ele>156</ele>
        <time>2021-06-24T03:09:03Z</time>
      </trkpt>
      <trkpt lat="46.80826" lon="1.69175">
        <ele>156</ele>
        <time>2021-06-24T03:09:05Z</time>
      </trkpt>
      <trkpt lat="46.80808" lon="1.69204">
        <ele>156</ele>
        <time>2021-06-24T03:09:10Z</time>
      </trkpt>
      <trkpt lat="46.80801" lon="1.69214">
        <ele>157</ele>
        <time>2021-06-24T03:09:11Z</time>
      </trkpt>
      <trkpt lat="46.80791" lon="1.69231">
        <ele>157</ele>
        <time>2021-06-24T03:09:14Z</time>
      </trkpt>
      <trkpt lat="46.80778" lon="1.69255">
        <ele>157</ele>
        <time>2021-06-24T03:09:18Z</time>
      </trkpt>
      <trkpt lat="46.8074" lon="1.69315">
        <ele>156</ele>
        <time>2021-06-24T03:09:28Z</time>
      </trkpt>
      <trkpt lat="46.80738" lon="1.69319">
        <ele>156</ele>
        <time>2021-06-24T03:09:28Z</time>
      </trkpt>
      <trkpt lat="46.80727" lon="1.69339">
        <ele>156</ele>
        <time>2021-06-24T03:09:32Z</time>
      </trkpt>
      <trkpt lat="46.80693" lon="1.69405">
        <ele>155</ele>
        <time>2021-06-24T03:09:42Z</time>
      </trkpt>
      <trkpt lat="46.80684" lon="1.69425">
        <ele>155</ele>
        <time>2021-06-24T03:09:44Z</time>
      </trkpt>
      <trkpt lat="46.80676" lon="1.69444">
        <ele>155</ele>
        <time>2021-06-24T03:09:47Z</time>
      </trkpt>
      <trkpt lat="46.80671" lon="1.69456">
        <ele>155</ele>
        <time>2021-06-24T03:09:49Z</time>
      </trkpt>
      <trkpt lat="46.80651" lon="1.69507">
        <ele>155</ele>
        <time>2021-06-24T03:09:56Z</time>
      </trkpt>
      <trkpt lat="46.80642" lon="1.69533">
        <ele>155</ele>
        <time>2021-06-24T03:10:00Z</time>
      </trkpt>
      <trkpt lat="46.80632" lon="1.69541">
        <ele>155</ele>
        <time>2021-06-24T03:10:02Z</time>
      </trkpt>
      <trkpt lat="46.80574" lon="1.69707">
        <ele>155</ele>
        <time>2021-06-24T03:10:24Z</time>
      </trkpt>
      <trkpt lat="46.80555" lon="1.69752">
        <ele>154</ele>
        <time>2021-06-24T03:10:31Z</time>
      </trkpt>
      <trkpt lat="46.80536" lon="1.69782">
        <ele>154</ele>
        <time>2021-06-24T03:10:36Z</time>
      </trkpt>
      <trkpt lat="46.80522" lon="1.69801">
        <ele>154</ele>
        <time>2021-06-24T03:10:39Z</time>
      </trkpt>
      <trkpt lat="46.80519" lon="1.69818">
        <ele>153</ele>
        <time>2021-06-24T03:10:41Z</time>
      </trkpt>
      <trkpt lat="46.80514" lon="1.69824">
        <ele>153</ele>
        <time>2021-06-24T03:10:42Z</time>
      </trkpt>
      <trkpt lat="46.80503" lon="1.69831">
        <ele>153</ele>
        <time>2021-06-24T03:10:45Z</time>
      </trkpt>
      <trkpt lat="46.8071" lon="1.70198">
        <ele>151</ele>
        <time>2021-06-24T03:11:43Z</time>
      </trkpt>
      <trkpt lat="46.80823" lon="1.70402">
        <ele>148</ele>
        <time>2021-06-24T03:12:14Z</time>
      </trkpt>
      <trkpt lat="46.80867" lon="1.70477">
        <ele>148</ele>
        <time>2021-06-24T03:12:27Z</time>
      </trkpt>
      <trkpt lat="46.80874" lon="1.70487">
        <ele>148</ele>
        <time>2021-06-24T03:12:28Z</time>
      </trkpt>
      <trkpt lat="46.80623" lon="1.71013">
        <ele>157</ele>
        <time>2021-06-24T03:13:46Z</time>
      </trkpt>
      <trkpt lat="46.80546" lon="1.71179">
        <ele>158</ele>
        <time>2021-06-24T03:14:11Z</time>
      </trkpt>
      <trkpt lat="46.80432" lon="1.71416">
        <ele>160</ele>
        <time>2021-06-24T03:14:46Z</time>
      </trkpt>
      <trkpt lat="46.80321" lon="1.71656">
        <ele>157</ele>
        <time>2021-06-24T03:15:21Z</time>
      </trkpt>
      <trkpt lat="46.80236" lon="1.71824">
        <ele>156</ele>
        <time>2021-06-24T03:15:47Z</time>
      </trkpt>
      <trkpt lat="46.80231" lon="1.71836">
        <ele>156</ele>
        <time>2021-06-24T03:15:48Z</time>
      </trkpt>
      <trkpt lat="46.80224" lon="1.71858">
        <ele>156</ele>
        <time>2021-06-24T03:15:51Z</time>
      </trkpt>
      <trkpt lat="46.80163" lon="1.71985">
        <ele>156</ele>
        <time>2021-06-24T03:16:10Z</time>
      </trkpt>
      <trkpt lat="46.80157" lon="1.71979">
        <ele>156</ele>
        <time>2021-06-24T03:16:12Z</time>
      </trkpt>
      <trkpt lat="46.80154" lon="1.71987">
        <ele>156</ele>
        <time>2021-06-24T03:16:13Z</time>
      </trkpt>
      <trkpt lat="46.80094" lon="1.72113">
        <ele>157</ele>
        <time>2021-06-24T03:16:31Z</time>
      </trkpt>
    </trkseg>
  </trk>
</gpx>